[[[{"header":{"parameterUnit":"kt","parameterCategory":2,"dx":1,"dy":1,"la1":29.285339999999998,"la2":30.599998999999997,"lo1":-89.70041500000002,"lo2":-87.6738589999976,"nx":112,"ny":82,"refTime":"2022-09-25T06:00:00:Z","depth":0,"parameterNumber":1,"parameterNumberName":"U-component_of_WINDS"},"data":[19.9051,19.9217,0.0,19.9217,19.9217,0.0,20.1023,0.0,0.0,0.0,0.0,0.0,0.0,0.0,0.0,0.0,0.0,0.0,0.0,22.0457,22.1969,22.2789,22.1571,22.1211,22.2163,22.1409,22.0619,22.026,21.9273,21.8286,21.7331,21.674,21.6542,21.6542,21.6542,21.674,21.73,21.8321,21.9668,22.1606,22.2561,22.371,22.5121,22.5121,22.5121,22.5121,22.5121,22.5121,22.5121,22.5121,22.5121,22.5121,22.5121,22.5121,22.5121,22.5121,22.5121,22.5121,22.5121,22.5121,22.5121,22.5121,22.5121,22.5121,22.5121,22.5121,22.5486,22.7064,22.6239,22.545,22.7028,22.6239,22.5121,22.5121,22.4664,22.4307,22.4307,22.3912,22.3732,22.4301,22.4307,22.4307,22.4307,22.4307,22.3948,22.3,22.2971,22.3153,22.3153,22.3942,22.4128,22.3725,22.3552,22.3363,22.2561,22.2176,22.2564,22.4094,22.6115,22.7833,22.9372,23.0534,23.1715,23.2489,23.0896,23.0509,23.134,22.9795,22.8983,22.8983,22.8983,22.8983,0.0,0.0,19.9217,19.9217,0.0,0.0,0.0,0.0,0.0,0.0,0.0,0.0,0.0,0.0,0.0,0.0,0.0,0.0,0.0,21.6971,21.9699,22.0619,22.0062,21.983,22.0817,21.9861,21.9273,21.8681,21.8321,21.7497,21.6542,21.6542,21.6542,21.6542,21.6542,21.6542,21.6542,21.7497,21.8844,22.0817,22.1803,22.3149,22.5121,22.5121,22.5121,22.5121,22.5121,22.5121,22.5121,22.5121,22.5121,22.5121,22.5121,22.5121,22.5121,22.5121,22.5121,22.5121,22.5121,22.5121,22.5121,22.5121,22.5121,22.5121,22.5121,22.5121,22.5121,22.5121,22.5121,22.5121,22.5121,22.5121,22.5121,22.5121,22.4552,22.3912,22.3912,22.3363,22.2963,22.3342,22.3515,22.3515,22.3515,22.3363,22.2963,22.2157,22.2202,22.2349,22.2349,22.2942,22.3334,22.2789,22.2752,22.2358,22.1612,22.1194,22.1395,22.2561,22.3918,22.5475,22.7013,22.8375,22.8978,22.9023,22.8984,22.9011,22.8983,22.8983,22.8983,22.8983,22.8983,22.8983,0.0,0.0,0.0,19.9248,0.0,0.0,0.0,0.0,20.1779,0.0,0.0,0.0,20.7402,20.898,20.76,20.0826,20.783,0.0,0.0,21.1118,21.6576,21.6576,21.6576,21.7529,22.0422,21.8086,21.7168,21.8484,21.73,21.6542,21.6542,21.6542,21.6542,21.6542,21.6542,21.6542,21.6542,21.6542,21.7923,22.0817,22.0817,22.2395,22.5056,22.5121,22.5121,22.5121,22.5121,22.5121,22.5121,22.5121,22.5121,22.5121,22.5121,22.5121,22.5121,22.5121,22.5121,22.5121,22.5121,22.5121,22.5121,22.5121,22.5121,22.5121,22.5121,22.5121,22.5121,22.5121,22.5121,22.5121,22.5121,22.5121,22.5121,22.5121,22.4516,22.3942,22.3942,22.3327,22.2781,22.2781,22.2781,22.2781,22.2781,22.199,22.1176,22.066,22.1017,22.1603,22.1603,22.2202,22.2781,22.2781,22.2781,22.2386,22.1612,22.1603,22.1204,22.0418,22.1797,22.257,22.257,22.396,22.5312,22.6832,22.6832,22.7605,22.9022,22.8983,22.8983,22.8983,22.8983,22.8983,19.5171,0.0,0.0,0.0,0.0,0.0,0.0,0.0,0.0,0.0,0.0,0.0,0.0,0.0,20.9342,20.7402,0.0,21.2465,21.1479,21.3452,21.4964,21.4964,21.4964,21.5753,21.7529,21.6937,21.6774,21.7168,21.674,21.6542,21.6542,21.6542,21.6542,21.6542,21.6542,21.6542,21.6542,21.6542,21.7497,21.9273,22.0256,22.1803,22.3513,22.4696,22.5121,22.5121,22.5121,22.5121,22.5121,22.5121,22.5121,22.5121,22.5121,22.5121,22.5121,22.5121,22.5121,22.5121,22.5121,22.5121,22.5121,22.5121,22.5121,22.5121,22.5121,22.5121,22.5121,22.5121,22.5121,22.5121,22.5121,22.5121,22.5121,22.5121,22.4122,22.3145,22.3145,22.1982,22.1204,22.1797,22.1973,22.1973,22.1973,22.1241,22.0606,22.0418,22.0633,22.0783,22.0783,22.1389,22.1788,22.1194,22.164,22.1575,22.0858,22.0783,22.0606,22.0445,22.1797,22.257,22.257,22.396,22.49,22.5286,22.6278,22.709,22.7437,22.8403,22.8983,22.8983,22.8983,22.8983,0.0,0.0,0.0,0.0,0.0,0.0,0.0,0.0,20.0629,0.0,0.0,0.0,0.0,0.0,0.0,0.0,20.8388,21.0493,20.8388,21.1117,21.3452,21.3452,21.3452,21.3846,21.457,21.4801,21.5161,21.6511,21.5951,21.5985,21.6576,21.6542,21.6542,21.6542,21.6542,21.6542,21.6542,21.6542,21.73,21.8681,22.0059,22.1606,22.2987,22.4499,22.5121,22.5121,22.5121,22.5121,22.5121,22.5121,22.5121,22.5121,22.5121,22.5121,22.5121,22.5121,22.5121,22.5121,22.5121,22.5121,22.5121,22.5121,22.5121,22.5121,22.5121,22.5121,22.5121,22.5121,22.5121,22.5121,22.5121,22.5121,22.5121,22.5121,22.3978,22.2752,22.2752,22.1603,22.0595,22.1045,22.099,22.099,22.099,22.0847,22.0445,22.0445,22.0445,22.0445,22.0445,22.0793,22.097,22.0418,22.0793,22.1034,22.0418,22.0445,22.0445,22.0445,22.1218,22.1566,22.1566,22.2377,22.3187,22.3767,22.4668,22.5312,22.5892,22.7412,22.8017,22.8017,22.8017,22.8403,0.0,0.0,0.0,0.0,19.6714,0.0,0.0,0.0,19.9642,20.0795,0.0,20.2141,20.4706,0.0,0.0,19.8853,20.4706,20.7599,20.1418,20.704,21.1874,21.2038,21.2038,21.2104,21.2236,21.2236,21.3254,21.5919,21.503,21.4964,21.6148,21.6576,21.6542,21.6542,21.6542,21.6542,21.6542,21.6542,21.7134,21.8484,21.983,22.1409,22.2724,22.4135,22.4924,22.5121,22.5121,22.5121,22.5121,22.5121,22.5121,22.5121,22.5121,22.5121,22.5121,22.5121,22.5121,22.5121,22.5121,22.5121,22.5121,22.5121,22.5121,22.5121,22.5121,22.5121,22.5121,22.5121,22.5121,22.5121,22.5121,22.5086,22.4914,22.4914,22.3732,22.2541,22.2541,22.1427,22.0445,22.0445,22.0445,22.0445,22.0445,22.0445,22.0445,22.0445,22.0445,22.0445,22.0445,22.0445,22.0445,22.0445,22.0445,22.0445,22.0445,22.0445,22.0445,22.0445,22.0042,21.9853,21.9853,21.9448,22.0051,22.178,22.2418,22.3149,22.4513,22.5892,22.6471,22.6446,22.6665,22.7243,0.0,0.0,0.0,0.0,0.0,19.7109,0.0,0.0,0.0,19.9642,20.0563,20.1581,20.2173,20.4114,20.5265,20.4082,20.6448,20.8191,20.7994,20.8388,20.9145,21.0295,21.0328,21.0887,21.2071,21.2236,21.2499,21.3025,21.3813,21.457,21.4833,21.5985,21.6542,21.6542,21.6542,21.6542,21.6542,21.6542,21.6774,21.6937,21.8484,21.9865,22.1176,22.2724,22.3938,22.5121,22.5121,22.5121,22.5121,22.5121,22.5121,22.5121,22.5121,22.5121,22.5121,22.5121,22.5121,22.5121,22.5121,22.5121,22.5121,22.5121,22.5121,22.5121,22.5121,22.5121,22.5121,22.5121,22.5121,22.5121,22.5121,22.4694,22.4128,22.4128,22.2935,22.1797,22.1797,22.1017,22.0445,22.0445,22.0445,22.0445,22.0445,22.0445,22.0445,22.0445,22.0445,22.0445,22.0445,22.0445,22.0445,22.0445,22.0445,22.0445,22.0445,22.0445,22.0445,22.0445,21.7713,21.6171,21.6171,21.3424,21.3222,21.6574,22.063,22.2763,22.2956,22.4513,22.454,22.3574,22.566,22.5455,0.0,0.0,0.0,19.0173,0.0,0.0,0.0,19.8293,19.9217,19.9217,19.984,20.0595,20.1221,20.2536,20.3885,20.5495,20.6284,20.7007,20.76,20.7796,20.7994,20.8783,20.875,20.9177,20.9934,21.0723,21.0756,21.0131,21.1248,21.2826,21.4372,21.4996,21.5753,21.6576,21.6542,21.6542,21.6542,21.6542,21.6542,21.6542,21.7923,21.947,22.0782,22.2364,22.371,22.5121,22.5121,22.5121,22.5121,22.5121,22.5121,22.5121,22.5121,22.5121,22.5121,22.5121,22.5121,22.5121,22.5121,22.5121,22.5121,22.5121,22.5121,22.5121,22.5121,22.5121,22.5121,22.5121,22.4873,22.4486,22.4486,22.3912,22.3334,22.3334,22.2358,22.1575,22.1575,22.1007,22.0445,22.0445,22.0445,22.0445,22.0445,22.0445,22.0445,22.0445,22.0445,22.0445,22.0445,22.0445,22.0445,22.0445,22.0445,21.9638,21.7867,21.7713,21.6952,21.5179,21.3402,21.2473,21.2473,21.0734,21.0508,21.2494,21.4812,21.7128,21.8898,21.7696,21.7114,21.732,22.0648,22.0839,0.0,0.0,0.0,0.0,0.0,0.0,19.632,19.7704,19.8822,19.9248,19.9217,19.9642,20.0792,20.1155,20.2141,20.4509,20.5265,20.5692,20.5692,20.6613,20.7402,20.7829,20.7796,20.7796,20.7796,20.875,20.8947,20.7796,20.875,21.0722,21.3452,21.401,21.4964,21.6182,21.6345,21.6542,21.6542,21.6542,21.6542,21.6542,21.7695,21.9076,22.0422,22.1803,22.3316,22.4727,22.4924,22.5121,22.5121,22.5121,22.5121,22.5121,22.5121,22.5121,22.5121,22.5121,22.5121,22.5121,22.5121,22.5121,22.5121,22.5121,22.5121,22.5121,22.5121,22.5121,22.5121,22.5121,22.4486,22.3912,22.3912,22.3124,22.2598,22.2598,22.2009,22.1417,22.1417,22.0831,22.0445,22.0445,22.0445,22.0445,22.0445,22.0445,22.0445,22.0445,22.0445,22.0445,22.0445,22.0445,22.0445,22.0445,22.0445,21.9094,21.5565,21.5186,21.3625,20.9928,20.9157,20.897,20.9741,20.8341,20.836,20.9741,20.9177,21.0487,21.4026,21.0548,20.977,21.1505,21.4769,21.5604,0.0,0.0,0.0,18.5965,18.8858,0.0,19.4417,19.6126,19.767,19.9051,19.9217,19.9217,19.9414,20.0595,20.1581,20.1747,20.3885,20.5692,20.5692,20.5824,20.6416,20.7599,20.7796,20.7796,20.7796,20.8027,20.7994,20.7796,20.8027,20.8783,21.0328,21.3057,21.4404,21.4602,21.5985,21.6542,21.6542,21.6542,21.6542,21.6542,21.6774,21.7497,21.8844,22.0422,22.1803,22.3351,22.453,22.5121,22.5121,22.5121,22.5121,22.5121,22.5121,22.5121,22.5121,22.5121,22.5121,22.5121,22.5121,22.5121,22.5121,22.5121,22.5121,22.5121,22.5121,22.5121,22.5121,22.5121,22.4486,22.3912,22.3912,22.2724,22.1788,22.1788,22.1194,22.0595,22.0595,22.0418,22.0445,22.0445,22.0445,22.0445,22.0445,22.0445,22.0445,22.0445,22.0445,22.0445,22.0445,22.0445,22.0445,22.0445,22.0445,21.9094,21.5565,21.5186,21.3625,20.9928,20.681,20.6468,20.9555,20.3684,20.3348,20.9555,20.6621,20.681,21.0301,20.681,20.6846,20.9967,21.1655,21.0727,0.0,17.7745,18.1296,18.4255,0.0,0.0,19.4088,19.596,19.7504,19.8822,19.9217,19.9217,19.9217,19.984,20.0432,20.1221,20.2339,20.3128,20.3128,20.4706,20.589,20.6481,20.7205,20.7796,20.7796,20.7796,20.7796,20.7796,20.7796,20.7994,20.8553,21.1479,21.3617,21.4438,21.5753,21.6542,21.6542,21.6542,21.6542,21.6542,21.6542,21.73,21.8681,21.9273,22.0851,22.2921,22.3579,22.4332,22.5121,22.5121,22.5121,22.5121,22.5121,22.5121,22.5121,22.5121,22.5121,22.5121,22.5121,22.5121,22.5121,22.5121,22.5121,22.5121,22.5121,22.5121,22.5121,22.5121,22.4908,22.4343,22.3545,22.2386,22.1362,22.098,22.0606,22.0445,22.0445,22.0445,22.0445,22.0445,22.0445,22.0445,22.0445,22.0445,22.0445,22.0445,22.0445,22.0445,22.0445,22.0445,22.0445,22.0445,22.0445,21.8098,21.2473,21.2025,20.9533,20.3947,20.2169,20.2139,20.3509,20.0825,20.0645,20.3509,20.2125,20.2184,20.3716,20.2184,20.2125,20.37,20.6444,20.6062,17.2117,0.0,0.0,0.0,0.0,0.0,19.3957,19.5763,19.6946,19.8853,19.9217,19.9217,19.9217,19.9217,19.9642,20.0629,20.076,20.0989,20.1384,20.3128,20.4674,20.5626,20.6613,20.7435,20.7829,20.7796,20.7796,20.7796,20.7796,20.7796,20.7796,20.9934,21.1907,21.3781,21.5556,21.6542,21.6542,21.6542,21.6542,21.6542,21.6542,21.7103,21.8089,21.8484,21.9865,22.1838,22.2592,22.3513,22.453,22.453,22.4727,22.5121,22.5121,22.5121,22.5121,22.5121,22.5121,22.5121,22.5121,22.5121,22.5121,22.5121,22.5121,22.5121,22.5121,22.5121,22.5121,22.5121,22.5121,22.4736,22.3342,22.2414,22.1389,22.0633,22.0445,22.0445,22.0445,22.0445,22.0445,22.0445,22.0445,22.0445,22.0445,22.0445,22.0445,22.0445,22.0445,22.0445,22.0445,22.0445,22.0445,22.0445,22.0445,21.7906,21.1657,21.0321,20.7194,20.0977,19.9858,19.9618,20.0587,19.9812,19.9663,20.0587,19.9812,19.9221,19.9221,19.9221,19.9221,19.9267,20.1768,20.2179,0.0,0.0,0.0,18.2648,18.5241,18.7806,19.3496,19.4781,19.5732,19.8656,19.9217,19.9217,19.9217,19.9217,19.9217,19.9217,19.9217,19.984,20.1155,20.1418,20.2536,20.5265,20.566,20.6284,20.7599,20.7796,20.7796,20.7796,20.7796,20.7796,20.7796,20.7796,20.9342,21.2236,21.4964,21.6542,21.6542,21.6542,21.6542,21.6542,21.6542,21.6542,21.6708,21.8089,21.8681,21.8844,22.1772,22.2921,22.2987,22.2987,22.3907,22.5121,22.5121,22.5121,22.5121,22.5121,22.5121,22.5121,22.5121,22.5121,22.5121,22.5121,22.5121,22.5121,22.5121,22.5121,22.5121,22.5121,22.5121,22.4878,22.4158,22.2752,22.1389,22.0633,22.0445,22.0445,22.0445,22.0445,22.0445,22.0445,22.0445,22.0445,22.0445,22.0445,22.0445,22.0445,22.0445,22.0445,22.0445,22.0445,22.0445,22.0445,22.0445,21.889,21.5344,21.1719,20.8192,20.4499,20.123,20.0825,20.4106,20.1036,20.0812,20.4297,20.0991,19.9221,19.9221,19.9221,19.9221,19.9221,19.9461,19.9416,16.9131,17.2391,17.6561,18.1427,18.4452,18.774,19.3496,19.4811,19.557,19.8656,19.9217,19.9217,19.9217,19.9217,19.9217,19.9217,19.9217,19.9445,19.9808,20.076,20.2173,20.408,20.51,20.6218,20.7599,20.7796,20.7796,20.7796,20.7796,20.7796,20.7796,20.7796,20.875,21.069,21.2696,21.4603,21.6576,21.6542,21.6542,21.6542,21.6542,21.6542,21.6542,21.7103,21.7726,21.8681,21.9668,22.0028,22.0194,22.1246,22.2395,22.3745,22.3745,22.4302,22.5121,22.5121,22.5121,22.5121,22.5121,22.5121,22.5121,22.5121,22.5121,22.5121,22.5121,22.5121,22.5121,22.5121,22.5121,22.5086,22.4736,22.3515,22.2018,22.0783,22.0445,22.0445,22.0445,22.0445,22.0445,22.0445,22.0445,22.0445,22.0445,22.0445,22.0445,22.0445,22.0445,22.0445,22.0445,22.0445,22.0445,22.0445,22.0445,21.9094,21.5565,21.1862,20.8173,20.4673,20.1171,19.9812,20.1005,19.9845,19.9858,20.0991,19.9845,19.9221,19.9221,19.9221,19.9221,19.9221,19.9221,19.9221,16.8381,17.1668,17.5641,17.9981,18.3663,18.7411,19.2182,19.4022,19.5535,19.7902,19.8853,19.9217,19.9217,19.9217,19.9217,19.9217,19.9217,19.9217,19.9217,20.0037,20.1384,20.3291,20.4311,20.5626,20.7632,20.7796,20.7796,20.7796,20.7796,20.7796,20.7796,20.7796,20.8356,20.9933,21.1512,21.342,21.5753,21.6379,21.6542,21.6542,21.6542,21.6542,21.6542,21.6542,21.7103,21.7892,21.7892,21.8321,21.8681,21.9633,22.0817,22.2198,22.2759,22.3513,22.4332,22.4924,22.5121,22.5121,22.5121,22.5121,22.5121,22.5121,22.5121,22.5121,22.5121,22.5121,22.5121,22.5121,22.5121,22.5121,22.5121,22.3912,22.2561,22.1566,22.0793,22.0445,22.0445,22.0445,22.0445,22.0445,22.0445,22.0445,22.0445,22.0445,22.0445,22.0445,22.0445,22.0445,22.0445,22.0445,22.0445,22.0445,22.0445,21.9448,21.7312,21.3785,21.0156,20.6596,20.3143,20.0555,19.9267,19.9221,19.9221,19.9221,19.9221,19.9221,19.9221,19.9221,19.9221,19.9221,19.9221,19.9221,16.8105,17.1038,17.4221,17.8572,18.2911,18.6951,18.9844,19.2707,19.514,19.6683,19.8293,19.9217,19.9217,19.9217,19.9217,19.9217,19.9217,19.9217,19.9217,19.9217,20.0203,20.316,20.3488,20.4672,20.7632,20.7796,20.7796,20.7796,20.7796,20.7796,20.7796,20.7796,20.8388,20.9736,21.1282,21.2828,21.4207,21.5753,21.6576,21.6542,21.6542,21.6542,21.6542,21.6542,21.6542,21.6542,21.6542,21.73,21.8484,21.8484,21.947,22.0817,22.2198,22.2724,22.2987,22.4499,22.4924,22.4889,22.5121,22.5121,22.5121,22.5121,22.5121,22.5121,22.5121,22.5121,22.5121,22.5121,22.5121,22.5121,22.5121,22.3912,22.2752,22.2752,22.164,22.0445,22.0445,22.0445,22.0445,22.0445,22.0445,22.0445,22.0445,22.0445,22.0445,22.0445,22.0445,22.0445,22.0445,22.0445,22.0445,22.0445,22.0445,22.0408,22.0219,21.6938,21.3446,20.9741,20.6228,20.2746,19.9461,19.9221,19.9221,19.9221,19.9221,19.9221,19.9221,19.9221,19.9221,19.9221,19.9221,19.9221,16.8324,17.1038,17.4221,17.8572,18.2911,18.6951,18.9844,19.2707,19.514,19.6683,19.8293,19.9217,19.9217,19.9217,19.9217,19.9217,19.9217,19.9217,19.9217,19.9217,20.0203,20.316,20.3488,20.4672,20.7632,20.7796,20.7796,20.7796,20.7796,20.7796,20.7796,20.7796,20.8027,20.8421,20.9736,21.1282,21.2828,21.4241,21.559,21.6542,21.6542,21.6542,21.6542,21.6542,21.6542,21.6542,21.6542,21.674,21.7103,21.7103,21.7892,21.9273,21.9668,22.0457,22.1606,22.2987,22.3513,22.3745,22.4727,22.5121,22.5121,22.5121,22.5121,22.5121,22.5121,22.5121,22.5121,22.5121,22.5121,22.5121,22.5121,22.3912,22.2752,22.2752,22.164,22.0445,22.0445,22.0445,22.0445,22.0445,22.0445,22.0445,22.0445,22.0445,22.0445,22.0445,22.0445,22.0445,22.0445,22.0445,22.0445,22.0445,22.0445,21.9436,21.6743,21.3263,20.9513,20.6039,20.2524,20.0207,19.9267,19.9221,19.9221,19.9221,19.9221,19.9221,19.9221,19.9221,19.9221,19.9221,19.9221,19.9221,16.6308,16.9985,17.409,17.7717,18.248,18.6622,18.8266,19.1787,19.5009,19.596,19.7275,19.8459,19.9019,19.9217,19.9217,19.9217,19.9217,19.9217,19.9217,19.9217,20.0203,20.316,20.3488,20.4672,20.7632,20.7796,20.7796,20.7796,20.7796,20.7796,20.7796,20.7796,20.7796,20.7796,20.9144,21.0328,21.1315,21.3452,21.4833,21.5556,21.6148,21.6542,21.6542,21.6542,21.6542,21.6542,21.6542,21.6542,21.6542,21.6542,21.6937,21.7726,21.8518,21.9307,22.0028,22.1409,22.2395,22.3153,22.3907,22.453,22.5121,22.5121,22.5121,22.5121,22.5121,22.5121,22.5121,22.5121,22.5121,22.5121,22.5121,22.4164,22.3189,22.276,22.1797,22.1007,22.1007,22.0606,22.0445,22.0445,22.0445,22.0445,22.0445,22.0445,22.0445,22.0445,22.0445,22.0445,22.0445,22.0445,22.0445,22.0445,22.0445,21.9664,21.7699,21.4185,21.0508,20.7023,20.3524,20.0812,19.9208,19.9221,19.9221,19.9221,19.9221,19.9221,19.9221,19.9221,19.9221,19.9221,19.9221,19.9221,16.3698,16.8446,17.3432,17.6627,18.1888,18.6228,18.6228,19.0502,19.4548,19.4746,19.5929,19.7504,19.9051,19.9217,19.9217,19.9217,19.9217,19.9217,19.9217,19.9217,20.0234,20.2962,20.3357,20.4509,20.7205,20.7599,20.7796,20.7796,20.7796,20.7796,20.7796,20.7796,20.7796,20.7796,20.8947,20.9736,20.9933,21.2629,21.4241,21.4438,21.5785,21.6542,21.6542,21.6542,21.6542,21.6542,21.6542,21.6542,21.6542,21.6542,21.6542,21.6708,21.7892,21.8518,21.8449,22.0028,22.1443,22.2395,22.2592,22.3543,22.4894,22.4894,22.4924,22.5121,22.5121,22.5121,22.5121,22.5121,22.5121,22.5121,22.5121,22.4486,22.3732,22.3145,22.2386,22.1834,22.1612,22.1017,22.0595,22.0418,22.0445,22.0445,22.0445,22.0445,22.0445,22.0445,22.0445,22.0445,22.0445,22.0445,22.0445,22.0445,22.0445,22.0193,21.988,21.6938,21.3424,20.9324,20.6228,20.2967,19.9403,19.9221,19.9221,19.9221,19.9221,19.9221,19.9221,19.9221,19.9221,19.9221,19.9221,19.9221,16.4083,16.7,17.0906,17.6167,18.1888,18.6228,18.6228,18.9713,19.333,19.4548,19.5929,19.7504,19.9051,19.9217,19.9217,19.9217,19.9217,19.9217,19.9217,19.9217,19.9808,20.1581,20.2733,20.4114,20.589,20.7007,20.7796,20.7796,20.7796,20.7796,20.7796,20.7796,20.7796,20.7796,20.7994,20.8783,20.9933,21.1676,21.3254,21.4438,21.5785,21.6542,21.6542,21.6542,21.6542,21.6542,21.6542,21.6542,21.6542,21.6542,21.6542,21.6542,21.674,21.6971,21.7103,21.8484,21.9307,21.9668,22.0817,22.2167,22.3316,22.3316,22.4105,22.5121,22.5121,22.5121,22.5121,22.5121,22.5121,22.5121,22.5121,22.4486,22.3942,22.3732,22.3522,22.3153,22.1769,22.1399,22.1231,22.0595,22.0445,22.0445,22.0445,22.0445,22.0445,22.0445,22.0445,22.0445,22.0445,22.0445,22.0445,22.0445,22.0445,21.9258,21.6391,21.5542,21.2475,20.5841,20.4863,20.2967,19.9403,19.9221,19.9221,19.9221,19.9221,19.9221,19.9221,19.9221,19.9221,19.9221,19.9221,19.9221,16.3008,16.608,16.9761,17.3273,17.9088,18.4416,18.5833,18.899,19.2146,19.4351,19.5337,19.6521,19.8853,19.9217,19.9217,19.9217,19.9217,19.9217,19.9217,19.9217,19.984,20.1155,20.2731,20.408,20.5463,20.704,20.7796,20.7796,20.7796,20.7796,20.7796,20.7796,20.7796,20.7796,20.7796,20.8224,20.875,21.0295,21.1907,21.3254,21.4767,21.5753,21.6576,21.5753,21.5753,21.6542,21.6542,21.6542,21.6542,21.6542,21.6542,21.6542,21.6542,21.6542,21.6542,21.73,21.8089,21.8847,21.947,22.0619,22.1803,22.1803,22.2789,22.3938,22.3938,22.453,22.5121,22.5121,22.5121,22.5121,22.5121,22.4873,22.448,22.3919,22.3912,22.3696,22.2971,22.2166,22.1399,22.1221,22.0644,22.0445,22.0445,22.0445,22.0445,22.0445,22.0445,22.0445,22.0445,22.0445,22.0445,22.0445,22.0445,21.9094,21.5565,21.3424,21.0134,20.4863,20.279,20.0991,19.9208,19.9221,19.9221,19.9221,19.9221,19.9221,19.9221,19.9221,19.9221,19.9221,19.9221,19.9221,16.2024,16.5317,16.8868,17.0643,17.5838,18.1522,18.5307,18.7937,19.0502,19.3628,19.4548,19.557,19.823,19.9051,19.9217,19.9217,19.9217,19.9217,19.9217,19.9217,19.9611,20.076,20.2141,20.3686,20.51,20.6481,20.7402,20.7829,20.7796,20.7796,20.7796,20.7796,20.7796,20.7796,20.7796,20.7796,20.7796,20.9144,21.0525,21.1841,21.3254,21.4602,21.5951,21.4964,21.503,21.6182,21.6345,21.6542,21.6542,21.6542,21.6542,21.6542,21.6542,21.6542,21.6542,21.6542,21.73,21.8321,21.8321,21.9041,22.0457,22.0457,22.1443,22.2526,22.2956,22.371,22.4727,22.5091,22.5121,22.5121,22.5121,22.5121,22.4914,22.4307,22.4164,22.4128,22.3948,22.2935,22.1982,22.1612,22.099,22.0633,22.0418,22.0445,22.0445,22.0445,22.0445,22.0445,22.0445,22.0445,22.0445,22.0445,22.0445,21.9296,21.6587,21.3643,21.0136,20.5867,20.2892,20.0767,19.9208,19.9221,19.9221,19.9221,19.9221,19.9221,19.9221,19.9221,19.9221,19.9221,19.9221,19.9221,16.2339,16.4593,16.7645,17.038,17.3536,17.7745,18.465,18.6425,18.7806,19.1949,19.3825,19.5368,19.6881,19.823,19.9217,19.9217,19.9217,19.9217,19.9217,19.9217,19.9217,19.9445,20.0792,20.2173,20.3554,20.5067,20.6416,20.7599,20.7796,20.7796,20.7796,20.7796,20.7796,20.7796,20.7796,20.7796,20.7796,20.9144,20.99,21.0131,21.1676,21.3222,21.4635,21.4404,21.4404,21.4602,21.5951,21.6542,21.6542,21.6542,21.6542,21.6542,21.6542,21.6542,21.6542,21.6542,21.6542,21.6774,21.6774,21.7695,21.8878,21.8878,21.983,22.1211,22.2526,22.2987,22.3381,22.4727,22.5121,22.5121,22.5121,22.5121,22.5121,22.5116,22.4914,22.4736,22.4122,22.3703,22.3363,22.1769,22.1603,22.1241,22.066,22.0445,22.0445,22.0445,22.0445,22.0445,22.0445,22.0445,22.0445,22.0445,22.0445,22.0268,22.0031,21.9664,21.6499,20.9741,20.899,20.5867,19.9436,19.9221,19.9221,19.9221,19.9221,19.9221,19.9221,19.9221,19.9221,19.9221,19.9221,19.9221,16.0875,16.3804,16.725,16.9262,17.2589,17.6336,18.0112,18.2377,18.5139,19.0305,19.3168,19.5206,19.6943,19.8262,19.9217,19.9217,19.9217,19.9217,19.9217,19.9217,19.9217,19.9217,20.0595,20.1976,20.3357,20.487,20.6284,20.7599,20.7796,20.7796,20.7796,20.7796,20.7796,20.7796,20.7796,20.7796,20.7796,20.8388,20.9177,20.9933,21.0525,21.1117,21.1709,21.1709,21.2268,21.3222,21.4635,21.5193,21.5359,21.6148,21.6542,21.6542,21.6542,21.6542,21.6542,21.6542,21.6542,21.6542,21.6542,21.6971,21.7331,21.7331,21.8318,21.9668,22.026,22.1575,22.3153,22.3745,22.4499,22.5121,22.5121,22.5121,22.5121,22.5121,22.5121,22.4908,22.4158,22.3552,22.2963,22.1797,22.1166,22.082,22.0418,22.0445,22.0445,22.0445,22.0445,22.0445,22.0445,22.0445,22.0445,22.0445,21.8507,21.6367,21.4225,21.4003,21.094,20.3919,20.5513,20.4281,19.9449,19.9221,19.9221,19.9221,19.9221,19.9221,19.9221,19.9221,19.9221,19.9221,19.9221,19.9221,15.9944,16.3081,16.6566,16.8446,17.1471,17.4654,17.6956,17.9812,18.31,18.7148,19.0932,19.4088,19.6122,19.7701,19.8691,19.9248,19.9217,19.9217,19.9217,19.9217,19.9217,19.9217,20.0169,20.1418,20.3291,20.4475,20.5856,20.7599,20.7796,20.7796,20.7796,20.7796,20.7796,20.7796,20.7796,20.7796,20.7796,20.7796,20.8421,20.9375,20.9375,20.9375,20.9375,20.9736,21.0525,21.171,21.3024,21.4044,21.4404,21.5556,21.6148,21.6542,21.6542,21.6542,21.6542,21.6542,21.6542,21.6542,21.6542,21.6542,21.6542,21.6542,21.73,21.8089,21.8484,22.0062,22.1772,22.2198,22.3381,22.4499,22.4499,22.4499,22.453,22.4889,22.5121,22.4914,22.4343,22.3906,22.3153,22.2194,22.1399,22.1007,22.0456,22.0445,22.0445,22.0445,22.0445,22.0445,22.0445,22.0445,22.0445,22.0445,21.8303,21.5739,21.3057,21.1923,20.8738,20.2746,20.3744,20.2967,19.9403,19.9221,19.9221,19.9221,19.9221,19.9221,19.9221,19.9221,19.9221,19.9221,19.9221,19.9221,16.0278,16.2266,16.5199,16.8183,17.0051,17.2221,17.6496,17.9812,18.1982,18.1982,18.6557,19.1393,19.4285,19.6092,19.7472,19.9051,19.9217,19.9217,19.9217,19.9217,19.9217,19.9217,19.9217,20.0432,20.3323,20.3488,20.4672,20.7632,20.7796,20.7796,20.7796,20.7796,20.7796,20.7796,20.7796,20.7796,20.7796,20.7796,20.7796,20.7796,20.7796,20.7796,20.7796,20.9375,20.9933,21.0164,21.171,21.3057,21.4438,21.4438,21.5193,21.6542,21.6542,21.6542,21.6542,21.6542,21.6542,21.6542,21.6542,21.6542,21.6542,21.6542,21.6542,21.674,21.8286,21.8681,21.9076,22.0422,22.1768,22.2921,22.2921,22.2921,22.3316,22.4727,22.5121,22.5121,22.5121,22.5121,22.4694,22.2942,22.2752,22.2138,22.0644,22.0445,22.0445,22.0445,22.0445,22.0445,22.0445,22.0445,22.0445,22.0445,22.0445,22.0408,22.0268,21.7132,21.3647,20.9907,20.6425,20.2967,19.9403,19.9221,19.9221,19.9221,19.9221,19.9221,19.9221,19.9221,19.9221,19.9221,19.9221,19.9221,15.9417,16.1543,16.3738,16.6698,16.9262,17.1695,17.4024,17.5274,17.7115,18.1127,18.4123,18.7609,19.2409,19.5368,19.7306,19.767,19.8656,19.9217,19.9217,19.9217,19.9217,19.9217,19.9217,20.0432,20.3323,20.3488,20.4672,20.7632,20.7796,20.7796,20.7796,20.7796,20.7796,20.7796,20.7796,20.7796,20.7796,20.7796,20.7796,20.7796,20.7796,20.7796,20.7796,20.8191,20.8356,20.8586,20.9933,21.092,21.1479,21.2465,21.3781,21.5161,21.6148,21.6542,21.6542,21.6542,21.6542,21.6542,21.6542,21.6542,21.6542,21.6542,21.6542,21.6542,21.7103,21.7892,21.8681,21.9273,22.0457,22.1211,22.026,22.0851,22.1768,22.3316,22.3543,22.3766,22.4117,22.4337,22.3906,22.2174,22.1945,22.1612,22.0633,22.0445,22.0445,22.0445,22.0445,22.0445,22.0445,22.0445,22.0445,22.0445,21.8277,21.6923,21.6923,21.5778,21.2616,20.645,20.7406,20.6407,20.2952,20.2775,20.1753,19.9267,19.9221,19.9221,19.9221,19.9221,19.9221,19.9221,19.9221,19.9221,15.8979,16.124,16.3015,16.6,16.8105,16.9815,17.1235,17.2446,17.455,17.9286,18.1822,18.4715,18.9318,19.3527,19.6355,19.714,19.8262,19.9217,19.9217,19.9217,19.9217,19.9217,19.9217,20.0234,20.2568,20.316,20.4475,20.681,20.7402,20.7796,20.7796,20.7796,20.7796,20.7796,20.7796,20.7796,20.7796,20.7796,20.7796,20.7796,20.7796,20.7796,20.7796,20.7796,20.7796,20.7796,20.8783,20.9309,20.99,21.092,21.2268,21.3649,21.4603,21.5161,21.5753,21.6345,21.6542,21.6542,21.6542,21.6542,21.6542,21.6542,21.6542,21.6542,21.6542,21.7134,21.7892,21.7892,21.8844,21.9865,21.8878,21.9238,22.0457,22.1803,22.2526,22.3144,22.3502,22.395,22.3883,22.2781,22.2202,22.176,22.1045,22.0633,22.0445,22.0445,22.0445,22.0445,22.0445,22.0445,22.0445,22.0445,21.8494,21.7132,21.7132,21.5936,21.3263,20.8799,21.0528,21.0094,20.6639,20.6468,20.5453,20.332,20.1976,20.1157,20.1216,19.9786,19.9221,19.9221,19.9221,19.9221,15.8979,16.1174,16.2884,16.5869,16.6592,16.6987,16.8473,17.0906,17.3695,17.6561,17.9614,18.264,18.5402,19.0502,19.4974,19.6714,19.8064,19.9019,19.9217,19.9217,19.9217,19.9217,19.9217,19.984,20.1221,20.2568,20.3917,20.5463,20.6778,20.7599,20.7796,20.7796,20.7796,20.7796,20.7796,20.7796,20.7796,20.7796,20.7796,20.7796,20.7796,20.7796,20.7796,20.7796,20.7796,20.7796,20.7796,20.8586,20.9736,20.9736,21.069,21.2104,21.2104,21.3025,21.4438,21.5785,21.6576,21.6542,21.6542,21.6542,21.6542,21.6542,21.6542,21.6542,21.6542,21.6542,21.6542,21.6542,21.7497,21.8484,21.8484,21.8484,21.8878,22.0256,22.1606,22.2759,22.2724,22.3907,22.4676,22.3955,22.316,22.2561,22.1612,22.0868,22.0445,22.0445,22.0445,22.0445,22.0445,22.0445,22.0445,22.0445,22.0445,22.0445,22.0445,21.7506,21.5542,21.5542,21.5542,21.3825,20.9948,20.9721,20.9533,20.8929,20.5841,20.4122,20.4078,20.0767,19.9221,19.9221,19.9221,19.9221,15.8716,16.0425,16.1346,16.4304,16.5028,16.5422,16.6895,16.867,17.0709,17.3629,17.735,18.0741,18.264,18.6717,19.1028,19.4776,19.6521,19.8095,19.9019,19.9217,19.9217,19.9217,19.9217,19.984,20.1221,20.1779,20.293,20.5495,20.6021,20.6613,20.7829,20.7796,20.7796,20.7796,20.7796,20.7796,20.7796,20.7796,20.7796,20.7796,20.7796,20.7796,20.7796,20.7796,20.7796,20.7796,20.7796,20.7994,20.8355,20.8355,20.9177,21.0558,21.0558,21.1479,21.286,21.4372,21.5556,21.6542,21.6542,21.6542,21.6542,21.6542,21.6542,21.6542,21.6542,21.6542,21.6542,21.6542,21.674,21.7103,21.7103,21.7103,21.7331,21.8878,21.947,22.0062,22.1014,22.236,22.2958,22.1602,22.2182,22.2378,22.1007,22.066,22.0445,22.0445,22.0445,22.0445,22.0445,22.0445,22.0445,22.0445,22.0445,22.0445,22.0445,21.9664,21.9284,21.9284,21.9284,21.6304,20.9928,20.9721,20.7236,20.1783,20.0812,20.0361,20.0361,19.9618,19.9221,19.9221,19.9221,19.9221,15.8584,16.0162,16.0885,16.3753,16.4476,16.4896,16.6461,16.7881,16.9722,17.2577,17.6101,17.9323,18.1522,18.4942,18.8559,19.2182,19.5171,19.7732,19.9051,19.9217,19.9217,19.9217,19.9217,19.9642,20.0397,20.0958,20.1944,20.349,20.4903,20.6021,20.6843,20.7402,20.7796,20.7796,20.7796,20.7796,20.7796,20.7796,20.7796,20.7796,20.7796,20.7796,20.7796,20.7796,20.7796,20.7796,20.7796,20.7796,20.7796,20.7796,20.8191,20.898,20.898,20.9901,21.1282,21.2037,21.3221,21.457,21.5393,21.5951,21.6542,21.6542,21.6542,21.6542,21.6542,21.6542,21.6542,21.6542,21.6542,21.6542,21.6542,21.6542,21.6774,21.7497,21.8321,21.8878,21.9668,22.1049,22.179,22.0778,22.1204,22.1623,22.0613,22.0416,22.0445,22.0445,22.0445,22.0445,22.0445,22.0445,22.0445,22.0445,22.0445,22.0445,22.0445,22.0445,22.0445,22.0445,22.0445,21.8699,21.4822,21.4601,21.2878,20.8948,20.5652,20.4138,20.4138,20.0767,19.9221,19.9221,19.9221,19.9221,15.8584,16.0359,16.1148,16.3753,16.4476,16.483,16.6106,16.7552,16.9328,17.1985,17.4813,17.7707,18.0732,18.3824,18.6754,18.945,19.3724,19.7275,19.9051,19.9217,19.9217,19.9217,19.9217,19.9217,19.9217,20.0366,20.1187,20.1352,20.3949,20.5429,20.5692,20.7007,20.7796,20.7796,20.7796,20.7796,20.7796,20.7796,20.7796,20.7796,20.7796,20.7796,20.7796,20.7796,20.7796,20.7796,20.7796,20.7796,20.7796,20.7796,20.7796,20.7796,20.7796,20.8586,20.9506,20.9967,21.0722,21.2071,21.3617,21.4964,21.6148,21.6148,21.6345,21.6542,21.6542,21.6542,21.6542,21.6542,21.6542,21.6542,21.6542,21.6542,21.6542,21.6542,21.7497,21.8286,21.8286,21.9436,22.0453,22.0415,22.0475,22.046,22.025,22.0049,22.0053,22.0246,22.0236,22.0188,22.0445,22.0445,22.0445,22.0445,22.0445,22.0445,22.0445,22.0445,22.0445,22.0445,22.0445,22.0445,22.0445,21.9827,21.9106,21.8085,21.1473,20.821,20.821,20.2184,19.9221,19.9221,19.9221,19.9221,15.8584,16.1108,16.2423,16.4016,16.4476,16.4476,16.4765,16.604,16.7579,16.9235,17.1827,17.4748,17.7641,18.1559,18.4978,18.6622,19.1554,19.6157,19.8822,19.9217,19.9217,19.9217,19.9217,19.9217,19.9217,19.9414,20.0006,20.1384,20.2962,20.4311,20.5626,20.7007,20.7796,20.7796,20.7796,20.7796,20.7796,20.7796,20.7796,20.7796,20.7796,20.7796,20.7796,20.7796,20.7796,20.7796,20.7796,20.7796,20.7796,20.7796,20.7796,20.7796,20.7796,20.7961,20.8158,20.9572,21.0131,21.0525,21.2104,21.3617,21.4767,21.4767,21.5556,21.6542,21.6542,21.6542,21.6542,21.6542,21.6542,21.6542,21.6542,21.6542,21.6542,21.6542,21.6774,21.6905,21.6905,21.7923,21.8903,21.8113,21.9107,21.9633,21.889,21.8285,21.8285,21.9486,21.9089,21.9029,22.0252,22.0445,22.0445,22.0445,22.0445,22.0445,22.0445,22.0445,22.0445,22.0445,22.0445,22.0445,22.0445,21.752,21.3039,20.7023,20.2923,20.0812,20.0812,19.9812,19.9221,19.9221,19.9221,19.9221,15.907,16.124,16.2686,16.4107,16.4476,16.4476,16.4476,16.5645,16.7184,16.867,17.1169,17.409,17.6956,18.0441,18.3663,18.5833,18.9779,19.3496,19.6293,19.8262,19.9217,19.9217,19.9217,19.9217,19.9217,19.9217,19.9414,20.0234,20.1581,20.293,20.4475,20.5824,20.7007,20.7829,20.7796,20.7796,20.7796,20.7796,20.7796,20.7796,20.7796,20.7796,20.7796,20.7796,20.7796,20.7796,20.7796,20.7796,20.7796,20.7796,20.7796,20.7796,20.7796,20.7796,20.7796,20.8586,20.8783,20.898,21.0493,21.1479,21.2235,21.3813,21.4799,21.5556,21.6379,21.5951,21.5359,21.5359,21.5951,21.6542,21.6542,21.6542,21.6542,21.6542,21.6542,21.6542,21.6542,21.7103,21.7526,21.7117,21.7715,21.8312,21.8126,21.7901,21.8077,21.8892,21.8302,21.8149,21.8693,21.9096,21.9286,21.9286,22.0032,22.0445,22.0445,21.9673,21.9646,22.0418,22.0445,22.0445,22.0445,21.8877,21.6548,21.3222,20.7806,20.489,20.489,20.1185,19.9221,19.9221,19.9221,19.9221,15.9768,0.0,16.3055,16.4147,16.4476,16.4476,0.0,16.5356,16.6763,16.8512,17.0643,17.3301,17.6824,17.9652,18.2414,18.5702,18.8661,19.1524,19.4351,19.7144,19.8853,19.9248,19.9217,19.9217,19.9217,19.9217,19.9217,19.9217,20.0563,20.1747,20.2962,20.4706,20.6218,20.7205,20.7205,20.7402,20.7796,20.7796,20.7796,20.7796,20.7796,20.7796,20.7796,20.7796,20.7796,20.7796,20.7796,20.7796,20.7796,20.7796,20.7796,20.7796,20.7796,20.7796,20.7796,20.7796,20.7796,20.8027,20.8947,20.9309,20.9967,21.2432,21.3649,21.401,21.5161,21.4767,21.3813,21.3813,21.4602,21.5556,21.5951,21.5951,21.6182,21.6576,21.6542,21.6542,21.6542,21.6542,21.6542,21.6542,21.6951,21.7292,21.7292,21.7543,21.7861,21.8287,21.7529,21.6943,21.7331,21.7476,21.7741,21.7741,21.8707,21.9646,21.9866,21.868,21.8293,21.9249,21.9415,21.9646,21.9866,21.9828,21.9619,21.9284,21.3865,21.0508,20.9782,20.4281,20.1409,20.0361,20.0361,20.0026,0.0,16.3187,16.4278,16.441,16.4476,16.4476,16.4476,16.4541,0.0,16.8315,16.9104,17.0906,17.643,17.8703,18.1202,18.5504,18.8661,19.1524,19.4351,19.6126,19.767,19.9019,19.9217,19.9217,19.9217,19.9217,19.9217,19.9217,20.0563,20.1352,20.1581,20.4114,20.566,20.5824,20.5824,20.6416,20.7796,20.7796,20.7796,20.7796,20.7796,20.7796,20.7796,20.7796,20.7796,20.7796,20.7796,20.7796,20.7796,20.7796,20.7796,20.7796,20.7796,20.7796,20.7796,20.7796,20.7796,20.7796,20.7961,20.8027,20.8191,20.9736,21.1282,21.2433,21.2499,21.2499,21.2433,21.2433,21.2499,21.2828,21.4241,21.457,21.4964,21.6148,21.6542,21.6542,21.6542,21.6542,21.6542,21.6542,21.6574,21.654,21.654,21.5954,21.5958,21.7301,21.6327,21.5778,21.7137,21.6738,21.6362,21.6362,21.6325,21.6904,21.8321,21.7097,21.6362,21.6555,21.6555,21.7134,21.8321,21.8487,21.747,21.5558,21.5004,21.3039,20.9721,20.9179,20.7364,20.4122,20.4122,20.2347,16.2238,16.3641,16.4476,16.4476,16.4476,16.4476,16.4476,16.4476,16.5265,16.8315,16.8907,17.0682,17.643,17.7942,18.0046,18.5373,18.7148,18.9121,19.2935,19.4776,19.6126,19.767,19.8656,19.9217,19.9217,19.9217,19.9217,19.9217,19.984,20.0432,20.1384,20.2339,20.293,20.293,20.4674,20.5857,20.6416,20.7435,20.7796,20.7796,20.7796,20.7796,20.7796,20.7796,20.7796,20.7796,20.7796,20.7796,0.0,20.7796,20.7796,20.7796,20.7796,20.7796,20.7796,20.7796,20.7796,20.7796,20.7796,20.7796,20.7796,20.8388,20.9539,21.0887,21.0887,21.0164,20.9737,21.0558,21.1479,21.2466,21.286,21.3057,21.3222,21.3814,21.3781,21.4209,21.4964,21.5227,21.559,21.6345,21.6542,21.6542,21.6542,21.6338,21.6329,21.6723,21.5954,21.5374,21.537,21.5562,21.5392,21.4954,21.5754,21.5938,21.5718,21.5203,21.5368,21.6168,21.6168,21.6325,21.6904,21.7107,21.6706,21.5749,21.5813,21.4042,21.0544,21.0544,20.857,20.5229,20.5229,20.3708,16.3318,16.3996,16.4476,16.4476,16.4476,16.4476,16.4476,16.483,16.5882,16.8381,16.9301,17.1103,17.5904,17.7153,17.906,18.4087,18.5636,18.7543,19.1423,19.3562,19.5337,19.6912,19.849,19.9217,19.9217,19.9217,19.9217,19.9217,19.9217,19.9611,20.0629,20.1187,20.1352,20.1352,20.3325,20.4509,20.4871,20.6416,20.7237,20.7237,20.7632,20.7796,20.7796,20.7796,20.7796,20.7796,20.7796,20.7796,20.7796,20.7796,20.7796,20.7796,20.7796,20.7796,20.7796,20.7796,20.7796,20.7796,20.7796,20.7796,20.7796,20.7796,20.8356,20.9375,20.9375,20.8586,20.7994,20.8947,20.9933,21.092,21.1512,21.1479,21.171,21.2071,21.2236,21.2465,21.3452,21.3814,21.4044,21.4964,21.5556,21.5985,21.5985,21.6148,21.6542,21.6542,21.5926,21.517,21.4617,21.4578,21.4404,21.3835,21.4447,21.4393,21.3629,21.3666,21.385,21.478,21.478,21.4973,21.5561,21.5525,21.5782,21.6168,21.6168,21.4992,21.2636,21.2636,21.1318,20.8946,20.7831,20.583,16.4107,16.4476,16.4476,16.4476,16.4476,16.4476,16.4476,16.5645,16.7184,16.867,17.0051,17.1958,17.4824,17.6496,17.8468,18.1456,18.435,18.7214,19.0108,19.297,19.5368,19.6912,19.823,19.9248,19.9217,19.9217,19.9217,19.9217,19.9217,19.9217,19.9217,20.0629,20.1384,20.1384,20.1352,20.2173,20.352,20.4903,20.5692,20.5692,20.7007,20.7796,20.7796,20.7796,20.7796,20.7796,20.7796,20.7796,20.7796,20.7796,20.7796,20.7796,20.7796,20.7796,20.7796,20.7796,20.7796,20.7796,20.7796,20.7796,20.7796,20.7796,20.7796,20.7796,20.7796,20.7796,20.7796,20.7796,20.7796,20.8224,20.9539,20.9933,21.0328,21.1907,21.2236,21.2236,21.2236,21.2236,21.2236,21.2236,21.3452,21.4438,21.4438,21.5556,21.6576,21.6576,21.5761,21.5343,21.5409,21.4051,21.303,21.303,21.248,21.2047,21.2112,21.2076,21.2076,21.2076,21.2076,21.2691,21.4245,21.4245,21.4788,21.6168,21.6168,21.6168,21.6168,21.6168,21.6168,21.5929,21.2471,20.8963,16.4886,16.4812,16.4476,16.4476,16.4476,16.4476,16.4476,16.5645,16.7184,16.867,17.0051,17.1958,17.4824,17.6496,17.8468,18.1456,18.435,18.682,18.8756,19.1488,19.379,19.5368,19.6718,19.8064,19.9085,19.9217,19.9217,19.9217,19.9217,19.9217,19.9217,19.9642,19.9808,19.9808,20.0826,20.1549,20.1944,20.3488,20.4672,20.5692,20.6054,20.681,20.7796,20.7796,20.7796,20.7796,20.7796,20.7796,20.7796,20.7796,20.7796,20.7796,20.7796,20.7796,20.7796,20.7796,20.7796,20.7796,20.7796,20.7796,20.7796,20.7796,20.7796,20.7796,20.7796,20.7796,20.7796,20.7796,20.7796,20.7961,20.8421,20.8388,20.8586,20.898,20.9145,20.9375,21.0328,21.069,21.0953,21.2104,21.263,21.286,21.286,21.3222,21.3846,21.4799,21.4827,21.4643,21.4622,21.4227,21.3421,21.248,21.1691,21.1675,21.2645,21.2235,21.2076,21.2076,21.2076,21.2305,21.2691,21.2691,21.2884,21.3234,21.3234,21.3234,21.3234,21.3234,21.3234,21.3234,21.2284,21.1094,16.494,16.476,16.4476,16.4476,16.4476,16.4476,16.4476,16.5645,16.7184,16.867,17.0051,17.1761,17.4062,17.6101,17.8074,17.9878,18.3561,18.652,18.7375,19.0466,19.2935,19.3825,19.514,19.6749,19.8262,19.849,19.8656,19.9248,19.9217,19.9217,19.9217,19.9217,19.9217,19.9217,20.0006,20.0595,20.0595,20.1976,20.316,20.3917,20.4509,20.5463,20.704,20.704,20.7205,20.7796,20.7796,20.7796,20.7796,20.7796,20.7796,20.7796,20.7796,20.7796,20.7796,20.7796,20.7796,20.7796,20.7796,20.7796,20.7796,20.7796,20.7007,20.6021,20.6021,20.6021,20.6021,20.6021,20.6416,20.704,20.704,20.7435,20.7796,20.7796,20.7796,20.7994,20.898,20.9177,20.9375,21.0328,21.0887,21.1282,21.1282,21.1907,21.2664,21.3452,21.3617,21.3443,21.3443,21.3229,21.287,21.2673,21.1065,21.0341,21.1283,21.0702,21.0337,21.0337,21.0337,21.0337,21.0337,21.0724,21.0724,21.0337,21.0724,21.0724,21.0337,21.0337,21.0337,21.0337,21.0337,21.0337,16.4513,16.4553,16.4553,16.4502,16.4476,16.4476,16.4476,16.5645,16.7184,16.867,17.0051,17.1525,17.2906,17.5537,17.7482,17.7482,18.2282,18.603,18.603,18.9611,19.2278,19.2409,19.3724,19.514,19.6683,19.714,19.7701,19.8822,19.9248,19.9248,19.9019,19.9248,19.9217,19.9217,19.9217,19.9217,19.9217,20.0595,20.1221,20.1352,20.2765,20.408,20.5495,20.5495,20.6251,20.7435,20.7632,20.7632,20.7599,20.7829,20.7829,20.7632,20.7632,20.7632,20.7435,20.7435,20.7435,20.7435,20.7435,20.7435,20.7435,20.7435,20.5659,20.3488,20.3488,20.3488,20.3488,20.3488,20.4475,20.5495,20.5495,20.6416,20.7435,20.7435,20.7402,20.7632,20.7632,20.7763,20.7796,20.7796,20.875,20.9736,20.9736,21.0887,21.1907,21.2038,21.2038,21.2071,21.207,21.1531,21.1518,21.2863,21.0549,20.8768,20.8997,20.8397,20.801,20.801,20.801,20.801,20.801,20.8573,20.8573,20.8003,20.8403,20.8368,20.7797,20.7797,20.7797,20.7797,20.7797,20.7797,16.5299,16.5197,16.5094,16.4605,16.4476,16.4476,16.4476,16.5645,16.7184,16.867,17.0051,17.1525,17.2906,17.5537,17.7482,17.7482,18.1493,18.4584,18.4584,18.728,18.9677,19.0831,19.2212,19.3658,19.5171,19.6355,19.7337,19.7504,19.8656,19.8691,19.7701,19.8656,19.9217,19.9217,19.9217,19.9217,19.9217,19.9642,20.0203,20.1352,20.1779,20.2536,20.3917,20.3917,20.4146,20.4475,20.5626,20.6054,20.6218,20.7435,20.7237,20.6054,20.6054,20.5462,20.4475,20.4475,20.4475,20.4475,20.4475,20.4475,20.4475,20.4475,20.4113,20.3488,20.3488,20.3488,20.3488,20.3488,20.3686,20.3917,20.3917,20.431,20.4475,20.4475,20.5232,20.6054,20.6054,20.7007,20.7796,20.7796,20.7994,20.8191,20.8191,20.8553,20.9145,21.0295,21.0493,21.0688,21.1299,21.1292,21.0902,21.0719,20.9523,20.9343,21.0484,20.9898,20.9583,20.9583,20.9583,20.9583,20.9583,20.8967,20.8783,20.8578,20.8157,20.7974,20.7797,20.7797,20.7797,20.7797,20.7797,20.7797,16.5396,16.5401,16.5248,16.4631,16.4476,16.4476,16.4476,16.5093,16.6106,16.7552,16.9065,17.0511,17.1919,17.4523,17.6693,17.735,18.0638,18.3269,18.3963,18.5965,18.7901,18.9253,19.0137,19.1423,19.3527,19.4544,19.5171,19.596,19.731,19.7472,19.6092,19.7504,19.8428,19.9248,19.9217,19.9217,19.9217,19.9217,19.9642,20.0366,20.0366,20.1187,20.2568,20.2568,20.2897,20.3488,20.4343,20.4672,20.4706,20.5462,20.5232,20.4672,20.4672,20.4114,20.3488,20.3488,20.3488,20.3488,20.3488,20.3488,20.3291,20.1976,20.1418,20.1418,20.1418,20.1418,20.1418,20.1418,20.1976,20.2568,20.2568,20.293,20.3488,20.3488,20.408,20.4672,20.4672,20.5264,20.5626,20.5626,20.6218,20.6843,20.6843,20.7435,20.7994,20.875,20.898,20.8947,20.9535,20.8943,20.8617,20.8947,20.8352,20.8148,20.8933,20.8357,20.7785,20.7785,20.7233,20.6843,20.6843,20.6025,20.5497,20.5257,20.5288,20.4882,20.426,20.426,20.4474,20.4706,20.4706,20.5093,16.5485,16.5605,16.5376,16.4786,16.4553,16.4476,16.4476,16.4476,16.4896,16.6461,16.7684,16.9038,17.0775,17.3208,17.5443,17.689,17.9586,18.1953,18.3108,18.4781,18.6294,18.7507,18.7836,18.9019,19.165,19.208,19.2869,19.4285,19.5565,19.5763,19.4386,19.5925,19.7275,19.8853,19.8853,19.9051,19.9217,19.9217,19.9217,19.9217,19.9217,19.984,20.1023,20.1023,20.1615,20.2733,20.3126,20.316,20.316,20.3357,20.3357,20.316,20.316,20.2962,20.2765,20.2765,20.2765,20.2765,20.2765,20.2765,20.237,20.0037,19.9217,19.9217,19.9217,19.9217,19.9217,19.9217,20.0006,20.1023,20.1023,20.1976,20.2765,20.2765,20.2765,20.2928,20.3094,20.316,20.3128,20.352,20.4475,20.5298,20.5298,20.6218,20.7007,20.7007,20.7007,20.7237,20.7402,20.6251,20.566,20.704,20.6648,20.6253,20.6253,20.5657,20.5258,20.5258,20.415,20.3498,20.3498,20.2718,20.2163,20.1605,20.1738,20.1572,20.0609,20.0374,20.0586,20.1177,20.0976,20.1551,16.681,16.6411,16.6,16.5401,16.4863,16.4476,16.4476,16.4476,16.4896,16.6461,16.6921,16.7908,17.0577,17.238,17.3958,17.5378,17.8046,18.0018,18.0215,18.2582,18.4423,18.465,18.5767,18.7112,18.8756,19.0042,19.1357,19.2804,19.3067,19.3132,19.2935,19.4285,19.5732,19.7306,19.7275,19.8095,19.9217,19.9217,19.9217,19.9217,19.9217,19.9445,19.9414,19.9414,19.9642,19.9808,20.1187,20.1615,20.1779,20.293,20.2765,20.1615,20.1615,20.0989,19.984,19.984,19.984,19.984,19.984,19.984,19.984,19.9445,19.9217,19.9217,19.9217,19.9217,19.9217,19.9217,19.9445,19.9414,19.9414,19.9611,19.984,19.984,19.984,20.0169,20.1352,20.1615,20.1944,20.3323,20.3686,20.3719,20.3719,20.3949,20.408,20.408,20.408,20.4509,20.5824,20.4706,20.3883,20.408,20.4082,20.392,20.392,20.3921,20.3725,20.3725,20.3692,20.356,20.356,20.2716,20.2326,20.213,20.1209,20.0844,20.1177,20.0007,19.9833,20.0631,19.9827,19.965,16.4556,16.4849,16.4873,16.4896,16.4683,16.4476,16.4476,16.4476,16.4607,16.5291,16.6198,16.7184,16.8434,17.0473,17.2446,17.3865,17.5876,17.752,17.8309,18.0215,18.1925,18.2743,18.4123,18.557,18.7046,18.8493,18.9546,19.0203,19.0269,19.0269,19.0269,19.2343,19.3856,19.461,19.5368,19.6157,19.6718,19.7701,19.8459,19.9217,19.9217,19.9217,19.9217,19.9217,19.9217,19.9217,19.9808,20.0234,20.0234,20.0826,20.0792,20.0234,20.0234,19.984,19.9217,19.9217,19.9217,19.9217,19.9217,19.9217,19.9217,19.9217,19.9217,19.9217,19.9217,19.9217,19.9217,19.9217,19.9217,19.9217,19.9217,19.9217,19.9217,19.9217,19.9217,19.9445,20.0006,20.0234,20.0432,20.0958,20.1779,20.237,20.237,20.2962,20.3488,20.3488,20.3488,20.352,20.3357,20.2765,20.2536,20.352,20.3488,20.3488,20.3488,20.3488,20.3488,20.3488,20.2765,20.237,20.237,20.1166,20.0581,20.0581,20.0004,19.9649,19.9454,19.8837,19.8832,19.9211,19.8878,19.8862,16.313,16.3747,16.4006,16.4079,16.4116,16.413,16.437,16.4476,16.4476,16.4476,16.5356,16.6329,16.6724,16.8565,17.0446,17.1854,17.3602,17.518,17.6232,17.7942,17.9492,18.0667,18.2085,18.3503,18.4978,18.6454,18.7244,18.7244,18.7572,18.7836,18.7836,19.0203,19.1716,19.208,19.3431,19.4417,19.4811,19.596,19.7109,19.8099,19.8428,19.8656,19.8625,19.9019,19.9217,19.9217,19.9217,19.9217,19.9217,19.9217,19.9217,19.9217,19.9217,19.9217,19.9217,19.9217,19.9217,19.9217,19.9217,19.9217,19.9217,19.9217,19.9217,19.9217,19.9217,19.9217,19.9217,19.9217,19.9217,19.9217,19.9217,19.9217,19.9217,19.9217,19.9217,19.9217,19.9217,19.9217,19.9217,19.9217,20.0006,20.0826,20.0826,20.1779,20.2339,20.2339,20.2339,20.1944,20.0958,20.0826,20.1221,20.237,20.2339,20.2339,20.2339,20.2339,20.2339,20.2339,20.1352,20.0826,20.0826,19.984,19.9217,19.9217,19.9059,19.8676,19.8457,19.8042,19.7858,19.8282,19.7887,19.8104,16.4494,16.4511,16.4201,16.3322,16.316,16.3364,16.4276,16.4476,16.4476,16.4476,16.4476,16.5028,16.6526,16.6921,16.7447,16.8907,17.1498,17.3301,17.3366,17.58,17.7613,17.7679,17.8966,18.0413,18.1982,18.3466,18.4292,18.4292,18.557,18.6294,18.6294,18.777,18.9217,19.0538,19.2015,19.3395,19.4811,19.4781,19.4943,19.4978,19.6517,19.7337,19.7306,19.8656,19.9217,19.9217,19.9217,19.9217,19.9217,19.9217,19.9217,19.9217,19.9217,19.9217,19.9217,19.9217,19.9217,19.9217,19.9217,19.9217,19.9217,19.9217,19.9217,19.9217,19.9217,19.9217,19.9217,19.9217,19.9217,19.9217,19.9217,19.9217,19.9217,19.9217,19.9217,19.9217,19.9217,19.9217,19.9217,19.9217,19.9217,19.9445,19.9445,19.9445,19.9414,19.9414,19.9414,19.9445,19.9445,19.9445,19.9445,19.9414,19.9414,19.9414,19.9414,19.9414,19.9414,19.9414,19.9445,19.9445,19.9445,19.9217,19.9217,19.9217,19.8486,19.8455,19.9251,19.7852,19.7466,19.8044,19.6919,19.6331,16.0814,16.2074,16.2987,16.2161,16.2665,16.313,16.2401,16.2653,16.3055,16.3055,16.3844,16.4633,16.5159,16.6106,16.6921,16.7447,16.9196,17.0775,17.1722,17.3498,17.5049,17.5969,17.735,17.8835,18.0281,18.0112,18.0244,18.1136,18.2611,18.386,18.4781,18.6228,18.7214,18.774,18.9151,19.0137,19.0634,19.2475,19.3395,19.3395,19.4974,19.5535,19.5535,19.6126,19.6324,19.6324,19.6324,19.6915,19.7898,19.7898,19.8459,19.9217,19.9217,19.9217,19.9217,19.9217,19.9217,19.9051,19.7144,19.6324,19.6324,19.6324,19.6324,19.6324,19.6324,19.6324,19.6324,19.6324,19.7144,19.7898,19.7898,19.8428,19.9217,19.9217,19.9217,19.9217,19.9217,19.9217,19.9217,19.9217,19.9217,19.9217,19.9217,19.9217,19.9217,19.9217,19.9217,19.9217,19.9217,19.9217,19.9217,19.9217,19.9217,19.9217,19.9217,19.9217,19.9217,19.9217,19.9217,19.9217,19.9217,19.9217,19.9217,19.9217,19.8108,19.7486,19.7898,19.7332,19.6921,19.67,19.7073,19.6918,15.7437,15.9332,16.0798,15.9466,16.0773,16.2032,16.052,16.0997,16.1715,16.163,16.2752,16.3713,16.3713,16.4988,16.5974,16.5974,16.7224,16.8539,16.9486,17.084,17.2287,17.3734,17.518,17.6627,17.8046,17.689,17.6824,17.8769,17.9849,18.1033,18.2517,18.3992,18.4978,18.5504,18.6915,18.7638,18.7638,18.9546,19.0699,19.1255,19.2146,19.3102,19.4088,19.4548,19.4811,19.4811,19.4811,19.5337,19.6289,19.6289,19.6881,19.7704,19.7704,19.7704,19.7704,19.7704,19.7704,19.7507,19.5535,19.4811,19.4811,19.4811,19.4811,19.4811,19.4811,19.4811,19.4811,19.4811,19.5565,19.6289,19.6289,19.7078,19.7704,19.7704,19.7704,19.7704,19.7704,19.7704,19.7704,19.7704,19.8099,19.8459,19.8459,19.8822,19.9217,19.9217,19.9217,19.8822,19.7902,19.8262,19.8656,19.9248,19.9217,19.9217,19.9217,19.9217,19.9051,19.8428,19.8459,19.8262,19.7704,19.7704,19.7704,19.7704,19.6718,19.6289,19.6289,19.6289,19.6138,19.5509,19.6303,19.6159,15.4927,15.6569,15.7767,15.5324,15.739,15.9803,15.8924,15.9547,16.0285,16.0137,16.1225,16.216,16.216,16.3384,16.441,16.441,16.5711,16.6724,16.679,16.8013,16.9367,17.084,17.2248,17.3629,17.5021,17.3931,17.4287,17.7087,17.735,17.8074,17.9492,18.0967,18.2442,18.3832,18.5307,18.6096,18.6096,18.6162,18.6915,18.8296,18.8296,18.9743,19.2475,19.3891,19.4548,19.4548,19.4548,19.4584,19.4584,19.4746,19.4746,19.4811,19.4811,19.4811,19.4746,19.4614,19.4548,19.4548,19.4548,19.4548,19.4548,19.4548,19.4548,19.4614,19.4614,19.4584,19.4584,19.4584,19.4584,19.4746,19.4746,19.4746,19.4811,19.4811,19.4811,19.4811,19.4811,19.4811,19.4811,19.4811,19.596,19.714,19.714,19.8293,19.9019,19.9019,19.9019,19.8099,19.514,19.6092,19.7472,19.9051,19.9019,19.9019,19.9019,19.9019,19.8428,19.7109,19.714,19.6355,19.4781,19.4811,19.4811,19.4811,19.4746,19.4746,19.4746,19.4746,19.4746,19.4746,19.4133,19.3822,15.4195,15.5492,15.6452,15.4517,15.5583,15.6974,15.6626,15.6162,15.6139,15.7496,15.8542,15.9226,15.9226,16.124,16.2884,16.2884,16.4107,16.5488,16.6658,16.7118,16.7881,16.9328,16.9854,17.0248,17.0616,17.1301,17.2418,17.4221,17.5312,17.6561,17.8008,17.8468,17.8863,17.9257,18.1785,18.31,18.31,18.5205,18.6425,18.682,18.682,18.7244,18.8003,18.8398,18.8595,18.8661,18.9647,19.0699,19.1721,19.2804,19.3856,19.4811,19.4811,19.4811,19.4285,19.0108,18.8595,18.8595,18.8595,18.8595,18.8595,18.8595,18.9253,19.0137,19.0137,19.0831,19.1656,19.1656,19.2379,19.3198,19.3198,19.4022,19.4811,19.4811,19.4811,19.4811,19.4811,19.4811,19.4811,19.4811,19.514,19.5337,19.5337,19.5732,19.5898,19.5898,19.5898,19.5732,19.4943,19.514,19.5535,19.5929,19.5898,19.5898,19.5898,19.5898,19.5767,19.5337,19.5337,19.5206,19.4811,19.4811,19.4811,19.4811,19.3759,19.3198,19.3198,19.3198,19.3198,19.3264,19.4102,19.4257,14.9529,15.1364,15.2811,15.127,15.2915,15.4697,15.398,15.3703,15.3674,15.4032,15.5418,15.6331,15.5694,15.8298,16.0541,16.0541,16.2226,16.3844,16.4816,16.5448,16.6369,16.7815,16.746,16.7329,16.7947,16.8802,16.9881,17.1301,17.2221,17.3536,17.5575,17.5668,17.626,17.7416,17.9154,18.0075,18.0075,18.169,18.3203,18.4416,18.4416,18.5044,18.6228,18.6228,18.6228,18.6228,18.7112,18.7967,18.8792,18.9581,19.0436,19.1195,19.1195,19.1195,19.0735,18.682,18.5702,18.6228,18.6228,18.6228,18.6228,18.6228,18.6783,18.7441,18.7441,18.8069,18.8727,18.8727,18.9318,18.9976,18.9976,19.1028,19.208,19.208,19.2541,19.297,19.297,19.297,19.297,19.297,19.3431,19.3891,19.3891,19.4351,19.4351,19.3168,19.297,19.297,19.297,19.3496,19.3891,19.3891,19.4417,19.4811,19.4811,19.4811,19.4548,19.3891,19.3891,19.3628,19.297,19.2379,19.208,19.208,19.0699,18.9976,18.9976,18.9976,18.9976,18.9976,19.0831,19.0656,14.2954,14.5456,14.7652,14.666,14.9352,15.2055,0.0,15.1635,15.1738,15.0387,15.1996,15.3306,15.1923,15.4926,15.7656,15.7763,16.0257,16.2151,16.2251,16.3384,16.4699,16.6132,16.5028,16.483,16.6395,16.6658,16.7316,16.8578,16.8841,17.0051,17.2577,17.2709,17.3958,17.6693,17.689,17.7087,17.7219,17.7416,17.8825,18.1456,18.1456,18.2771,18.5241,18.5241,18.5241,18.5241,18.5241,18.5307,18.5504,18.5636,18.5702,18.5702,18.5702,18.5534,18.511,18.3795,18.4123,18.5241,18.5241,18.5241,18.5241,18.5241,18.5307,18.5504,18.5504,18.5702,18.5965,18.5965,18.6096,18.6228,18.6228,18.7178,18.8099,18.8099,18.9055,19.0042,19.0042,19.0042,19.0042,19.0042,19.116,19.2176,19.2176,19.3395,19.3299,19.0472,19.0042,19.0042,19.0042,19.116,19.1883,19.1883,19.3198,19.4088,19.4088,19.4088,19.3496,19.2242,19.2045,19.1357,19.0108,18.8822,18.8099,18.8099,18.6849,18.6162,18.5965,18.5965,18.5899,18.5767,18.5899,18.5044,0.0,0.0,0.0,0.0,0.0,0.0,0.0,14.8215,14.7488,14.8594,14.8868,14.8739,14.8245,15.1854,15.524,15.6182,15.888,16.1241,16.2192,16.2555,16.2818,16.3172,16.2884,16.3318,16.4765,16.604,16.6921,16.7184,16.8276,16.917,16.9722,16.9788,17.0511,17.2221,17.3432,17.4616,17.5772,17.689,17.7773,17.8365,17.8365,17.8628,17.9192,17.9192,17.9192,17.9192,17.9192,17.9849,18.1004,18.2217,18.2771,18.2771,18.2771,18.1324,17.9126,17.8863,17.8929,17.9192,17.9192,17.9192,17.9192,17.9192,17.9981,18.0873,18.0873,18.2582,18.4489,18.4489,18.5307,18.6228,18.6228,18.6425,18.6622,18.6622,18.682,18.7017,18.7017,18.7017,18.7017,18.7017,18.823,18.9217,18.9217,19.0371,19.0341,18.7477,18.7017,18.7017,18.7017,18.728,18.7477,18.7477,18.8756,18.9611,18.9611,18.9611,18.948,18.9217,18.8099,18.7346,18.7083,18.6754,18.6622,18.6622,18.6359,18.5636,18.4489,18.4489,18.3926,18.2771,18.3992,18.2414,0.0,0.0,0.0,0.0,0.0,0.0,0.0,0.0,0.0,0.0,0.0,14.5675,14.5619,0.0,15.0628,15.3797,15.5344,15.7128,16.0201,16.0394,16.0147,16.0147,16.0779,16.1831,16.3252,16.4067,16.4856,16.558,16.6277,16.7,16.7815,16.7815,16.8539,16.9985,17.0709,17.1432,17.2128,17.2879,17.3931,17.5339,17.5339,17.6129,17.7482,17.7482,17.7482,17.7482,17.7482,17.7876,17.8572,17.9389,17.9746,17.9417,17.6561,17.4983,17.426,17.426,17.472,17.5339,17.5339,17.5772,17.643,17.643,17.7388,17.8506,17.8506,17.9586,18.077,18.077,18.1296,18.2019,18.2743,18.3466,18.4255,18.4978,18.5702,18.6228,18.6228,18.6228,18.6228,18.6228,18.6783,18.7309,18.7309,18.7872,18.7872,18.6425,18.6228,18.6228,18.6228,18.6228,18.6228,18.6228,18.6849,18.7309,18.7309,18.7309,18.7309,18.7309,18.6622,18.6228,18.6228,18.4876,18.4087,18.4087,18.2611,18.1493,18.077,18.077,18.0375,17.968,17.8271,17.6364,0.0,0.0,0.0,0.0,0.0,0.0,0.0,0.0,0.0,0.0,0.0,0.0,0.0,0.0,0.0,15.1068,15.1804,15.3173,15.7032,15.7221,15.7096,15.7305,15.8834,16.026,16.1356,16.17,16.2489,16.391,16.4041,16.4699,16.6263,16.6329,16.6961,16.8446,16.8539,16.8644,16.8907,16.8907,17.0117,17.238,17.238,0.0,17.5838,17.5838,17.5838,17.5838,17.5838,17.5838,17.5838,17.5838,17.5838,17.5378,17.0748,16.963,17.0643,17.0643,17.1366,17.238,17.238,17.3142,17.4101,17.4101,17.4852,17.5838,17.5838,17.6035,0.0,17.6561,17.6852,17.7416,17.8835,18.0112,18.139,18.2545,18.3663,18.4584,18.4847,18.4913,18.5044,18.5307,18.5636,18.5833,18.5833,18.511,18.4518,18.4518,18.4781,18.4913,18.4913,18.5176,18.5373,18.5373,18.5636,18.5833,18.5833,18.603,18.6096,18.5833,18.5504,18.511,18.4518,18.2311,18.093,18.0667,17.8271,17.6759,17.6232,17.6232,17.6101,17.5706,17.1958,17.0183,0.0,0.0,0.0,0.0,0.0,0.0,0.0,0.0,0.0,0.0,0.0,0.0,0.0,0.0,0.0,0.0,15.0653,15.2584,15.2452,15.2985,15.3747,15.4803,15.7097,15.8567,15.8545,15.9661,16.1017,16.2423,16.2555,16.3212,16.4633,16.4765,0.0,0.0,0.0,16.7618,16.8907,16.8907,16.9104,16.9367,16.9367,16.9564,16.9893,16.9893,16.9893,16.9893,16.9893,16.9893,16.9893,16.9893,16.9893,16.9827,16.917,16.9038,16.917,16.917,16.9235,16.9367,16.9367,0.0,0.0,16.963,16.9761,16.9893,16.9893,17.0775,17.2024,17.3301,17.4589,17.5904,17.735,17.7811,17.8008,17.8139,17.8337,17.8797,18.0084,18.0347,18.0741,18.2179,18.3466,18.4292,18.4292,18.1099,17.8468,17.8468,17.9558,18.0347,18.0347,18.1559,18.2442,18.2442,18.3532,0.0,18.4292,18.5504,18.5702,18.4452,18.3137,18.1259,17.8534,17.8139,17.735,17.6101,17.5744,17.4325,17.1761,17.1761,17.1103,16.9827,16.8078,16.725,0.0,0.0,0.0,0.0,0.0,0.0,0.0,0.0,0.0,0.0,0.0,0.0,0.0,0.0,0.0,0.0,14.7481,14.7519,14.7128,14.9761,15.1919,15.243,15.4992,15.6947,15.7379,15.822,15.946,16.1192,16.0625,16.0753,16.1872,16.1937,16.2661,16.4159,16.4159,16.4856,16.6343,16.6343,16.6803,16.7684,16.7684,16.8144,16.8907,16.8907,16.8907,16.8907,16.8907,16.8907,16.8907,16.8907,16.8907,16.8775,0.0,0.0,0.0,0.0,16.6343,16.6343,16.6343,16.6934,16.7684,16.7684,16.8276,16.8907,16.8907,16.9367,16.9985,17.0511,17.1169,17.1931,17.3339,17.4353,17.5208,17.6035,17.689,17.7613,17.8271,17.8403,17.8534,17.922,17.9783,0.0,18.0244,17.8666,17.7482,17.7482,17.8008,17.8403,17.8403,17.8929,17.9351,17.9351,17.9849,18.0244,18.0244,18.077,0.0,0.0,0.0,17.8759,17.7548,17.6693,0.0,0.0,0.0,17.1011,16.9854,16.8999,0.0,0.0,15.9596,15.9555,0.0,0.0,0.0,0.0,0.0,0.0,0.0,0.0,0.0,0.0,0.0,0.0,0.0,0.0,0.0,0.0,14.4108,14.389,14.3511,14.7568,15.0333,14.9773,15.2846,15.5015,15.5261,15.5977,15.7134,15.8838,15.8106,15.8078,15.9047,15.941,16.0056,16.1133,16.1503,16.22,16.3227,16.3647,16.4462,16.554,16.5935,16.6698,16.7723,16.7723,16.7723,16.7723,16.7723,16.7723,16.7723,16.7723,16.7723,16.7395,16.4436,16.3318,16.3318,16.3318,16.3318,16.3318,16.3318,16.4001,16.5014,16.5014,16.5645,16.654,16.654,16.6803,16.7197,16.7592,16.7986,16.867,17.0117,17.1235,17.2287,17.3312,17.4391,17.5246,17.5641,17.5997,17.6458,17.6824,17.5904,17.5115,17.5115,17.5115,17.5115,17.5115,17.5443,17.5838,17.626,17.6627,17.7022,17.7416,17.7482,17.7482,17.7482,17.7482,17.7482,17.7482,17.6693,17.6326,17.6326,17.4523,17.2589,17.0511,16.8644,16.7132,0.0,0.0,0.0,0.0,0.0,0.0,0.0,0.0,0.0,0.0,0.0,0.0,0.0,0.0,0.0,0.0,0.0,0.0,0.0,0.0,0.0,0.0,0.0,0.0,14.2725,14.6489,14.8565,14.6526,15.0655,15.2875,15.0834,15.2235,15.3743,15.4831,15.4755,15.5094,15.6159,15.7415,15.8108,15.8174,15.953,16.0294,16.0294,16.17,16.2423,16.2489,16.3844,16.4541,16.4607,16.4607,16.4607,16.4607,16.4607,16.4607,16.4607,16.4607,16.4607,16.4278,16.1411,16.0294,16.0294,16.0294,16.0294,16.0294,16.0294,16.0359,16.0359,16.0359,16.0425,16.0425,16.0425,16.1437,16.2818,16.4173,16.5711,16.7184,16.8578,16.9038,16.9038,16.9104,16.917,16.9564,17.0972,17.238,17.3761,17.518,17.1997,16.917,16.917,16.917,16.917,16.917,17.038,0.0,17.3169,17.4523,17.5969,17.7285,17.7482,17.7482,17.7482,17.7482,17.7482,17.7482,17.4879,17.3301,17.3301,17.0643,16.9104,16.8972,16.6053,16.2529,15.8371,0.0,0.0,0.0,0.0,0.0,0.0,0.0,0.0,0.0,0.0,0.0,0.0,0.0,0.0,0.0,0.0,0.0,0.0,0.0,0.0,0.0,0.0,0.0,0.0,14.0957,14.3552,14.3731,14.7221,14.952,14.9434,15.036,15.172,15.3423,15.1749,15.122,15.253,15.1479,15.1848,15.4135,15.4373,15.5387,15.7294,15.8741,15.9489,15.9489,16.0911,16.1609,16.1609,16.1609,16.1609,16.1609,16.1609,16.1609,16.1609,16.1609,16.0491,15.865,15.7754,15.736,15.736,15.736,15.736,15.736,15.736,15.736,15.736,15.736,15.736,15.736,15.736,15.7689,15.8346,15.9793,16.0607,16.1528,16.3936,16.5225,16.6211,16.7224,16.821,16.9038,16.9525,17.0051,17.0511,17.1011,16.8315,16.6277,16.7289,16.7487,16.7815,16.8775,16.9301,16.9854,17.0314,17.0775,17.1602,17.3076,17.3208,17.3208,17.3208,17.3208,17.2813,17.1892,17.0906,17.038,17.038,16.8539,16.7026,16.6014,16.3121,15.9965,15.6571,0.0,0.0,0.0,0.0,0.0,0.0,0.0,0.0,0.0,0.0,0.0,0.0,0.0,0.0,0.0,0.0,0.0,0.0,0.0,0.0,0.0,0.0,0.0,0.0,0.0,0.0,13.9722,14.2455,0.0,14.5611,14.6145,14.7145,14.8874,14.7286,14.6895,14.8357,14.7201,14.7579,15.007,15.0084,15.101,15.3063,15.4366,15.5214,15.574,15.7228,15.8124,15.865,15.865,15.865,15.865,15.865,15.865,15.8453,15.6415,15.4466,15.2757,15.2757,15.2757,15.2757,15.2757,15.2757,15.2757,15.2757,15.2757,15.2757,15.2757,15.2757,15.2757,15.2757,15.3151,15.3809,15.4754,15.574,15.69,15.8807,16.0688,16.2423,16.3435,16.4725,16.5817,16.5817,16.6211,16.6106,16.4567,16.2726,16.1872,16.337,16.3633,16.4356,16.6303,16.654,16.6961,16.8013,16.8144,16.8736,17.0117,17.0314,17.0314,17.0314,17.0314,16.992,16.8972,16.8473,16.792,16.7329,16.5448,16.3738,16.22,15.8872,15.6242,0.0,0.0,0.0,0.0,0.0,0.0,0.0,0.0,0.0,0.0,0.0,0.0,0.0,0.0,0.0,0.0,0.0,0.0,0.0,0.0,0.0,0.0,0.0,0.0,0.0,0.0,0.0,13.4432,13.6488,0.0,0.0,0.0,0.0,14.1427,14.1453,14.1994,14.3536,14.433,14.5151,14.5927,14.6581,14.7078,14.7593,14.87,15.0052,15.1434,15.2829,15.421,15.5624,15.5502,15.5453,15.5453,15.5453,15.5453,15.4993,14.9206,14.6838,14.6838,14.6707,14.6707,14.6707,14.6707,14.6707,14.6707,14.6707,14.6707,14.6707,14.6707,14.6707,14.6707,14.6707,14.7825,0.0,0.0,15.1155,15.3324,15.3522,15.5584,15.7648,15.7779,15.8872,15.9833,15.9965,16.1042,16.0714,15.6308,15.5453,15.5913,15.7319,0.0,15.87,16.1568,16.2029,16.3172,16.6198,16.6526,16.7118,16.8644,16.8775,16.8775,16.8775,16.8775,16.8775,16.8578,16.7289,16.5843,16.4213,16.1477,15.9267,15.7713,15.357,0.0,0.0,0.0,0.0,0.0,0.0,0.0,0.0,0.0,0.0,0.0,0.0,0.0,0.0,0.0,0.0,0.0,0.0,0.0,0.0,0.0,0.0,0.0,0.0,0.0,0.0,12.2139,12.4623,12.7686,12.955,13.1475,0.0,0.0,0.0,0.0,0.0,0.0,13.7664,13.8327,13.908,13.9852,14.1898,14.2951,14.2991,14.5804,14.7723,14.8891,14.9263,15.0236,15.1656,15.013,14.9403,14.9403,14.9403,14.9403,14.9009,14.434,14.2367,14.2301,14.1227,14.0767,14.0767,14.0767,14.0767,14.0767,14.0767,14.0767,14.0767,14.0767,14.0767,14.0767,14.0767,0.0,0.0,0.0,0.0,14.7736,14.9995,15.1113,15.2165,15.4335,15.51,15.5691,15.6768,15.7294,15.5913,15.0455,14.9403,14.9863,15.1376,0.0,0.0,15.7097,15.8437,16.0147,16.3106,16.3435,16.4462,16.7053,16.7316,16.7316,16.7316,16.7316,16.6369,16.4133,16.3673,16.2292,15.9818,15.7952,15.5782,15.3307,0.0,0.0,0.0,0.0,0.0,0.0,0.0,0.0,0.0,0.0,0.0,0.0,0.0,0.0,0.0,0.0,0.0,0.0,0.0,0.0,0.0,0.0,0.0,0.0,0.0,0.0,0.0,11.5125,11.8396,12.2262,12.336,12.471,0.0,0.0,0.0,0.0,0.0,0.0,0.0,0.0,0.0,13.382,13.546,13.6706,13.7577,14.0075,14.2291,14.4082,14.4948,14.6143,14.7568,14.6392,14.5761,14.5645,14.5645,14.38,14.0637,13.8173,13.6662,13.5901,0.0,0.0,0.0,0.0,13.4783,13.4783,13.4783,13.4783,13.4783,13.4783,0.0,0.0,0.0,0.0,0.0,0.0,0.0,14.103,14.3922,14.5655,14.7167,14.938,15.0431,15.1089,15.1902,15.0061,14.7341,14.4054,14.3879,14.48,14.6312,0.0,0.0,0.0,0.0,15.6464,16.0015,16.0977,16.2226,16.4619,16.5382,16.5777,16.5777,16.5185,16.4093,16.2423,16.1133,15.916,15.6308,15.4203,15.1465,0.0,0.0,0.0,0.0,0.0,0.0,0.0,0.0,0.0,0.0,0.0,0.0,0.0,0.0,0.0,0.0,0.0,0.0,0.0,0.0,0.0,0.0,0.0,0.0,0.0,0.0,0.0,0.0,0.0,11.2688,11.7178,0.0,0.0,0.0,0.0,0.0,0.0,0.0,0.0,0.0,0.0,0.0,0.0,0.0,12.9934,13.1515,13.3418,13.5808,13.8609,14.0373,14.1875,14.33,14.3193,14.2979,14.2481,14.1864,0.0,13.1834,13.1499,0.0,0.0,0.0,0.0,0.0,0.0,0.0,0.0,0.0,0.0,0.0,0.0,0.0,0.0,0.0,0.0,0.0,0.0,0.0,0.0,0.0,0.0,14.1797,14.3265,14.4734,14.5589,14.4997,14.0964,13.7479,13.7479,13.8465,0.0,0.0,0.0,0.0,0.0,0.0,0.0,15.6924,15.8741,16.0294,16.2094,16.3384,16.4147,16.4147,16.2858,16.1831,16.1503,15.8766,15.5872,15.2996,14.9929,0.0,0.0,0.0,0.0,0.0,0.0,0.0,0.0,0.0,0.0,0.0,0.0,0.0,0.0,0.0,0.0,0.0,0.0,0.0,0.0,0.0,0.0,0.0,0.0,0.0,0.0,0.0,0.0,0.0,0.0,0.0,0.0,0.0,0.0,0.0,0.0,0.0,0.0,0.0,0.0,0.0,0.0,0.0,0.0,0.0,0.0,0.0,0.0,0.0,0.0,13.6011,13.6868,13.8308,13.7976,13.7342,13.6212,13.2525,12.954,12.7159,12.5667,0.0,0.0,0.0,0.0,0.0,0.0,0.0,0.0,0.0,0.0,0.0,0.0,0.0,0.0,0.0,0.0,0.0,0.0,0.0,0.0,0.0,0.0,13.4279,13.5857,13.7304,13.7325,13.3666,0.0,0.0,0.0,0.0,0.0,0.0,0.0,0.0,0.0,0.0,0.0,15.3916,15.5782,15.8083,16.1897,16.2555,16.2686,16.2686,16.1371,15.9505,15.7163,15.4293,15.14,0.0,0.0,0.0,0.0,0.0,0.0,0.0,0.0,0.0,0.0,0.0,0.0,0.0,0.0,0.0,0.0,0.0,0.0,0.0,0.0,0.0,0.0,0.0,0.0,0.0,0.0,0.0,0.0,0.0,0.0,0.0,0.0,0.0,0.0,0.0,0.0,0.0,0.0,0.0,0.0,0.0,0.0,0.0,0.0,0.0,0.0,0.0,0.0,0.0,0.0,0.0,0.0,0.0,0.0,0.0,0.0,0.0,0.0,12.6884,12.2578,0.0,0.0,0.0,0.0,0.0,0.0,0.0,0.0,0.0,0.0,0.0,0.0,0.0,0.0,0.0,0.0,0.0,0.0,0.0,0.0,0.0,0.0,0.0,0.0,0.0,0.0,0.0,0.0,0.0,0.0,0.0,0.0,0.0,0.0,0.0,0.0,0.0,0.0,0.0,0.0,14.9643,15.2296,15.5017,15.8609,16.0319,16.0911,16.0147,15.8807,15.6702,15.3833,15.0939,0.0,0.0,0.0,0.0,0.0,0.0,0.0,0.0,0.0,0.0,0.0,0.0,0.0,0.0,0.0,0.0,0.0,0.0,0.0,0.0,0.0,0.0,0.0,0.0,0.0,0.0,0.0,0.0,0.0,0.0,0.0,0.0,0.0,0.0,0.0,0.0,0.0,0.0,0.0,0.0,0.0,0.0,0.0,0.0,0.0,0.0,0.0,0.0,0.0,0.0,0.0,0.0,0.0,0.0,0.0,0.0,0.0,0.0,0.0,12.1186,11.6254,0.0,0.0,0.0,0.0,0.0,0.0,0.0,0.0,0.0,0.0,0.0,0.0,0.0,0.0,0.0,0.0,0.0,0.0,0.0,0.0,0.0,0.0,0.0,0.0,0.0,0.0,0.0,0.0,0.0,0.0,0.0,0.0,0.0,0.0,0.0,0.0,0.0,0.0,0.0,0.0,14.5589,14.8835,15.1926,15.5124,15.7754,15.8807,15.7648,15.6003,15.3767,15.0873,14.7299,0.0,0.0,0.0,0.0,0.0,0.0,0.0,0.0,0.0,0.0,0.0,0.0,0.0,0.0,0.0,0.0,0.0,0.0,0.0,0.0,0.0,0.0,0.0,0.0,0.0,0.0,0.0,0.0,0.0,0.0,0.0,0.0,0.0,0.0,0.0,0.0,0.0,0.0,0.0,0.0,0.0,0.0,0.0,0.0,0.0,0.0,0.0,0.0,0.0,0.0,0.0,0.0,0.0,0.0,0.0,0.0,0.0,0.0,0.0,0.0,0.0,0.0,0.0,0.0,0.0,0.0,0.0,0.0,0.0,0.0,0.0,0.0,0.0,0.0,0.0,0.0,0.0,0.0,0.0,0.0,0.0,0.0,0.0,0.0,0.0,0.0,0.0,0.0,0.0,0.0,0.0,0.0,0.0,0.0,0.0,0.0,0.0,0.0,0.0,0.0,0.0,14.285,14.5809,14.9206,15.3522,15.5387,15.6242,15.611,15.357,15.0742,14.7759,0.0,0.0,0.0,0.0,0.0,0.0,0.0,0.0,0.0,0.0,0.0,0.0,0.0,0.0,0.0,0.0,0.0,0.0,0.0,0.0,0.0,0.0,0.0,0.0,0.0,0.0,0.0,0.0,0.0,0.0,0.0,0.0,0.0,0.0,0.0,0.0,0.0,0.0,0.0,0.0,0.0,0.0,0.0,0.0,0.0,0.0,0.0,0.0,0.0,0.0,0.0,0.0,0.0,0.0,0.0,0.0,0.0,0.0,0.0,0.0,0.0,0.0,0.0,0.0,0.0,0.0,0.0,0.0,0.0,0.0,0.0,0.0,0.0,0.0,0.0,0.0,0.0,0.0,0.0,0.0,0.0,0.0,0.0,0.0,0.0,0.0,0.0,0.0,0.0,0.0,0.0,0.0,0.0,0.0,0.0,0.0,0.0,0.0,0.0,0.0,0.0,0.0,13.9802,14.3551,14.6881,14.9535,15.1902,15.2559,15.0784,14.96,14.697,14.2301,0.0,0.0,0.0,0.0,0.0,0.0,0.0,0.0,0.0,0.0,0.0,0.0,0.0,0.0,0.0,0.0,0.0,0.0,0.0,0.0,0.0,0.0,0.0,0.0,0.0,0.0,0.0,0.0,0.0,0.0,0.0,0.0,0.0,0.0,0.0,0.0,0.0,0.0,0.0,0.0,0.0,0.0,0.0,0.0,0.0,0.0,0.0,0.0,0.0,0.0,0.0,0.0,0.0,0.0,0.0,0.0,0.0,0.0,0.0,0.0,0.0,0.0,0.0,0.0,0.0,0.0,0.0,0.0,0.0,0.0,0.0,0.0,0.0,0.0,0.0,0.0,0.0,0.0,0.0,0.0,0.0,0.0,0.0,0.0,0.0,0.0,0.0,0.0,0.0,0.0,0.0,0.0,0.0,0.0,0.0,0.0,0.0,0.0,0.0,0.0,0.0,0.0,13.7413,14.1358,14.4471,14.6312,14.8745,14.9427,14.7299,14.6773,14.4251,13.8926,0.0,0.0,0.0,0.0,0.0,0.0,0.0,0.0,0.0,0.0,0.0,0.0,0.0,0.0,0.0,0.0,0.0,0.0,0.0,0.0,0.0,0.0,0.0,0.0,0.0,0.0,0.0,0.0,0.0,0.0,0.0,0.0,0.0,0.0,0.0,0.0,0.0,0.0,0.0,0.0,0.0,0.0,0.0,0.0,0.0,0.0,0.0,0.0,0.0,0.0,0.0,0.0,0.0,0.0,0.0,0.0,0.0,0.0,0.0,0.0,0.0,0.0,0.0,0.0,0.0,0.0,0.0,0.0,0.0,0.0,0.0,0.0,0.0,0.0,0.0,0.0,0.0,0.0,0.0,0.0,0.0,0.0,0.0,0.0,0.0,0.0,0.0,0.0,0.0,0.0,0.0,0.0,0.0,0.0,0.0,0.0,0.0,0.0,0.0,0.0,0.0,0.0,13.6076,13.9035,14.1907,14.4711,14.6312,14.7167,14.7167,14.5829,14.3199,0.0,0.0,0.0,0.0,0.0,0.0,0.0,0.0,0.0,0.0,0.0,0.0,0.0,0.0,0.0,0.0,0.0,0.0,0.0,0.0,0.0,0.0,0.0,0.0,0.0,0.0,0.0,0.0,0.0,0.0,0.0,0.0,0.0,0.0,0.0,0.0,0.0,0.0,0.0,0.0,0.0,0.0,0.0,0.0,0.0,0.0,0.0,0.0,0.0,0.0,0.0,0.0,0.0,0.0,0.0,0.0,0.0,0.0,0.0,0.0,0.0,0.0,0.0,0.0,0.0,0.0,0.0,0.0,0.0,0.0,0.0,0.0,0.0,0.0,0.0,0.0,0.0,0.0,0.0,0.0,0.0,0.0,0.0,0.0,0.0,0.0,0.0,0.0,0.0,0.0,0.0,0.0,0.0,0.0,0.0,0.0,0.0,0.0,0.0,0.0,0.0,0.0,0.0,13.2898,13.6843,13.9978,14.1907,14.3376,14.3836,14.2827,14.1424,13.8728,13.4323,0.0,0.0,0.0,0.0,0.0,0.0,0.0,0.0,0.0,0.0,0.0,0.0,0.0,0.0,0.0,0.0,0.0,0.0,0.0,0.0,0.0,0.0,0.0,0.0,0.0,0.0,0.0,0.0,0.0,0.0,0.0,0.0,0.0,0.0,0.0,0.0,0.0,0.0,0.0,0.0,0.0,0.0,0.0,0.0,0.0,0.0,0.0,0.0,0.0,0.0,0.0,0.0,0.0,0.0,0.0,0.0,0.0,0.0,0.0,0.0,0.0,0.0,0.0,0.0,0.0,0.0,0.0,0.0,0.0,0.0,0.0,0.0,0.0,0.0,0.0,0.0,0.0,0.0,0.0,0.0,0.0,0.0,0.0,0.0,0.0,0.0,0.0,0.0,0.0,0.0,0.0,0.0,0.0,0.0,0.0,0.0,0.0,0.0,0.0,0.0,0.0,0.0,0.0,13.5397,13.8553,14.0526,14.1534,14.1732,14.0789,13.9386,13.669,13.224,0.0,0.0,0.0,0.0,0.0,0.0,0.0,0.0,0.0,0.0,0.0,0.0,0.0,0.0,0.0,0.0,0.0,0.0,0.0,0.0,0.0,0.0,0.0,0.0,0.0,0.0,0.0,0.0,0.0,0.0,0.0,0.0,0.0,0.0,0.0,0.0,0.0,0.0,0.0,0.0,0.0,0.0,0.0,0.0,0.0,0.0,0.0,0.0,0.0,0.0,0.0,0.0,0.0,0.0,0.0,0.0,0.0,0.0,0.0,0.0,0.0,0.0,0.0,0.0,0.0,0.0,0.0,0.0,0.0,0.0,0.0,0.0,0.0,0.0,0.0,0.0,0.0,0.0,0.0,0.0,0.0,0.0,0.0,0.0,0.0,0.0,0.0,0.0,0.0,0.0,0.0,0.0,0.0,0.0,0.0,0.0,0.0,0.0,0.0,0.0,0.0,0.0,0.0,13.4431,13.7391,14.0131,14.0526,14.0526,14.046,13.9123,13.6361,13.1846,12.7571,0.0,0.0,0.0,0.0,0.0,0.0,0.0,0.0,0.0,0.0,0.0,0.0,0.0,0.0,0.0,0.0,0.0,0.0,0.0,0.0,0.0,0.0,0.0,0.0,0.0,0.0,0.0,0.0,0.0,0.0,0.0,0.0,0.0,0.0,0.0,0.0,0.0,0.0,0.0,0.0,0.0,0.0,0.0,0.0,0.0,0.0,0.0,0.0,0.0,0.0,0.0,0.0,0.0,0.0,0.0,0.0,0.0,0.0,0.0,0.0,0.0,0.0,0.0,0.0,0.0,0.0,0.0,0.0,0.0,0.0,0.0,0.0,0.0,0.0,0.0,0.0,0.0,0.0,0.0,0.0,0.0,0.0,0.0,0.0,0.0,0.0,0.0,0.0,0.0,0.0,0.0,0.0,0.0,0.0,0.0,0.0,0.0,0.0,0.0,0.0,0.0,0.0,13.2327,13.5528,13.7259,13.8421,13.8663,13.7588,13.612,13.2963,12.744,12.4106,0.0,0.0,0.0,0.0,0.0,0.0,0.0,0.0,0.0,0.0,0.0,0.0,0.0,0.0,0.0,0.0,0.0,0.0,0.0,0.0,0.0,0.0,0.0,0.0,0.0,0.0,0.0,0.0,0.0,0.0,0.0,0.0,0.0,0.0,0.0,0.0,0.0,0.0,0.0,0.0,0.0,0.0,0.0,0.0,0.0,0.0,0.0,0.0,0.0,0.0,0.0,0.0,0.0,0.0,0.0,0.0,0.0,0.0,0.0,0.0,0.0,0.0,0.0,0.0,0.0,0.0,0.0,0.0,0.0,0.0,0.0,0.0,0.0,0.0,0.0,0.0,0.0,0.0,0.0,0.0,0.0,0.0,0.0,0.0,0.0,0.0,0.0,0.0,0.0,0.0,0.0,0.0,0.0,0.0,0.0,0.0,0.0,0.0,0.0,0.0,0.0,0.0,12.7177,13.1911,13.601,13.7172,13.7304,13.6536,13.4497,13.1056,12.5927,12.0995,0.0,0.0,0.0,0.0,0.0,0.0,0.0,0.0,0.0,0.0,0.0,0.0,0.0,0.0,0.0,0.0,0.0,0.0,0.0,0.0,0.0,0.0,0.0,0.0,0.0,0.0,0.0,0.0,0.0,0.0,0.0,0.0,0.0,0.0,0.0,0.0,0.0,0.0,0.0,0.0,0.0,0.0,0.0,0.0,0.0,0.0,0.0,0.0,0.0,0.0,0.0,0.0,0.0,0.0,0.0,0.0,0.0,0.0,0.0,0.0,0.0,0.0,0.0,0.0,0.0,0.0,0.0,0.0,0.0,0.0,0.0,0.0,0.0,0.0,0.0,0.0,0.0,0.0,0.0,0.0,0.0,0.0,0.0,0.0,0.0,0.0,0.0,0.0,0.0,0.0,0.0,0.0,0.0,0.0,0.0,0.0,0.0,0.0,0.0,0.0,0.0,0.0,0.0,12.7308,13.4366,13.5747,13.5944,13.5484,13.2898,12.9413,12.4875,0.0,0.0,0.0,0.0,0.0,0.0,0.0,0.0,0.0,0.0,0.0,0.0,0.0,0.0,0.0,0.0,0.0,0.0,0.0,0.0,0.0,0.0,0.0,0.0,0.0,0.0,0.0,0.0,0.0,0.0,0.0,0.0,0.0,0.0,0.0,0.0,0.0,0.0,0.0,0.0,0.0,0.0,0.0,0.0,0.0,0.0,0.0,0.0,0.0,0.0,0.0,0.0,0.0,0.0,0.0,0.0,0.0,0.0,0.0,0.0,0.0,0.0,0.0,0.0,0.0,0.0,0.0,0.0,0.0,0.0,0.0,0.0,0.0,0.0,0.0,0.0,0.0,0.0,0.0,0.0,0.0,0.0,0.0,0.0,0.0,0.0,0.0,0.0,0.0,0.0,0.0,0.0,0.0,0.0,0.0,0.0,0.0,0.0,0.0,0.0,0.0,0.0,0.0,0.0,12.2442,12.8446,13.2437,13.3621,13.1102,12.9347,12.6013,12.0535,0.0,0.0,0.0,0.0,0.0,0.0,0.0,0.0,0.0,0.0,0.0,0.0,0.0,0.0]}],[{"header":{"parameterUnit":"kt","parameterCategory":2,"dx":1,"dy":1,"la1":29.285339999999998,"la2":30.599998999999997,"lo1":-89.70041500000002,"lo2":-87.6738589999976,"nx":112,"ny":82,"refTime":"2022-09-25T06:00:00:Z","depth":0,"parameterNumber":2,"parameterNumberName":"V-component_of_WINDS"},"data":[11.4922,11.509,0.0,11.509,11.509,0.0,11.6061,0.0,0.0,0.0,0.0,0.0,0.0,0.0,0.0,0.0,0.0,0.0,0.0,12.7201,12.8073,12.8628,12.8005,12.7716,12.8346,12.783,12.7375,12.7087,12.6518,12.5948,12.5476,12.5135,12.5021,12.5021,12.5021,12.5135,12.5379,12.5889,12.6745,12.7944,12.8415,12.9159,13.0056,13.0056,13.0056,13.0056,13.0056,13.0056,13.0056,13.0056,13.0056,13.0056,13.0056,13.0056,13.0056,13.0056,13.0056,13.0056,13.0056,13.0056,13.0056,13.0056,13.0056,13.0056,13.0056,13.0056,13.0184,13.1095,13.0701,13.0246,13.1157,13.0701,13.0056,13.0056,13.0692,13.1304,13.1304,13.1977,13.2282,13.1465,13.1304,13.1304,13.1304,13.1304,13.1916,13.3661,13.3561,13.3257,13.3257,13.2076,13.161,13.2443,13.2587,13.3052,13.439,13.59,13.6721,13.6402,13.7463,13.7998,13.7651,13.8519,14.009,14.2469,14.158,14.2209,14.447,14.3505,14.3084,14.3084,14.3084,14.3084,0.0,0.0,11.509,11.509,0.0,0.0,0.0,0.0,0.0,0.0,0.0,0.0,0.0,0.0,0.0,0.0,0.0,0.0,0.0,12.5189,12.6843,12.7375,12.6973,12.6919,12.7489,12.7017,12.6518,12.6176,12.5889,12.5493,12.5021,12.5021,12.5021,12.5021,12.5021,12.5021,12.5021,12.5493,12.635,12.7489,12.8058,12.8916,13.0056,13.0056,13.0056,13.0056,13.0056,13.0056,13.0056,13.0056,13.0056,13.0056,13.0056,13.0056,13.0056,13.0056,13.0056,13.0056,13.0056,13.0056,13.0056,13.0056,13.0056,13.0056,13.0056,13.0056,13.0056,13.0056,13.0056,13.0056,13.0056,13.0056,13.0056,13.0056,13.1037,13.1977,13.1977,13.3052,13.3722,13.2792,13.2648,13.2648,13.2648,13.3052,13.3722,13.5057,13.4836,13.4593,13.4593,13.3461,13.2952,13.3865,13.3926,13.4433,13.5804,13.6629,13.717,13.7305,13.8143,13.851,13.8179,13.9008,14.006,14.1292,14.1355,14.1889,14.3084,14.3084,14.3084,14.3084,14.3084,14.3084,0.0,0.0,0.0,11.5036,0.0,0.0,0.0,0.0,11.6424,0.0,0.0,0.0,11.9744,12.0655,12.0009,11.5947,12.0066,0.0,0.0,12.1812,12.4962,12.4962,12.4962,12.559,12.7261,12.5991,12.5303,12.6062,12.5379,12.5021,12.5021,12.5021,12.5021,12.5021,12.5021,12.5021,12.5021,12.5021,12.5818,12.7489,12.7489,12.84,13.0018,13.0056,13.0056,13.0056,13.0056,13.0056,13.0056,13.0056,13.0056,13.0056,13.0056,13.0056,13.0056,13.0056,13.0056,13.0056,13.0056,13.0056,13.0056,13.0056,13.0056,13.0056,13.0056,13.0056,13.0056,13.0056,13.0056,13.0056,13.0056,13.0056,13.0056,13.0056,13.1098,13.2076,13.2076,13.3113,13.4026,13.4026,13.4026,13.4026,13.4026,13.5039,13.6368,13.7633,13.677,13.5965,13.5965,13.4836,13.4026,13.4026,13.4026,13.4533,13.5804,13.5965,13.6468,13.7733,13.8678,13.9162,13.9162,13.9946,14.0791,14.1654,14.1654,14.2137,14.3022,14.3084,14.3084,14.3084,14.3084,14.3084,11.2682,0.0,0.0,0.0,0.0,0.0,0.0,0.0,0.0,0.0,0.0,0.0,0.0,0.0,12.094,11.9744,0.0,12.2667,12.2097,12.3236,12.411,12.411,12.411,12.4565,12.559,12.5249,12.5076,12.5303,12.5135,12.5021,12.5021,12.5021,12.5021,12.5021,12.5021,12.5021,12.5021,12.5021,12.5493,12.6518,12.7245,12.8058,12.9045,12.9729,13.0056,13.0056,13.0056,13.0056,13.0056,13.0056,13.0056,13.0056,13.0056,13.0056,13.0056,13.0056,13.0056,13.0056,13.0056,13.0056,13.0056,13.0056,13.0056,13.0056,13.0056,13.0056,13.0056,13.0056,13.0056,13.0056,13.0056,13.0056,13.0056,13.0056,13.1771,13.3418,13.3418,13.5199,13.6468,13.5502,13.536,13.536,13.536,13.6408,13.7432,13.7733,13.7532,13.7292,13.7292,13.6166,13.5662,13.6629,13.5904,13.5864,13.7171,13.7292,13.7432,13.7833,13.8678,13.9162,13.9162,13.9946,14.0448,14.0689,14.1394,14.1815,14.2119,14.2722,14.3084,14.3084,14.3084,14.3084,0.0,0.0,0.0,0.0,0.0,0.0,0.0,0.0,11.5833,0.0,0.0,0.0,0.0,0.0,0.0,0.0,12.0313,12.1528,12.0313,12.1965,12.3236,12.3236,12.3236,12.3464,12.3882,12.3937,12.4224,12.4924,12.4679,12.462,12.4962,12.5021,12.5021,12.5021,12.5021,12.5021,12.5021,12.5021,12.5379,12.6176,12.7131,12.7944,12.8741,12.9615,13.0056,13.0056,13.0056,13.0056,13.0056,13.0056,13.0056,13.0056,13.0056,13.0056,13.0056,13.0056,13.0056,13.0056,13.0056,13.0056,13.0056,13.0056,13.0056,13.0056,13.0056,13.0056,13.0056,13.0056,13.0056,13.0056,13.0056,13.0056,13.0056,13.0056,13.2015,13.3926,13.3926,13.5965,13.7593,13.687,13.6669,13.6669,13.6669,13.7332,13.7833,13.7833,13.7833,13.7833,13.7833,13.7131,13.699,13.7733,13.7131,13.703,13.7733,13.7833,13.7833,13.7833,13.8316,13.8618,13.8618,13.9041,13.9463,13.9825,14.0388,14.0791,14.1153,14.2016,14.2481,14.2481,14.2481,14.2722,0.0,0.0,0.0,0.0,11.3502,0.0,0.0,0.0,11.5264,11.6002,0.0,11.6706,11.8187,0.0,0.0,11.4808,11.8187,11.9857,11.6289,11.9459,12.2172,12.2343,12.2343,12.2381,12.2457,12.2457,12.3123,12.4582,12.4148,12.411,12.4793,12.4962,12.5021,12.5021,12.5021,12.5021,12.5021,12.5021,12.5362,12.6062,12.6919,12.783,12.859,12.9486,12.9942,13.0056,13.0056,13.0056,13.0056,13.0056,13.0056,13.0056,13.0056,13.0056,13.0056,13.0056,13.0056,13.0056,13.0056,13.0056,13.0056,13.0056,13.0056,13.0056,13.0056,13.0056,13.0056,13.0056,13.0056,13.0056,13.0056,13.0117,13.0263,13.0263,13.2282,13.4129,13.4129,13.6106,13.7833,13.7833,13.7833,13.7833,13.7833,13.7833,13.7833,13.7833,13.7833,13.7833,13.7833,13.7833,13.7833,13.7833,13.7833,13.7833,13.7833,13.7833,13.7833,13.7833,13.8333,13.8633,13.8633,13.9132,13.9598,13.9848,13.9404,13.9524,14.0206,14.1153,14.1515,14.1413,14.1636,14.2429,0.0,0.0,0.0,0.0,0.0,11.3729,0.0,0.0,0.0,11.5264,11.5795,11.631,11.6651,11.7845,11.8585,11.7901,11.9118,12.0199,12.0085,12.0313,12.0674,12.1414,12.1509,12.1756,12.2439,12.2457,12.2609,12.2913,12.3523,12.3882,12.4034,12.462,12.5021,12.5021,12.5021,12.5021,12.5021,12.5021,12.5076,12.5249,12.6062,12.6859,12.7777,12.859,12.9372,13.0056,13.0056,13.0056,13.0056,13.0056,13.0056,13.0056,13.0056,13.0056,13.0056,13.0056,13.0056,13.0056,13.0056,13.0056,13.0056,13.0056,13.0056,13.0056,13.0056,13.0056,13.0056,13.0056,13.0056,13.0056,13.0056,13.0792,13.161,13.161,13.3622,13.5502,13.5502,13.677,13.7833,13.7833,13.7833,13.7833,13.7833,13.7833,13.7833,13.7833,13.7833,13.7833,13.7833,13.7833,13.7833,13.7833,13.7833,13.7833,13.7833,13.7833,13.7833,13.7833,14.1553,14.376,14.376,14.7541,14.7832,14.4113,14.0811,13.9282,13.9403,14.0206,14.0308,13.9704,14.1094,14.3977,0.0,0.0,0.0,10.9797,0.0,0.0,0.0,11.4412,11.509,11.509,11.5378,11.574,11.6175,11.6934,11.7787,11.8643,11.9098,11.9516,12.0009,11.9971,12.0085,12.0541,12.0598,12.0769,12.1129,12.1584,12.168,12.1243,12.2041,12.2953,12.3768,12.4206,12.4565,12.4962,12.5021,12.5021,12.5021,12.5021,12.5021,12.5021,12.5818,12.6631,12.7549,12.8301,12.9159,13.0056,13.0056,13.0056,13.0056,13.0056,13.0056,13.0056,13.0056,13.0056,13.0056,13.0056,13.0056,13.0056,13.0056,13.0056,13.0056,13.0056,13.0056,13.0056,13.0056,13.0056,13.0056,13.0056,13.0485,13.0998,13.0998,13.1977,13.2952,13.2952,13.4433,13.5864,13.5864,13.693,13.7833,13.7833,13.7833,13.7833,13.7833,13.7833,13.7833,13.7833,13.7833,13.7833,13.7833,13.7833,13.7833,13.7833,13.7833,13.8832,14.1316,14.1553,14.2579,14.4969,14.7439,14.8775,14.8775,15.1097,15.1282,14.8876,14.6861,14.4652,14.2239,14.5031,14.6445,14.6412,14.4835,14.7299,0.0,0.0,0.0,0.0,0.0,0.0,11.3274,11.4217,11.4862,11.5036,11.509,11.5264,11.5854,11.6137,11.6706,11.8073,11.8585,11.8756,11.8756,11.9288,11.9744,11.9915,11.9971,11.9971,11.9971,12.0598,12.0712,11.9971,12.0598,12.1737,12.3236,12.3636,12.411,12.4734,12.4907,12.5021,12.5021,12.5021,12.5021,12.5021,12.5607,12.6404,12.7261,12.8058,12.8931,12.9828,12.9942,13.0056,13.0056,13.0056,13.0056,13.0056,13.0056,13.0056,13.0056,13.0056,13.0056,13.0056,13.0056,13.0056,13.0056,13.0056,13.0056,13.0056,13.0056,13.0056,13.0056,13.0056,13.0998,13.1977,13.1977,13.3157,13.4329,13.4329,13.5299,13.6267,13.6267,13.7071,13.7833,13.7833,13.7833,13.7833,13.7833,13.7833,13.7833,13.7833,13.7833,13.7833,13.7833,13.7833,13.7833,13.7833,13.7833,13.983,14.4803,14.523,14.725,15.2085,15.3273,15.3399,15.2473,15.4252,15.4354,15.2473,15.3375,15.1442,14.6666,15.1486,15.3721,15.3403,14.9598,15.1318,0.0,0.0,0.0,10.7367,10.9037,0.0,11.2317,11.3305,11.4125,11.4922,11.509,11.509,11.5204,11.574,11.631,11.6479,11.7787,11.8756,11.8756,11.8832,11.9174,11.9857,11.9971,11.9971,11.9971,12.0029,12.0085,11.9971,12.0029,12.0541,12.1509,12.3009,12.3864,12.3978,12.462,12.5021,12.5021,12.5021,12.5021,12.5021,12.5076,12.5493,12.635,12.7261,12.8058,12.887,12.9714,13.0056,13.0056,13.0056,13.0056,13.0056,13.0056,13.0056,13.0056,13.0056,13.0056,13.0056,13.0056,13.0056,13.0056,13.0056,13.0056,13.0056,13.0056,13.0056,13.0056,13.0056,13.0998,13.1977,13.1977,13.3826,13.5662,13.5662,13.6629,13.7593,13.7593,13.7733,13.7833,13.7833,13.7833,13.7833,13.7833,13.7833,13.7833,13.7833,13.7833,13.7833,13.7833,13.7833,13.7833,13.7833,13.7833,13.983,14.4803,14.523,14.725,15.2085,15.6551,15.7002,15.26,16.0842,16.1389,15.26,15.6674,15.6551,15.1569,15.6551,15.6756,15.255,15.2808,15.5752,0.0,10.2621,10.4671,10.638,0.0,0.0,11.2127,11.3138,11.3957,11.4862,11.509,11.509,11.509,11.5378,11.5719,11.6175,11.682,11.7276,11.7276,11.8187,11.887,11.9212,11.963,11.9971,11.9971,11.9971,11.9971,11.9971,11.9971,12.0085,12.0484,12.2097,12.3254,12.3806,12.4565,12.5021,12.5021,12.5021,12.5021,12.5021,12.5021,12.5379,12.6176,12.6518,12.7428,12.8703,12.9083,12.96,13.0056,13.0056,13.0056,13.0056,13.0056,13.0056,13.0056,13.0056,13.0056,13.0056,13.0056,13.0056,13.0056,13.0056,13.0056,13.0056,13.0056,13.0056,13.0056,13.0056,13.0424,13.1243,13.2748,13.4533,13.6066,13.683,13.7432,13.7833,13.7833,13.7833,13.7833,13.7833,13.7833,13.7833,13.7833,13.7833,13.7833,13.7833,13.7833,13.7833,13.7833,13.7833,13.7833,13.7833,13.7833,14.0959,14.8775,14.9412,15.2759,16.0508,16.2984,16.3142,16.1064,16.4996,16.5215,16.1064,16.3039,16.3087,16.1047,16.3087,16.3039,16.0945,15.841,16.027,9.9309,0.0,0.0,0.0,0.0,0.0,11.2051,11.3024,11.3707,11.4808,11.509,11.509,11.509,11.509,11.5264,11.5833,11.5909,11.5968,11.6196,11.7276,11.8243,11.8719,11.9288,11.9687,11.9915,11.9971,11.9971,11.9971,11.9971,11.9971,11.9971,12.1129,12.2267,12.3426,12.4451,12.5021,12.5021,12.5021,12.5021,12.5021,12.5021,12.5265,12.5835,12.6062,12.6859,12.7998,12.8514,12.9045,12.9714,12.9714,12.9828,13.0056,13.0056,13.0056,13.0056,13.0056,13.0056,13.0056,13.0056,13.0056,13.0056,13.0056,13.0056,13.0056,13.0056,13.0056,13.0056,13.0056,13.0056,13.057,13.2792,13.4633,13.6166,13.7532,13.7833,13.7833,13.7833,13.7833,13.7833,13.7833,13.7833,13.7833,13.7833,13.7833,13.7833,13.7833,13.7833,13.7833,13.7833,13.7833,13.7833,13.7833,13.7833,14.1256,14.9671,15.1671,15.6043,16.4571,16.6404,16.6574,16.5167,16.6459,16.6519,16.5167,16.6459,16.7166,16.7166,16.7166,16.7166,16.7112,16.348,16.4179,0.0,0.0,0.0,10.5518,10.6949,10.843,11.1786,11.2598,11.3077,11.4694,11.509,11.509,11.509,11.509,11.509,11.509,11.509,11.5378,11.6137,11.6289,11.6934,11.8585,11.8813,11.9098,11.9857,11.9971,11.9971,11.9971,11.9971,11.9971,11.9971,11.9971,12.0787,12.2457,12.411,12.5021,12.5021,12.5021,12.5021,12.5021,12.5021,12.5021,12.5038,12.5835,12.6176,12.635,12.796,12.8703,12.8741,12.8741,12.9273,13.0056,13.0056,13.0056,13.0056,13.0056,13.0056,13.0056,13.0056,13.0056,13.0056,13.0056,13.0056,13.0056,13.0056,13.0056,13.0056,13.0056,13.0056,13.0324,13.171,13.3926,13.6166,13.7532,13.7833,13.7833,13.7833,13.7833,13.7833,13.7833,13.7833,13.7833,13.7833,13.7833,13.7833,13.7833,13.7833,13.7833,13.7833,13.7833,13.7833,13.7833,13.7833,13.9868,14.4995,14.9715,15.4582,15.9682,16.4503,16.4996,16.0183,16.4619,16.4893,16.0063,16.4674,16.7166,16.7166,16.7166,16.7166,16.7166,16.6998,16.7052,9.7648,9.9593,10.1938,10.4747,10.6494,10.8392,11.1786,11.2545,11.3054,11.4694,11.509,11.509,11.509,11.509,11.509,11.509,11.509,11.515,11.5432,11.5909,11.6651,11.7752,11.8415,11.906,11.9857,11.9971,11.9971,11.9971,11.9971,11.9971,11.9971,11.9971,12.0446,12.1642,12.2723,12.3823,12.4962,12.5021,12.5021,12.5021,12.5021,12.5021,12.5021,12.5265,12.5704,12.6176,12.6745,12.7033,12.7049,12.7656,12.84,12.9098,12.9098,12.9501,13.0056,13.0056,13.0056,13.0056,13.0056,13.0056,13.0056,13.0056,13.0056,13.0056,13.0056,13.0056,13.0056,13.0056,13.0056,13.0117,13.057,13.2648,13.5139,13.7292,13.7833,13.7833,13.7833,13.7833,13.7833,13.7833,13.7833,13.7833,13.7833,13.7833,13.7833,13.7833,13.7833,13.7833,13.7833,13.7833,13.7833,13.7833,13.7833,13.983,14.4803,14.9643,15.4479,15.9459,16.4455,16.6459,16.4777,16.6301,16.6404,16.4674,16.6301,16.7166,16.7166,16.7166,16.7166,16.7166,16.7166,16.7166,9.7276,9.9175,10.1406,10.3912,10.6038,10.8202,11.1026,11.2089,11.2963,11.4331,11.4808,11.509,11.509,11.509,11.509,11.509,11.509,11.509,11.509,11.5491,11.6196,11.7296,11.7959,11.8719,11.9801,11.9971,11.9971,11.9971,11.9971,11.9971,11.9971,11.9971,12.037,12.1281,12.204,12.314,12.4565,12.4848,12.5021,12.5021,12.5021,12.5021,12.5021,12.5021,12.5265,12.5721,12.5721,12.5889,12.6176,12.6805,12.7489,12.8286,12.8529,12.9045,12.96,12.9942,13.0056,13.0056,13.0056,13.0056,13.0056,13.0056,13.0056,13.0056,13.0056,13.0056,13.0056,13.0056,13.0056,13.0056,13.0056,13.1977,13.439,13.6025,13.7131,13.7833,13.7833,13.7833,13.7833,13.7833,13.7833,13.7833,13.7833,13.7833,13.7833,13.7833,13.7833,13.7833,13.7833,13.7833,13.7833,13.7833,13.7833,13.9132,14.2307,14.7016,15.19,15.6833,16.1768,16.5325,16.7112,16.7166,16.7166,16.7166,16.7166,16.7166,16.7166,16.7166,16.7166,16.7166,16.7166,16.7166,9.6994,9.8749,10.0523,10.3163,10.567,10.7936,10.9607,11.133,11.2735,11.3555,11.4412,11.509,11.509,11.509,11.509,11.509,11.509,11.509,11.509,11.509,11.566,11.722,11.741,11.8093,11.9801,11.9971,11.9971,11.9971,11.9971,11.9971,11.9971,11.9971,12.0313,12.1168,12.1984,12.2799,12.375,12.4565,12.4962,12.5021,12.5021,12.5021,12.5021,12.5021,12.5021,12.5021,12.5021,12.5379,12.6062,12.6062,12.6631,12.7489,12.8286,12.859,12.8741,12.9615,12.9942,13.0003,13.0056,13.0056,13.0056,13.0056,13.0056,13.0056,13.0056,13.0056,13.0056,13.0056,13.0056,13.0056,13.0056,13.1977,13.3926,13.3926,13.5904,13.7833,13.7833,13.7833,13.7833,13.7833,13.7833,13.7833,13.7833,13.7833,13.7833,13.7833,13.7833,13.7833,13.7833,13.7833,13.7833,13.7833,13.7833,13.7893,13.8194,14.2739,14.7642,15.2473,15.7442,16.2267,16.6998,16.7166,16.7166,16.7166,16.7166,16.7166,16.7166,16.7166,16.7166,16.7166,16.7166,16.7166,9.5233,9.8749,10.0523,10.3163,10.567,10.7936,10.9607,11.133,11.2735,11.3555,11.4412,11.509,11.509,11.509,11.509,11.509,11.509,11.509,11.509,11.509,11.566,11.722,11.741,11.8093,11.9801,11.9971,11.9971,11.9971,11.9971,11.9971,11.9971,11.9971,12.0029,12.0256,12.1168,12.1984,12.2799,12.3692,12.4393,12.5021,12.5021,12.5021,12.5021,12.5021,12.5021,12.5021,12.5021,12.5135,12.5265,12.5265,12.5721,12.6518,12.6745,12.7201,12.7944,12.8741,12.9045,12.9098,12.9828,13.0056,13.0056,13.0056,13.0056,13.0056,13.0056,13.0056,13.0056,13.0056,13.0056,13.0056,13.0056,13.1977,13.3926,13.3926,13.5904,13.7833,13.7833,13.7833,13.7833,13.7833,13.7833,13.7833,13.7833,13.7833,13.7833,13.7833,13.7833,13.7833,13.7833,13.7833,13.7833,13.7833,13.7833,13.9292,14.3034,14.7773,15.2657,15.7564,16.2543,16.5865,16.7112,16.7166,16.7166,16.7166,16.7166,16.7166,16.7166,16.7166,16.7166,16.7166,16.7166,16.7166,9.4632,9.8141,10.0448,10.267,10.5355,10.7746,10.8696,11.0798,11.2659,11.3138,11.3897,11.458,11.4976,11.509,11.509,11.509,11.509,11.509,11.509,11.509,11.566,11.722,11.741,11.8093,11.9801,11.9971,11.9971,11.9971,11.9971,11.9971,11.9971,11.9971,11.9971,11.9971,12.0826,12.1509,12.1926,12.3236,12.4034,12.4451,12.4793,12.5021,12.5021,12.5021,12.5021,12.5021,12.5021,12.5021,12.5021,12.5021,12.5249,12.5704,12.6003,12.6458,12.7033,12.783,12.84,12.8757,12.9273,12.9714,13.0056,13.0056,13.0056,13.0056,13.0056,13.0056,13.0056,13.0056,13.0056,13.0056,13.0056,13.1549,13.3196,13.3765,13.5502,13.693,13.693,13.7432,13.7833,13.7833,13.7833,13.7833,13.7833,13.7833,13.7833,13.7833,13.7833,13.7833,13.7833,13.7833,13.7833,13.7833,13.7833,13.8933,14.1713,14.6433,15.1282,15.6269,16.1167,16.4893,16.7063,16.7166,16.7166,16.7166,16.7166,16.7166,16.7166,16.7166,16.7166,16.7166,16.7166,16.7166,9.4452,9.7314,10.0068,10.1976,10.5013,10.7519,10.7519,10.9986,11.2393,11.2507,11.3191,11.3957,11.4922,11.509,11.509,11.509,11.509,11.509,11.509,11.509,11.5605,11.7107,11.7334,11.8073,11.963,11.9857,11.9971,11.9971,11.9971,11.9971,11.9971,11.9971,11.9971,11.9971,12.0712,12.1168,12.1281,12.2839,12.3692,12.3806,12.4662,12.5021,12.5021,12.5021,12.5021,12.5021,12.5021,12.5021,12.5021,12.5021,12.5021,12.5038,12.5721,12.6003,12.6122,12.7033,12.777,12.84,12.8514,12.9144,12.9842,12.9842,12.9942,13.0056,13.0056,13.0056,13.0056,13.0056,13.0056,13.0056,13.0056,13.0998,13.2282,13.3418,13.4533,13.5441,13.5804,13.677,13.7593,13.7733,13.7833,13.7833,13.7833,13.7833,13.7833,13.7833,13.7833,13.7833,13.7833,13.7833,13.7833,13.7833,13.7833,13.8093,13.8734,14.2739,14.7541,15.3044,15.7442,16.199,16.6949,16.7166,16.7166,16.7166,16.7166,16.7166,16.7166,16.7166,16.7166,16.7166,16.7166,16.7166,9.3781,9.6478,9.8673,10.171,10.5013,10.7519,10.7519,10.9531,11.1619,11.2393,11.3191,11.3957,11.4922,11.509,11.509,11.509,11.509,11.509,11.509,11.509,11.5432,11.631,11.7048,11.7845,11.887,11.9516,11.9971,11.9971,11.9971,11.9971,11.9971,11.9971,11.9971,11.9971,12.0085,12.0541,12.1281,12.2211,12.3123,12.3806,12.4662,12.5021,12.5021,12.5021,12.5021,12.5021,12.5021,12.5021,12.5021,12.5021,12.5021,12.5021,12.5135,12.5189,12.5265,12.6062,12.6458,12.6745,12.7489,12.8187,12.8931,12.8931,12.9387,13.0056,13.0056,13.0056,13.0056,13.0056,13.0056,13.0056,13.0056,13.0998,13.2076,13.2282,13.2487,13.3257,13.5402,13.6006,13.6568,13.7593,13.7833,13.7833,13.7833,13.7833,13.7833,13.7833,13.7833,13.7833,13.7833,13.7833,13.7833,13.7833,13.7833,13.9431,14.3566,14.4702,14.9036,15.7947,15.9338,16.199,16.6949,16.7166,16.7166,16.7166,16.7166,16.7166,16.7166,16.7166,16.7166,16.7166,16.7166,16.7166,9.3521,9.5946,9.8074,10.0039,10.3332,10.6405,10.7291,10.9113,11.0936,11.2279,11.2849,11.3533,11.4808,11.509,11.509,11.509,11.509,11.509,11.509,11.509,11.5378,11.6137,11.6899,11.7752,11.8699,11.9459,11.9971,11.9971,11.9971,11.9971,11.9971,11.9971,11.9971,11.9971,11.9971,12.0142,12.0598,12.1414,12.2267,12.3123,12.3996,12.4565,12.4962,12.4565,12.4565,12.5021,12.5021,12.5021,12.5021,12.5021,12.5021,12.5021,12.5021,12.5021,12.5021,12.5379,12.5835,12.6192,12.6631,12.7375,12.8058,12.8058,12.8628,12.9372,12.9372,12.9714,13.0056,13.0056,13.0056,13.0056,13.0056,13.0485,13.1159,13.1816,13.1977,13.2343,13.3561,13.4896,13.6006,13.6729,13.7372,13.7833,13.7833,13.7833,13.7833,13.7833,13.7833,13.7833,13.7833,13.7833,13.7833,13.7833,13.7833,13.983,14.4803,14.7541,15.206,15.9338,16.2211,16.4674,16.7063,16.7166,16.7166,16.7166,16.7166,16.7166,16.7166,16.7166,16.7166,16.7166,16.7166,16.7166,9.3251,9.5446,9.7496,9.8521,10.152,10.4736,10.6987,10.8506,10.9986,11.1862,11.2393,11.3054,11.452,11.4922,11.509,11.509,11.509,11.509,11.509,11.509,11.5318,11.5909,11.6706,11.7524,11.8415,11.9212,11.9744,11.9915,11.9971,11.9971,11.9971,11.9971,11.9971,11.9971,11.9971,11.9971,11.9971,12.0826,12.1623,12.223,12.3123,12.3978,12.4679,12.411,12.4148,12.4734,12.4907,12.5021,12.5021,12.5021,12.5021,12.5021,12.5021,12.5021,12.5021,12.5021,12.5379,12.5889,12.5889,12.6463,12.7201,12.7201,12.777,12.8476,12.8643,12.9159,12.9828,12.9956,13.0056,13.0056,13.0056,13.0056,13.0263,13.1304,13.1549,13.161,13.1916,13.3622,13.5199,13.5804,13.6669,13.7532,13.7733,13.7833,13.7833,13.7833,13.7833,13.7833,13.7833,13.7833,13.7833,13.7833,13.7833,13.9371,14.3271,14.709,15.1799,15.7789,16.184,16.4948,16.7063,16.7166,16.7166,16.7166,16.7166,16.7166,16.7166,16.7166,16.7166,16.7166,16.7166,16.7166,9.2549,9.5028,9.6729,9.8369,10.0191,10.2621,10.6607,10.7633,10.843,11.0822,11.1976,11.2796,11.3669,11.452,11.509,11.509,11.509,11.509,11.509,11.509,11.509,11.515,11.5854,11.6651,11.7448,11.8321,11.9174,11.9857,11.9971,11.9971,11.9971,11.9971,11.9971,11.9971,11.9971,11.9971,11.9971,12.0826,12.1339,12.1395,12.2211,12.3026,12.392,12.3864,12.3864,12.3978,12.4679,12.5021,12.5021,12.5021,12.5021,12.5021,12.5021,12.5021,12.5021,12.5021,12.5021,12.5076,12.5076,12.5607,12.629,12.629,12.6919,12.7716,12.8476,12.8741,12.8969,12.9828,13.0056,13.0056,13.0056,13.0056,13.0056,13.0216,13.0263,13.057,13.1771,13.2182,13.3052,13.5402,13.5965,13.6408,13.7633,13.7833,13.7833,13.7833,13.7833,13.7833,13.7833,13.7833,13.7833,13.7833,13.7833,13.7973,13.8494,13.8933,14.3128,15.2473,15.3501,15.7789,16.6791,16.7166,16.7166,16.7166,16.7166,16.7166,16.7166,16.7166,16.7166,16.7166,16.7166,16.7166,9.2355,9.4572,9.6501,9.7724,9.9707,10.1872,10.3988,10.5229,10.6823,10.9873,11.1596,11.2773,11.3562,11.4466,11.509,11.509,11.509,11.509,11.509,11.509,11.509,11.509,11.574,11.6537,11.7334,11.8207,11.9098,11.9857,11.9971,11.9971,11.9971,11.9971,11.9971,11.9971,11.9971,11.9971,11.9971,12.0313,12.0769,12.1281,12.1623,12.1965,12.2307,12.2307,12.2553,12.3026,12.392,12.432,12.4337,12.4793,12.5021,12.5021,12.5021,12.5021,12.5021,12.5021,12.5021,12.5021,12.5021,12.5189,12.5476,12.5476,12.6046,12.6745,12.7087,12.7846,12.8757,12.9098,12.9615,13.0056,13.0056,13.0056,13.0056,13.0056,13.0056,13.0424,13.171,13.2587,13.3722,13.5502,13.6528,13.7231,13.7733,13.7833,13.7833,13.7833,13.7833,13.7833,13.7833,13.7833,13.7833,13.7833,14.0464,14.3465,14.6374,14.6565,15.0809,16.0667,15.8499,15.9961,16.6894,16.7166,16.7166,16.7166,16.7166,16.7166,16.7166,16.7166,16.7166,16.7166,16.7166,16.7166,9.1995,9.4155,9.6167,9.7314,9.9061,10.0837,10.2165,10.3749,10.5646,10.805,11.0304,11.2127,11.316,11.4071,11.4786,11.5036,11.509,11.509,11.509,11.509,11.509,11.509,11.5567,11.6289,11.7296,11.7979,11.8776,11.9857,11.9971,11.9971,11.9971,11.9971,11.9971,11.9971,11.9971,11.9971,11.9971,11.9971,12.0256,12.0883,12.0883,12.0883,12.0883,12.1168,12.1623,12.2154,12.3067,12.3578,12.3864,12.4451,12.4793,12.5021,12.5021,12.5021,12.5021,12.5021,12.5021,12.5021,12.5021,12.5021,12.5021,12.5021,12.5379,12.5835,12.6062,12.6973,12.796,12.8286,12.8969,12.9615,12.9615,12.9615,12.9714,13.0003,13.0056,13.0263,13.1243,13.2137,13.3257,13.4996,13.6006,13.693,13.7673,13.7833,13.7833,13.7833,13.7833,13.7833,13.7833,13.7833,13.7833,13.7833,14.0922,14.4408,14.7803,14.9426,15.3842,16.2267,16.0889,16.199,16.6949,16.7166,16.7166,16.7166,16.7166,16.7166,16.7166,16.7166,16.7166,16.7166,16.7166,16.7166,9.1259,9.3743,9.5498,9.7162,9.8179,9.9432,10.19,10.3749,10.5001,10.5001,10.7708,11.057,11.2241,11.3213,11.4011,11.4922,11.509,11.509,11.509,11.509,11.509,11.509,11.509,11.5719,11.7241,11.741,11.8093,11.9801,11.9971,11.9971,11.9971,11.9971,11.9971,11.9971,11.9971,11.9971,11.9971,11.9971,11.9971,11.9971,11.9971,11.9971,11.9971,12.0883,12.1281,12.1338,12.2154,12.3009,12.3806,12.3806,12.432,12.5021,12.5021,12.5021,12.5021,12.5021,12.5021,12.5021,12.5021,12.5021,12.5021,12.5021,12.5021,12.5135,12.5948,12.6176,12.6404,12.7261,12.8119,12.8703,12.8703,12.8703,12.8931,12.9828,13.0056,13.0056,13.0056,13.0056,13.0792,13.3461,13.3926,13.4796,13.7372,13.7833,13.7833,13.7833,13.7833,13.7833,13.7833,13.7833,13.7833,13.7833,13.7833,13.7893,13.7973,14.2443,14.7351,15.2244,15.7058,16.199,16.6949,16.7166,16.7166,16.7166,16.7166,16.7166,16.7166,16.7166,16.7166,16.7166,16.7166,16.7166,9.1692,9.3326,9.4534,9.6243,9.7724,9.9128,10.041,10.1131,10.2193,10.4508,10.6304,10.8316,11.1087,11.2796,11.3843,11.4125,11.4694,11.509,11.509,11.509,11.509,11.509,11.509,11.5719,11.7241,11.741,11.8093,11.9801,11.9971,11.9971,11.9971,11.9971,11.9971,11.9971,11.9971,11.9971,11.9971,11.9971,11.9971,11.9971,11.9971,11.9971,11.9971,12.0199,12.037,12.0427,12.1281,12.1851,12.2097,12.2667,12.3426,12.4224,12.4793,12.5021,12.5021,12.5021,12.5021,12.5021,12.5021,12.5021,12.5021,12.5021,12.5021,12.5021,12.5265,12.5721,12.6176,12.6518,12.7201,12.7716,12.7087,12.7428,12.8119,12.8931,12.9144,12.9517,13.1029,13.1404,13.2137,13.4736,13.526,13.5804,13.7532,13.7833,13.7833,13.7833,13.7833,13.7833,13.7833,13.7833,13.7833,13.7833,14.0822,14.2899,14.2899,14.4349,14.8703,15.69,15.576,15.6956,16.1887,16.2109,16.3741,16.7112,16.7166,16.7166,16.7166,16.7166,16.7166,16.7166,16.7166,16.7166,9.1844,9.3092,9.4117,9.578,9.6994,9.7981,9.8862,9.9499,10.0713,10.3445,10.4975,10.6645,10.9303,11.1733,11.3365,11.3675,11.4466,11.509,11.509,11.509,11.509,11.509,11.509,11.5605,11.6879,11.722,11.7979,11.9402,11.9744,11.9971,11.9971,11.9971,11.9971,11.9971,11.9971,11.9971,11.9971,11.9971,11.9971,11.9971,11.9971,11.9971,11.9971,11.9971,11.9971,11.9971,12.0541,12.0997,12.1339,12.1851,12.2553,12.335,12.3823,12.4224,12.4565,12.4907,12.5021,12.5021,12.5021,12.5021,12.5021,12.5021,12.5021,12.5021,12.5021,12.5362,12.5721,12.5721,12.635,12.6859,12.629,12.6577,12.7201,12.8058,12.8476,12.9076,13.0424,13.1013,13.1877,13.4026,13.4836,13.5562,13.687,13.7532,13.7833,13.7833,13.7833,13.7833,13.7833,13.7833,13.7833,13.7833,14.0625,14.2443,14.2443,14.4113,14.7773,15.3888,15.1384,15.1856,15.6777,15.7002,15.8452,16.1547,16.3465,16.4352,16.44,16.6253,16.7166,16.7166,16.7166,16.7166,9.1844,9.3054,9.4041,9.5704,9.6122,9.6349,9.7268,9.8673,10.022,10.1938,10.3635,10.5381,10.6975,10.9986,11.2568,11.3502,11.4352,11.4976,11.509,11.509,11.509,11.509,11.509,11.5378,11.6175,11.6879,11.7731,11.8699,11.9458,11.9857,11.9971,11.9971,11.9971,11.9971,11.9971,11.9971,11.9971,11.9971,11.9971,11.9971,11.9971,11.9971,11.9971,11.9971,11.9971,11.9971,11.9971,12.0427,12.1168,12.1168,12.1642,12.2381,12.2381,12.2913,12.3806,12.4662,12.4962,12.5021,12.5021,12.5021,12.5021,12.5021,12.5021,12.5021,12.5021,12.5021,12.5021,12.5021,12.5493,12.6062,12.6062,12.6062,12.629,12.7245,12.7944,12.8529,12.859,12.9273,13.0371,13.1755,13.3096,13.439,13.5804,13.7011,13.7833,13.7833,13.7833,13.7833,13.7833,13.7833,13.7833,13.7833,13.7833,13.7833,13.7833,14.201,14.4702,14.4702,14.4702,14.6958,15.2187,15.2371,15.2759,15.3456,15.7947,16.0286,16.0342,16.4948,16.7166,16.7166,16.7166,16.7166,9.1692,9.268,9.3212,9.4921,9.5339,9.5567,9.6357,9.7382,9.8559,10.0182,10.2393,10.4417,10.5381,10.7733,11.029,11.2454,11.3533,11.4298,11.4976,11.509,11.509,11.509,11.509,11.5378,11.6175,11.6424,11.7162,11.8643,11.8946,11.9288,11.9915,11.9971,11.9971,11.9971,11.9971,11.9971,11.9971,11.9971,11.9971,11.9971,11.9971,11.9971,11.9971,11.9971,11.9971,11.9971,11.9971,12.0085,12.0218,12.0218,12.0769,12.1566,12.1566,12.2097,12.2895,12.3768,12.4451,12.5021,12.5021,12.5021,12.5021,12.5021,12.5021,12.5021,12.5021,12.5021,12.5021,12.5021,12.5135,12.5265,12.5265,12.5265,12.5476,12.629,12.6631,12.6973,12.7602,12.846,12.97,13.2003,13.3253,13.4693,13.693,13.7633,13.7833,13.7833,13.7833,13.7833,13.7833,13.7833,13.7833,13.7833,13.7833,13.7833,13.7833,13.8933,13.9531,13.9531,13.9531,14.3423,15.2085,15.2371,15.5986,16.3583,16.4893,16.544,16.544,16.6574,16.7166,16.7166,16.7166,16.7166,9.1616,9.2528,9.2946,9.4662,9.508,9.5263,9.6046,9.6926,9.7989,9.9575,10.1672,10.3532,10.4736,10.6709,10.8796,11.1026,11.2682,11.4017,11.4922,11.509,11.509,11.509,11.509,11.5264,11.5627,11.6023,11.6592,11.7559,11.8301,11.8946,11.9345,11.9744,11.9971,11.9971,11.9971,11.9971,11.9971,11.9971,11.9971,11.9971,11.9971,11.9971,11.9971,11.9971,11.9971,11.9971,11.9971,11.9971,11.9971,11.9971,12.0199,12.0655,12.0655,12.1186,12.1984,12.2497,12.3181,12.3882,12.4279,12.4679,12.5021,12.5021,12.5021,12.5021,12.5021,12.5021,12.5021,12.5021,12.5021,12.5021,12.5021,12.5021,12.5076,12.5493,12.5889,12.629,12.6745,12.7542,12.8535,12.9967,13.1929,13.3741,13.5109,13.673,13.7833,13.7833,13.7833,13.7833,13.7833,13.7833,13.7833,13.7833,13.7833,13.7833,13.7833,13.7833,13.7833,13.7833,13.7833,14.0166,14.5497,14.5689,14.8195,15.3558,15.807,16.0389,16.0389,16.4948,16.7166,16.7166,16.7166,16.7166,9.1616,9.2642,9.3098,9.4662,9.508,9.5225,9.5901,9.6736,9.7761,9.9233,10.0865,10.2535,10.428,10.6064,10.7822,10.9379,11.1847,11.3897,11.4922,11.509,11.509,11.509,11.509,11.509,11.509,11.5681,11.6082,11.6251,11.7676,11.8605,11.8756,11.9516,11.9971,11.9971,11.9971,11.9971,11.9971,11.9971,11.9971,11.9971,11.9971,11.9971,11.9971,11.9971,11.9971,11.9971,11.9971,11.9971,11.9971,11.9971,11.9971,11.9971,11.9971,12.0427,12.1111,12.1224,12.1737,12.2439,12.3254,12.411,12.4793,12.4793,12.4907,12.5021,12.5021,12.5021,12.5021,12.5021,12.5021,12.5021,12.5021,12.5021,12.5021,12.5021,12.5493,12.5948,12.5948,12.6691,12.7359,12.7577,13.0032,13.2138,13.234,13.5012,13.7171,13.7291,13.7452,13.7672,13.7833,13.7833,13.7833,13.7833,13.7833,13.7833,13.7833,13.7833,13.7833,13.7833,13.7833,13.7833,13.7833,13.8533,13.967,14.1119,15.0061,15.4684,15.4684,16.3087,16.7166,16.7166,16.7166,16.7166,9.1616,9.3016,9.3775,9.4814,9.508,9.508,9.5187,9.5863,9.6691,9.777,9.9204,10.0827,10.2497,10.4823,10.6797,10.7746,11.0594,11.3251,11.4862,11.509,11.509,11.509,11.509,11.509,11.509,11.5204,11.5546,11.6196,11.7107,11.7959,11.8719,11.9516,11.9971,11.9971,11.9971,11.9971,11.9971,11.9971,11.9971,11.9971,11.9971,11.9971,11.9971,11.9971,11.9971,11.9971,11.9971,11.9971,11.9971,11.9971,11.9971,11.9971,11.9971,11.9991,12.0256,12.0996,12.1395,12.1623,12.2381,12.3254,12.3996,12.3996,12.4451,12.5021,12.5021,12.5021,12.5021,12.5021,12.5021,12.5021,12.5021,12.5021,12.5021,12.5021,12.5076,12.5151,12.5151,12.5818,12.6702,12.7758,12.9064,13.0263,13.136,13.2948,13.4257,13.4913,13.599,13.6947,13.7712,13.7833,13.7833,13.7833,13.7833,13.7833,13.7833,13.7833,13.7833,13.7833,13.7833,13.7833,13.7833,14.185,14.7963,15.6269,16.2045,16.4893,16.4893,16.6459,16.7166,16.7166,16.7166,16.7166,9.1839,9.3092,9.3927,9.4807,9.508,9.508,9.508,9.5635,9.6463,9.7382,9.8825,10.0448,10.2165,10.4178,10.6038,10.7291,10.9569,11.1786,11.3472,11.4466,11.509,11.509,11.509,11.509,11.509,11.509,11.5204,11.5605,11.631,11.7162,11.7979,11.8832,11.9516,11.9915,11.9971,11.9971,11.9971,11.9971,11.9971,11.9971,11.9971,11.9971,11.9971,11.9971,11.9971,11.9971,11.9971,11.9971,11.9971,11.9971,11.9971,11.9971,11.9971,11.9971,11.9971,12.0427,12.0541,12.0655,12.1528,12.2097,12.2611,12.3523,12.4092,12.4451,12.4848,12.4679,12.4337,12.4337,12.4679,12.5021,12.5021,12.5021,12.5021,12.5021,12.5021,12.5021,12.5021,12.5265,12.5747,12.6301,12.7685,12.8917,12.953,13.109,13.2414,13.2827,13.3939,13.4912,13.5331,13.6409,13.7109,13.7109,13.7491,13.7833,13.7833,13.735,13.725,13.7733,13.7833,13.7833,13.7833,14.0028,14.333,14.7832,15.5353,15.918,15.918,16.4558,16.7166,16.7166,16.7166,16.7166,9.23,0.0,9.4199,9.489,9.508,9.508,0.0,9.5529,9.6281,9.7352,9.8521,9.9992,10.209,10.3722,10.5317,10.7215,10.8923,11.0646,11.2279,11.3821,11.4808,11.5036,11.509,11.509,11.509,11.509,11.509,11.509,11.5795,11.6479,11.7107,11.8187,11.906,11.963,11.963,11.9744,11.9971,11.9971,11.9971,11.9971,11.9971,11.9971,11.9971,11.9971,11.9971,11.9971,11.9971,11.9971,11.9971,11.9971,11.9971,11.9971,11.9971,11.9971,11.9971,11.9971,11.9971,12.0029,12.0712,12.0997,12.1224,12.2725,12.335,12.3636,12.4224,12.3996,12.3523,12.3523,12.3978,12.4451,12.4679,12.4679,12.4734,12.4962,12.5021,12.5021,12.5021,12.5021,12.5021,12.5021,12.6284,12.7357,12.7357,12.9023,13.0419,13.0594,13.2,13.3105,13.3344,13.4989,13.6142,13.6142,13.6746,13.725,13.7471,13.6646,13.6405,13.7168,13.7189,13.725,13.7471,13.7531,13.8151,13.9531,14.69,15.1282,15.2416,15.9961,16.4283,16.544,16.544,16.6083,0.0,9.4275,9.4966,9.5042,9.508,9.508,9.508,9.5118,0.0,9.7238,9.7694,9.8673,10.1862,10.3239,10.4683,10.7101,10.8923,11.0646,11.2279,11.3305,11.4125,11.4976,11.509,11.509,11.509,11.509,11.509,11.509,11.5795,11.6251,11.631,11.7845,11.8813,11.8832,11.8832,11.9174,11.9971,11.9971,11.9971,11.9971,11.9971,11.9971,11.9971,11.9971,11.9971,11.9971,11.9971,11.9971,11.9971,11.9971,11.9971,11.9971,11.9971,11.9971,11.9971,11.9971,11.9971,11.9971,11.9991,12.0029,12.0199,12.1168,12.1984,12.2571,12.2609,12.2609,12.2571,12.2571,12.2609,12.2799,12.3692,12.3882,12.411,12.4793,12.5021,12.5021,12.5021,12.5021,12.5021,12.5021,12.5118,12.5177,12.5177,12.6336,12.7527,12.824,13.0465,13.2391,13.3225,13.4449,13.5198,13.5198,13.5257,13.5619,13.6505,13.574,13.5198,13.5318,13.5318,13.5681,13.6505,13.6526,13.9128,14.4542,14.5364,14.7963,15.2371,15.3114,15.5817,16.0286,16.0286,16.2764,9.2726,9.3943,9.508,9.508,9.508,9.508,9.508,9.508,9.5536,9.7238,9.758,9.8605,10.1862,10.2735,10.395,10.7025,10.805,10.9189,11.1391,11.2454,11.3305,11.4125,11.4694,11.509,11.509,11.509,11.509,11.509,11.5378,11.5719,11.6196,11.682,11.7162,11.7162,11.8243,11.8927,11.9174,11.9687,11.9971,11.9971,11.9971,11.9971,11.9971,11.9971,11.9971,11.9971,11.9971,11.9971,0.0,11.9971,11.9971,11.9971,11.9971,11.9971,11.9971,11.9971,11.9971,11.9971,11.9971,11.9971,11.9971,12.0313,12.1054,12.1756,12.1756,12.1338,12.1015,12.1566,12.2097,12.2513,12.2895,12.3009,12.3026,12.3368,12.3426,12.3596,12.411,12.4261,12.4393,12.4907,12.5021,12.5021,12.5021,12.5375,12.5843,12.6072,12.7683,12.925,13.0288,13.2016,13.3451,13.4155,13.4737,13.5015,13.4795,13.4474,13.4495,13.5077,13.5077,13.5257,13.5619,13.5581,13.6649,13.8858,13.8899,14.1336,14.623,14.623,14.8771,15.3601,15.3601,15.6487,9.3285,9.4088,9.508,9.508,9.508,9.508,9.508,9.5225,9.5833,9.7276,9.7808,9.8787,10.1558,10.2279,10.338,10.6216,10.7177,10.8278,11.0518,11.1824,11.2849,11.3615,11.4526,11.509,11.509,11.509,11.509,11.509,11.509,11.5318,11.5833,11.6082,11.6251,11.6251,11.739,11.8073,11.8357,11.9174,11.9573,11.9573,11.9801,11.9971,11.9971,11.9971,11.9971,11.9971,11.9971,11.9971,11.9971,11.9971,11.9971,11.9971,11.9971,11.9971,11.9971,11.9971,11.9971,11.9971,11.9971,11.9971,11.9971,11.9971,12.037,12.0883,12.0883,12.0427,12.0085,12.0712,12.1281,12.1698,12.204,12.2097,12.2154,12.2439,12.2457,12.2667,12.3236,12.3368,12.3578,12.411,12.4451,12.462,12.462,12.4793,12.5021,12.5021,12.6082,12.7219,12.8001,13.0129,13.187,13.2648,13.3676,13.4049,13.3409,13.3351,13.3629,13.4291,13.4291,13.4411,13.4616,13.4675,13.4836,13.5077,13.5077,13.68,14.0158,14.0158,14.1866,14.5204,14.6795,15.049,9.4807,9.508,9.508,9.508,9.508,9.508,9.508,9.5635,9.6463,9.7382,9.8179,9.928,10.0998,10.19,10.3039,10.4698,10.6367,10.8088,10.9759,11.1482,11.2796,11.3615,11.452,11.5036,11.509,11.509,11.509,11.509,11.509,11.509,11.509,11.5833,11.6196,11.6196,11.6251,11.6651,11.7355,11.8301,11.8756,11.8756,11.9516,11.9971,11.9971,11.9971,11.9971,11.9971,11.9971,11.9971,11.9971,11.9971,11.9971,11.9971,11.9971,11.9971,11.9971,11.9971,11.9971,11.9971,11.9971,11.9971,11.9971,11.9971,11.9971,11.9971,11.9971,11.9971,11.9971,11.9971,11.9971,12.0142,12.1054,12.1281,12.1509,12.2267,12.2457,12.2457,12.2457,12.2457,12.2457,12.2457,12.3236,12.3806,12.3806,12.4451,12.4962,12.4962,12.6065,12.6926,12.6964,12.9092,13.0625,13.0625,13.1807,13.2502,13.2542,13.26,13.26,13.26,13.26,13.2904,13.3713,13.3713,13.4133,13.5077,13.5077,13.5077,13.5077,13.5077,13.5077,13.5173,14.0132,14.5047,9.4061,9.4496,9.508,9.508,9.508,9.508,9.508,9.5635,9.6463,9.7382,9.8179,9.928,10.0998,10.19,10.3039,10.4698,10.6367,10.786,10.891,11.0556,11.1885,11.2796,11.3647,11.4352,11.5014,11.509,11.509,11.509,11.509,11.509,11.509,11.5264,11.5432,11.5432,11.5947,11.6365,11.6592,11.741,11.8093,11.8756,11.904,11.9402,11.9971,11.9971,11.9971,11.9971,11.9971,11.9971,11.9971,11.9971,11.9971,11.9971,11.9971,11.9971,11.9971,11.9971,11.9971,11.9971,11.9971,11.9971,11.9971,11.9971,11.9971,11.9971,11.9971,11.9971,11.9971,11.9971,11.9971,11.9991,12.0256,12.0313,12.0427,12.0655,12.0674,12.0883,12.1509,12.1642,12.1794,12.2381,12.2685,12.2895,12.2895,12.3026,12.3464,12.4092,12.4499,12.5569,12.7845,12.88,12.9985,13.1807,13.0918,13.051,13.1108,13.2057,13.26,13.26,13.26,13.2663,13.2904,13.2904,13.3025,13.3325,13.3325,13.3325,13.3325,13.3325,13.3325,13.3325,13.4833,13.6269,9.4271,9.4586,9.508,9.508,9.508,9.508,9.508,9.5635,9.6463,9.7382,9.8179,9.9166,10.0495,10.1672,10.2811,10.3787,10.5912,10.762,10.8113,10.9897,11.1391,11.1976,11.2735,11.3593,11.4466,11.4526,11.4694,11.5036,11.509,11.509,11.509,11.509,11.509,11.509,11.5546,11.574,11.574,11.6537,11.722,11.7731,11.8073,11.8699,11.9459,11.9459,11.963,11.9971,11.9971,11.9971,11.9971,11.9971,11.9971,11.9971,11.9971,11.9971,11.9971,11.9971,11.9971,11.9971,11.9971,11.9971,11.9971,11.9971,11.9516,11.8946,11.8946,11.8946,11.8946,11.8946,11.9174,11.9459,11.9459,11.9687,11.9971,11.9971,11.9971,12.0085,12.0655,12.0769,12.0883,12.1357,12.1756,12.1984,12.1984,12.2267,12.2627,12.3236,12.3254,12.4009,12.5963,12.6622,12.7668,12.9609,12.9182,12.9055,12.9553,13.0784,13.1513,13.1513,13.1513,13.1513,13.1513,13.1037,13.1037,13.1513,13.1037,13.1037,13.1513,13.1513,13.1513,13.1513,13.1513,13.1513,9.4862,9.4945,9.4945,9.5035,9.508,9.508,9.508,9.5635,9.6463,9.7382,9.8179,9.8968,9.9764,10.1282,10.2469,10.2469,10.5241,10.7405,10.7405,10.9403,11.1011,11.1087,11.1847,11.2735,11.3555,11.3675,11.4071,11.4862,11.5036,11.5036,11.4976,11.5036,11.509,11.509,11.509,11.509,11.509,11.574,11.6175,11.6251,11.6993,11.7752,11.8643,11.8643,11.9004,11.9687,11.9801,11.9801,11.9857,11.9915,11.9915,11.9801,11.9801,11.9801,11.9687,11.9687,11.9687,11.9687,11.9687,11.9687,11.9687,11.9687,11.8662,11.741,11.741,11.741,11.741,11.741,11.7979,11.8643,11.8643,11.9174,11.9687,11.9687,11.9744,11.9801,11.9801,11.9877,11.9971,11.9971,12.0598,12.1168,12.1168,12.1756,12.2267,12.2343,12.2343,12.2439,12.2593,12.3671,12.4593,12.5152,12.6667,12.7698,12.776,12.8881,12.9506,12.9506,12.9506,12.9506,12.9506,12.8597,12.8597,12.966,12.8728,12.8785,12.9846,12.9846,12.9846,12.9846,12.9846,12.9846,9.3641,9.3821,9.4001,9.4855,9.508,9.508,9.508,9.5635,9.6463,9.7382,9.8179,9.8968,9.9764,10.1282,10.2469,10.2469,10.4785,10.657,10.657,10.8126,10.9441,11.0176,11.0974,11.1809,11.2682,11.3365,11.3789,11.3957,11.4694,11.4786,11.4071,11.4694,11.509,11.509,11.509,11.509,11.509,11.5264,11.566,11.6251,11.6424,11.6934,11.7731,11.7731,11.779,11.7979,11.8719,11.904,11.906,11.9687,11.9573,11.904,11.904,11.8549,11.7979,11.7979,11.7979,11.7979,11.7979,11.7979,11.7979,11.7979,11.7696,11.741,11.741,11.741,11.741,11.741,11.7524,11.7731,11.7731,11.781,11.7979,11.7979,11.8491,11.904,11.904,11.9516,11.9971,11.9971,12.0085,12.0199,12.0199,12.0332,12.0674,12.1414,12.1528,12.2101,12.3767,12.4228,12.3844,12.2349,12.3342,12.4392,12.5147,12.6275,12.6944,12.6944,12.6944,12.6944,12.6944,12.7664,12.8256,12.8444,12.9125,12.9563,12.9846,12.9846,12.9846,12.9846,12.9846,12.9846,9.316,9.346,9.3731,9.481,9.508,9.508,9.508,9.5377,9.5901,9.6736,9.761,9.8445,9.9195,10.0761,10.2014,10.2393,10.4292,10.581,10.6278,10.7367,10.8417,10.9265,10.9707,11.0518,11.1733,11.2249,11.2682,11.3138,11.3989,11.4011,11.3213,11.3957,11.4634,11.5036,11.509,11.509,11.509,11.509,11.5264,11.5681,11.5681,11.6082,11.6879,11.6879,11.7069,11.741,11.7903,11.8093,11.8187,11.8549,11.8491,11.8093,11.8093,11.7845,11.741,11.741,11.741,11.741,11.741,11.741,11.7296,11.6537,11.6289,11.6289,11.6289,11.6289,11.6289,11.6289,11.6537,11.6879,11.6879,11.7162,11.741,11.741,11.7752,11.8093,11.8093,11.8435,11.8719,11.8719,11.906,11.9345,11.9345,11.9687,12.0085,12.0598,12.0655,12.1016,12.212,12.1928,12.1433,12.0712,12.1736,12.2685,12.3147,12.4267,12.4927,12.4927,12.4518,12.4284,12.4284,12.4022,12.4163,12.4706,12.4801,12.5321,12.6477,12.6477,12.6996,12.7915,12.7915,12.8156,9.238,9.3099,9.3506,9.4541,9.4945,9.508,9.508,9.508,9.5263,9.6046,9.6812,9.7656,9.8597,10.0001,10.1292,10.2128,10.3684,10.5051,10.5784,10.6683,10.7557,10.8189,10.8379,10.9062,11.058,11.0898,11.1353,11.2241,11.291,11.3024,11.237,11.3046,11.3897,11.4808,11.4808,11.4922,11.509,11.509,11.509,11.509,11.509,11.5378,11.6061,11.6061,11.6403,11.7048,11.7127,11.722,11.722,11.7334,11.7334,11.722,11.722,11.7107,11.6993,11.6993,11.6993,11.6993,11.6993,11.6993,11.6765,11.5491,11.509,11.509,11.509,11.509,11.509,11.509,11.5546,11.6061,11.6061,11.6537,11.6993,11.6993,11.6993,11.7013,11.7182,11.722,11.7276,11.7355,11.7979,11.8529,11.8529,11.906,11.9516,11.9516,11.9516,11.9573,11.9744,11.9004,11.8813,11.9459,12.0438,12.1114,12.1114,12.1974,12.2495,12.2495,12.1834,12.1445,12.1445,12.0081,11.9827,12.0763,12.0245,12.0818,12.2557,12.294,12.39,12.5252,12.5431,12.5943,8.9806,9.1651,9.2549,9.346,9.4406,9.508,9.508,9.508,9.5263,9.6046,9.6311,9.688,9.8483,9.9461,10.0372,10.1254,10.2859,10.3999,10.4113,10.548,10.6544,10.6607,10.7253,10.7961,10.891,10.9721,11.048,11.1315,11.1467,11.1505,11.1391,11.2241,11.3077,11.3843,11.3897,11.4298,11.509,11.509,11.509,11.509,11.509,11.515,11.5204,11.5204,11.5264,11.5432,11.6082,11.6403,11.6424,11.7162,11.6993,11.6403,11.6403,11.5968,11.5378,11.5378,11.5378,11.5378,11.5378,11.5378,11.5378,11.515,11.509,11.509,11.509,11.509,11.509,11.509,11.515,11.5204,11.5204,11.5318,11.5378,11.5378,11.5378,11.5567,11.6251,11.6403,11.6592,11.7241,11.7524,11.7618,11.7618,11.7676,11.7752,11.7752,11.7752,11.8073,11.8832,11.8187,11.7638,11.7752,11.7901,11.803,11.803,11.8179,11.8214,11.8214,11.812,11.8044,11.8044,11.8888,11.9402,11.9584,12.1422,12.2025,12.1328,12.3391,12.3962,12.3248,12.426,12.4831,9.0454,9.1495,9.192,9.3888,9.4721,9.508,9.508,9.508,9.5156,9.5491,9.5894,9.6463,9.7184,9.836,9.9499,10.0381,10.1606,10.2556,10.3011,10.4113,10.5101,10.5506,10.6304,10.7139,10.7923,10.8758,10.9365,10.9745,10.9783,10.9783,10.9783,11.1049,11.1923,11.2287,11.2796,11.3251,11.3647,11.4071,11.458,11.509,11.509,11.509,11.509,11.509,11.509,11.509,11.5432,11.5605,11.5605,11.5947,11.5854,11.5605,11.5605,11.5378,11.509,11.509,11.509,11.509,11.509,11.509,11.509,11.509,11.509,11.509,11.509,11.509,11.509,11.509,11.509,11.509,11.509,11.509,11.509,11.509,11.509,11.515,11.5546,11.5605,11.5719,11.6023,11.6424,11.6765,11.6765,11.7107,11.741,11.741,11.741,11.7355,11.7334,11.6993,11.6934,11.7355,11.741,11.741,11.741,11.741,11.741,11.741,11.6993,11.6765,11.6765,11.6876,11.6975,11.6975,11.7958,11.8558,11.8589,11.9621,12.0803,12.2077,12.262,12.351,8.9265,8.9718,9.0035,9.3482,9.4335,9.4463,9.4959,9.508,9.508,9.508,9.5529,9.597,9.6197,9.726,9.8407,9.9157,10.0229,10.114,10.1748,10.2735,10.3695,10.4242,10.5127,10.6012,10.6797,10.7582,10.8037,10.8037,10.8227,10.8379,10.8379,10.9745,11.0618,11.0898,11.1748,11.2317,11.2545,11.3138,11.3729,11.4444,11.4634,11.4694,11.4748,11.4976,11.509,11.509,11.509,11.509,11.509,11.509,11.509,11.509,11.509,11.509,11.509,11.509,11.509,11.509,11.509,11.509,11.509,11.509,11.509,11.509,11.509,11.509,11.509,11.509,11.509,11.509,11.509,11.509,11.509,11.509,11.509,11.509,11.509,11.509,11.509,11.509,11.5546,11.5947,11.5947,11.6424,11.682,11.682,11.682,11.6592,11.6023,11.5947,11.6175,11.6765,11.682,11.682,11.682,11.682,11.682,11.682,11.6251,11.5947,11.5947,11.5378,11.509,11.509,11.5362,11.5719,11.6245,11.6801,11.8152,12.0246,12.0895,12.1994,8.3419,8.4388,8.5649,9.1114,9.2488,9.2898,9.4666,9.508,9.508,9.508,9.508,9.5339,9.6084,9.6311,9.6615,9.758,9.9014,9.9992,10.003,10.1434,10.2545,10.2583,10.3391,10.4227,10.5001,10.5924,10.6468,10.6468,10.7139,10.7557,10.7557,10.8341,10.9176,11.0076,11.086,11.1657,11.2545,11.2598,11.2621,11.2712,11.3388,11.3789,11.3843,11.4694,11.509,11.509,11.509,11.509,11.509,11.509,11.509,11.509,11.509,11.509,11.509,11.509,11.509,11.509,11.509,11.509,11.509,11.509,11.509,11.509,11.509,11.509,11.509,11.509,11.509,11.509,11.509,11.509,11.509,11.509,11.509,11.509,11.509,11.509,11.509,11.509,11.509,11.515,11.515,11.515,11.5204,11.5204,11.5204,11.515,11.515,11.515,11.515,11.5204,11.5204,11.5204,11.5204,11.5204,11.5204,11.5204,11.515,11.515,11.515,11.509,11.509,11.509,11.6044,11.6098,11.5182,11.7272,11.7772,11.6948,11.9126,12.0238,7.9577,7.9597,8.0321,8.5939,8.7575,8.863,9.1824,9.3376,9.4199,9.4199,9.4655,9.5111,9.5415,9.5901,9.6311,9.6615,9.7686,9.8597,9.9081,10.0106,10.1064,10.1596,10.2393,10.3315,10.4151,10.3988,10.4064,10.4645,10.5431,10.6152,10.6683,10.7519,10.8088,10.8392,10.9138,10.9707,11.0062,11.1125,11.1657,11.1657,11.2568,11.2963,11.2963,11.3305,11.3419,11.3419,11.3419,11.3761,11.4185,11.4185,11.458,11.509,11.509,11.509,11.509,11.509,11.509,11.4922,11.3821,11.3419,11.3419,11.3419,11.3419,11.3419,11.3419,11.3419,11.3419,11.3419,11.3821,11.4185,11.4185,11.4634,11.509,11.509,11.509,11.509,11.509,11.509,11.509,11.509,11.509,11.509,11.509,11.509,11.509,11.509,11.509,11.509,11.509,11.509,11.509,11.509,11.509,11.509,11.509,11.509,11.509,11.509,11.509,11.509,11.509,11.509,11.509,11.509,11.4883,11.4594,11.4185,11.5009,11.5562,11.5937,11.7246,11.8686,7.4883,7.4245,7.4874,8.1746,8.2692,8.3564,8.9436,9.0914,9.1494,9.3023,9.3965,9.4579,9.4579,9.5256,9.5825,9.5825,9.6547,9.7306,9.7791,9.8635,9.947,10.0305,10.114,10.1976,10.2859,10.2128,10.209,10.3277,10.3836,10.4519,10.5442,10.6228,10.6797,10.7101,10.7847,10.8265,10.8265,10.9365,11.01,11.0352,11.0936,11.1558,11.2127,11.2393,11.2545,11.2545,11.2545,11.2849,11.3327,11.3327,11.3669,11.4217,11.4217,11.4217,11.4217,11.4217,11.4217,11.4103,11.2963,11.2545,11.2545,11.2545,11.2545,11.2545,11.2545,11.2545,11.2545,11.2545,11.291,11.3327,11.3327,11.3783,11.4217,11.4217,11.4217,11.4217,11.4217,11.4217,11.4217,11.4217,11.4444,11.458,11.458,11.4862,11.509,11.509,11.509,11.4862,11.4331,11.4466,11.4694,11.5036,11.509,11.509,11.509,11.509,11.4922,11.4634,11.458,11.4466,11.4217,11.4217,11.4217,11.4217,11.3647,11.3327,11.3327,11.3327,11.374,11.4518,11.5415,11.6702,6.9079,6.818,6.9419,7.8502,7.7936,7.7672,8.7301,8.7587,8.7027,9.1352,9.2966,9.3623,9.3623,9.4389,9.5042,9.5042,9.5673,9.6197,9.6235,9.7002,9.7846,9.8635,9.9385,10.0182,10.1112,10.0419,10.0561,10.2241,10.2393,10.2811,10.3695,10.4481,10.5267,10.6202,10.6987,10.7443,10.7443,10.7481,10.7847,10.8644,10.8644,10.9479,11.1125,11.2014,11.2393,11.2393,11.2393,11.2484,11.2484,11.2507,11.2507,11.2545,11.2545,11.2545,11.2507,11.2431,11.2393,11.2393,11.2393,11.2393,11.2393,11.2393,11.2393,11.2431,11.2431,11.2484,11.2484,11.2484,11.2484,11.2507,11.2507,11.2507,11.2545,11.2545,11.2545,11.2545,11.2545,11.2545,11.2545,11.2545,11.3138,11.3675,11.3675,11.4412,11.4976,11.4976,11.4976,11.4444,11.2735,11.3213,11.4011,11.4922,11.4976,11.4976,11.4976,11.4976,11.4634,11.3729,11.3675,11.3365,11.2598,11.2545,11.2545,11.2545,11.2507,11.2507,11.2507,11.2507,11.2507,11.2507,11.3712,11.4241,6.2054,6.2084,6.336,6.8694,6.9474,7.0454,7.6392,8.0698,8.3677,8.4681,8.8617,9.1871,9.1871,9.3092,9.4041,9.4041,9.4807,9.5605,9.6159,9.6425,9.6926,9.7761,9.8065,9.8293,9.8567,9.89,9.9546,10.0523,10.1216,10.1938,10.2773,10.3039,10.3266,10.3494,10.4887,10.5646,10.5646,10.6861,10.7633,10.786,10.786,10.8037,10.8544,10.8772,10.8885,10.8923,10.9493,11.01,11.076,11.1315,11.1923,11.2545,11.2545,11.2545,11.2241,10.9759,10.8885,10.8885,10.8885,10.8885,10.8885,10.8885,10.9265,10.9707,10.9707,11.0176,11.0722,11.0722,11.114,11.1543,11.1543,11.2089,11.2545,11.2545,11.2545,11.2545,11.2545,11.2545,11.2545,11.2545,11.2735,11.2849,11.2849,11.3077,11.3244,11.3244,11.3244,11.3077,11.2621,11.2735,11.2963,11.3191,11.3244,11.3244,11.3244,11.3244,11.3168,11.2849,11.2849,11.2773,11.2545,11.2545,11.2545,11.2545,11.1938,11.1543,11.1543,11.1543,11.1543,11.1581,11.2559,11.35,5.8995,5.91,6.0194,6.3578,6.4171,6.5416,7.0986,7.4241,7.6881,8.0024,8.4056,8.7437,8.8874,9.1048,9.263,9.263,9.3661,9.4655,9.5097,9.5522,9.6053,9.6888,9.6744,9.6668,9.6964,9.7458,9.8019,9.89,9.9432,10.0191,10.1368,10.1358,10.17,10.2431,10.337,10.3901,10.3901,10.4899,10.5772,10.6405,10.6405,10.6835,10.7519,10.7519,10.7519,10.7519,10.7961,10.8455,10.8999,10.9455,10.9948,11.0456,11.0456,11.0456,11.019,10.786,10.7215,10.7519,10.7519,10.7519,10.7519,10.7519,10.7771,10.8151,10.8151,10.8582,10.8961,10.8961,10.9303,10.9683,10.9683,11.029,11.0898,11.0898,11.1163,11.1482,11.1482,11.1482,11.1482,11.1482,11.1748,11.2014,11.2014,11.2279,11.2279,11.1596,11.1482,11.1482,11.1482,11.1786,11.2014,11.2014,11.2317,11.2545,11.2545,11.2545,11.2393,11.2014,11.2014,11.1862,11.1482,11.114,11.0898,11.0898,11.01,10.9683,10.9683,10.9683,10.9683,10.9683,11.0176,11.063,5.8256,5.7939,5.8581,6.1218,6.0864,6.1676,0.0,6.8257,6.8951,7.6316,7.9493,8.2051,8.5517,8.838,9.0336,9.0913,9.2059,9.303,9.3617,9.4389,9.5149,9.5856,9.5339,9.5225,9.6008,9.6159,9.6539,9.739,9.7542,9.8179,9.9575,9.9651,10.0372,10.2014,10.2128,10.2241,10.2317,10.2431,10.318,10.4698,10.4698,10.5457,10.6949,10.6949,10.6949,10.6949,10.6949,10.6987,10.7101,10.7177,10.7215,10.7215,10.7215,10.705,10.6873,10.6114,10.6304,10.6949,10.6949,10.6949,10.6949,10.6949,10.6987,10.7101,10.7101,10.7215,10.7367,10.7367,10.7443,10.7519,10.7519,10.7999,10.853,10.853,10.9151,10.9721,10.9721,10.9721,10.9721,10.9721,11.0366,11.0883,11.0883,11.1657,11.1672,11.0038,10.9721,10.9721,10.9721,11.0366,11.0784,11.0784,11.1543,11.2127,11.2127,11.2127,11.1786,11.0921,11.0807,11.048,10.9759,10.8948,10.853,10.853,10.7809,10.7481,10.7367,10.7367,10.7329,10.7253,10.7329,10.6835,0.0,0.0,0.0,0.0,0.0,0.0,0.0,6.3391,6.6923,7.1374,7.5954,8.0444,8.4461,8.4553,8.5333,8.9548,8.8636,8.8918,9.3112,9.3851,9.4003,9.4148,9.4041,9.4351,9.5187,9.5863,9.6311,9.6463,9.7154,9.7732,9.7989,9.8027,9.8445,9.9432,10.0068,10.0751,10.1482,10.2128,10.2573,10.2914,10.2914,10.3066,10.3456,10.3456,10.3456,10.3456,10.3456,10.3836,10.4569,10.5203,10.5457,10.5457,10.5457,10.4622,10.3418,10.3266,10.3304,10.3456,10.3456,10.3456,10.3456,10.3456,10.3912,10.4493,10.4493,10.548,10.6582,10.6582,10.6987,10.7519,10.7519,10.7633,10.7746,10.7746,10.786,10.7974,10.7974,10.7974,10.7974,10.7974,10.8606,10.9176,10.9176,10.991,10.9962,10.824,10.7974,10.7974,10.7974,10.8126,10.824,10.824,10.891,10.9403,10.9403,10.9403,10.9327,10.9176,10.853,10.8164,10.8012,10.7822,10.7746,10.7746,10.7595,10.7177,10.6582,10.6582,10.619,10.5457,10.6228,10.5317,0.0,0.0,0.0,0.0,0.0,0.0,0.0,0.0,0.0,0.0,0.0,7.4526,7.6614,0.0,8.2691,8.1776,8.451,8.7098,8.8288,9.0746,9.2403,9.2403,9.2826,9.3433,9.4313,9.4724,9.518,9.5597,9.606,9.6478,9.6888,9.6888,9.7306,9.8141,9.8559,9.8976,9.9441,9.9812,10.0419,10.1169,10.1169,10.1624,10.2469,10.2469,10.2469,10.2469,10.2469,10.2697,10.3163,10.357,10.3711,10.3521,10.1938,10.1027,10.0609,10.0609,10.0875,10.1169,10.1169,10.1482,10.1862,10.1862,10.248,10.3125,10.3125,10.3684,10.4368,10.4368,10.4671,10.5089,10.5506,10.5924,10.638,10.6797,10.7215,10.7519,10.7519,10.7519,10.7519,10.7519,10.7771,10.8075,10.8075,10.8468,10.8468,10.7633,10.7519,10.7519,10.7519,10.7519,10.7519,10.7519,10.7809,10.8075,10.8075,10.8075,10.8075,10.8075,10.7746,10.7519,10.7519,10.6671,10.6216,10.6216,10.5431,10.4785,10.4368,10.4368,10.414,10.3673,10.2925,10.1824,0.0,0.0,0.0,0.0,0.0,0.0,0.0,0.0,0.0,0.0,0.0,0.0,0.0,0.0,0.0,7.496,8.0185,8.4523,8.4101,8.6143,8.8091,8.9112,9.0265,9.1596,9.3042,9.3357,9.3813,9.4693,9.4769,9.5149,9.5932,9.597,9.6395,9.7314,9.7306,9.7428,9.758,9.758,9.8217,9.9461,9.9461,0.0,10.152,10.152,10.152,10.152,10.152,10.152,10.152,10.152,10.152,10.1254,9.8643,9.7998,9.8521,9.8521,9.8938,9.9461,9.9461,9.9963,10.058,10.058,10.0951,10.152,10.152,10.1634,0.0,10.1938,10.2041,10.2431,10.3315,10.3988,10.466,10.5393,10.6038,10.657,10.6721,10.6759,10.6835,10.6987,10.7177,10.7291,10.7291,10.6873,10.6532,10.6532,10.6683,10.6759,10.6759,10.6911,10.7025,10.7025,10.7177,10.7291,10.7291,10.7405,10.7443,10.7291,10.7101,10.6873,10.6532,10.5191,10.4394,10.4242,10.2925,10.2052,10.1748,10.1748,10.1672,10.1444,9.928,9.8255,0.0,0.0,0.0,0.0,0.0,0.0,0.0,0.0,0.0,0.0,0.0,0.0,0.0,0.0,0.0,0.0,7.6296,7.7693,8.5815,8.0223,7.7075,8.1824,8.4301,8.7162,9.1076,9.2181,9.3022,9.3775,9.3851,9.4231,9.5111,9.5187,0.0,0.0,0.0,9.6774,9.758,9.758,9.7694,9.7846,9.7846,9.796,9.815,9.815,9.815,9.815,9.815,9.815,9.815,9.815,9.815,9.8112,9.7732,9.7656,9.7732,9.7732,9.777,9.7846,9.7846,0.0,0.0,9.7998,9.8074,9.815,9.815,9.8597,9.9318,9.9992,10.0799,10.1558,10.2393,10.2659,10.2773,10.2849,10.2963,10.3229,10.4037,10.4189,10.4417,10.5115,10.5924,10.6468,10.6468,10.4557,10.3039,10.3039,10.3733,10.4189,10.4189,10.4823,10.5267,10.5267,10.5962,0.0,10.6468,10.7101,10.7215,10.6494,10.5734,10.4584,10.3077,10.2849,10.2393,10.1672,10.153,10.0647,9.9166,9.9166,9.8787,9.8112,9.704,9.6501,0.0,0.0,0.0,0.0,0.0,0.0,0.0,0.0,0.0,0.0,0.0,0.0,0.0,0.0,0.0,0.0,6.8576,7.2199,7.6183,7.4006,7.2869,7.5118,7.696,7.9161,8.1981,8.4293,8.6636,8.9006,9.0646,9.2111,9.3516,9.3553,9.3971,9.4717,9.4717,9.518,9.6098,9.6098,9.6364,9.6812,9.6812,9.7078,9.758,9.758,9.758,9.758,9.758,9.758,9.758,9.758,9.758,9.7504,0.0,0.0,0.0,0.0,9.6098,9.6098,9.6098,9.644,9.6812,9.6812,9.7154,9.758,9.758,9.7846,9.8141,9.8445,9.8825,9.9327,10.0077,10.0599,10.1093,10.1634,10.2128,10.2545,10.2925,10.3001,10.3077,10.3407,10.3798,0.0,10.4064,10.3153,10.2469,10.2469,10.2773,10.3001,10.3001,10.3304,10.3483,10.3483,10.3836,10.4064,10.4064,10.4368,0.0,0.0,0.0,10.3142,10.2507,10.2014,0.0,0.0,0.0,9.8795,9.8065,9.7572,0.0,0.0,9.2143,9.2061,0.0,0.0,0.0,0.0,0.0,0.0,0.0,0.0,0.0,0.0,0.0,0.0,0.0,0.0,0.0,0.0,6.2941,6.6572,6.5213,6.6378,6.7819,6.9046,7.0362,7.2182,7.468,7.7025,7.9633,8.2631,8.5789,8.8358,9.0042,9.1399,9.2408,9.2972,9.3244,9.3705,9.4358,9.4541,9.4952,9.5514,9.5742,9.6243,9.6896,9.6896,9.6896,9.6896,9.6896,9.6896,9.6896,9.6896,9.6896,9.6706,9.4997,9.4351,9.4351,9.4351,9.4351,9.4351,9.4351,9.4686,9.5211,9.5211,9.5635,9.6212,9.6212,9.6364,9.6592,9.682,9.7048,9.7382,9.8217,9.8862,9.947,10.0125,10.0685,10.1178,10.1406,10.1548,10.1814,10.209,10.1558,10.1102,10.1102,10.1102,10.1102,10.1102,10.1292,10.152,10.17,10.1976,10.2203,10.2431,10.2469,10.2469,10.2469,10.2469,10.2469,10.2469,10.2014,10.1738,10.1738,10.0761,9.9707,9.8445,9.7428,9.6554,0.0,0.0,0.0,0.0,0.0,0.0,0.0,0.0,0.0,0.0,0.0,0.0,0.0,0.0,0.0,0.0,0.0,0.0,0.0,0.0,0.0,0.0,0.0,0.0,5.5548,5.6553,5.9365,6.3664,6.5214,6.7715,7.2146,7.2561,7.328,7.5046,7.9118,8.2248,8.3962,8.8608,9.1226,9.1264,9.2105,9.2604,9.2604,9.3357,9.3775,9.3813,9.4655,9.5118,9.5156,9.5156,9.5156,9.5156,9.5156,9.5156,9.5156,9.5156,9.5156,9.4966,9.325,9.2604,9.2604,9.2604,9.2604,9.2604,9.2604,9.2642,9.2642,9.2642,9.268,9.268,9.268,9.3206,9.4003,9.4845,9.5673,9.6463,9.739,9.7656,9.7656,9.7694,9.7732,9.796,9.8711,9.9461,10.0258,10.114,9.9365,9.7732,9.7732,9.7732,9.7732,9.7732,9.8369,0.0,9.9916,10.0761,10.1596,10.2355,10.2469,10.2469,10.2469,10.2469,10.2469,10.2469,10.0903,9.9992,9.9992,9.8521,9.7694,9.7618,9.5992,9.3895,9.1378,0.0,0.0,0.0,0.0,0.0,0.0,0.0,0.0,0.0,0.0,0.0,0.0,0.0,0.0,0.0,0.0,0.0,0.0,0.0,0.0,0.0,0.0,0.0,0.0,5.38,5.488,5.7343,5.8224,5.9841,6.3046,6.4746,6.6758,6.9464,7.4783,7.8354,7.9455,8.429,8.7338,8.7928,8.8735,8.9713,9.0814,9.1649,9.2023,9.2023,9.2902,9.3364,9.3364,9.3364,9.3364,9.3364,9.3364,9.3364,9.3364,9.3364,9.2718,9.1654,9.108,9.0852,9.0852,9.0852,9.0852,9.0852,9.0852,9.0852,9.0852,9.0852,9.0852,9.0852,9.0852,9.1042,9.1421,9.2256,9.2668,9.32,9.4648,9.5453,9.6022,9.6547,9.7116,9.7656,9.7875,9.8179,9.8445,9.8795,9.7238,9.606,9.6585,9.6698,9.6888,9.7504,9.7808,9.8065,9.8331,9.8597,9.9137,9.9926,10.0001,10.0001,10.0001,10.0001,9.9774,9.9242,9.8673,9.8369,9.8369,9.7306,9.6433,9.5908,9.4237,9.2414,9.0396,0.0,0.0,0.0,0.0,0.0,0.0,0.0,0.0,0.0,0.0,0.0,0.0,0.0,0.0,0.0,0.0,0.0,0.0,0.0,0.0,0.0,0.0,0.0,0.0,0.0,0.0,5.3416,5.3705,0.0,5.6716,5.826,6.0245,6.281,6.8095,7.2092,7.4271,7.9456,8.3018,8.4474,8.5835,8.6966,8.7815,8.8899,8.9557,8.986,9.0776,9.135,9.1654,9.1654,9.1654,9.1654,9.1654,9.1654,9.154,9.0363,8.9181,8.8194,8.8194,8.8194,8.8194,8.8194,8.8194,8.8194,8.8194,8.8194,8.8194,8.8194,8.8194,8.8194,8.8194,8.8422,8.8802,8.9291,8.986,9.0586,9.1687,9.2832,9.3775,9.43,9.5104,9.5795,9.5795,9.6022,9.5901,9.5073,9.4009,9.3516,9.4262,9.4414,9.4831,9.6015,9.6212,9.6395,9.7002,9.7078,9.742,9.8217,9.8331,9.8331,9.8331,9.8331,9.8103,9.7618,9.7268,9.701,9.6668,9.5522,9.4534,9.3705,9.1725,9.0206,0.0,0.0,0.0,0.0,0.0,0.0,0.0,0.0,0.0,0.0,0.0,0.0,0.0,0.0,0.0,0.0,0.0,0.0,0.0,0.0,0.0,0.0,0.0,0.0,0.0,0.0,0.0,5.173,5.1668,0.0,0.0,0.0,0.0,5.5531,5.9498,6.3777,6.8223,7.3987,7.8299,8.068,8.2932,8.3902,8.3611,8.5043,8.6196,8.6991,8.8069,8.8865,8.9454,8.9666,8.9751,8.9751,8.9751,8.9751,8.9485,8.6144,8.4777,8.4777,8.4701,8.4701,8.4701,8.4701,8.4701,8.4701,8.4701,8.4701,8.4701,8.4701,8.4701,8.4701,8.4701,8.5347,0.0,0.0,8.7324,8.8578,8.8692,8.9827,9.0961,9.1037,9.1725,9.2338,9.2414,9.2978,9.2788,9.0244,8.9751,9.0016,9.0771,0.0,9.1568,9.3282,9.3547,9.4148,9.5894,9.6084,9.6425,9.7428,9.7504,9.7504,9.7504,9.7504,9.7504,9.739,9.6585,9.5749,9.4928,9.3288,9.1953,9.0999,8.8608,0.0,0.0,0.0,0.0,0.0,0.0,0.0,0.0,0.0,0.0,0.0,0.0,0.0,0.0,0.0,0.0,0.0,0.0,0.0,0.0,0.0,0.0,0.0,0.0,0.0,0.0,4.7728,4.8463,5.0015,5.046,5.1376,0.0,0.0,0.0,0.0,0.0,0.0,6.0619,6.6442,7.0912,7.3385,7.274,7.516,8.0952,7.9165,7.8804,8.0002,8.3431,8.3867,8.1754,8.4832,8.6258,8.6258,8.6258,8.6258,8.603,8.3335,8.2196,8.2158,8.1589,8.1323,8.1323,8.1323,8.1323,8.1323,8.1323,8.1323,8.1323,8.1323,8.1323,8.1323,8.1323,0.0,0.0,0.0,0.0,8.5349,8.66,8.7245,8.7852,8.9105,8.9603,8.9945,9.051,9.0814,9.0016,8.6865,8.6258,8.6524,8.7397,0.0,0.0,9.07,9.1416,9.2403,9.411,9.43,9.4952,9.6387,9.6539,9.6539,9.6539,9.6539,9.6053,9.4762,9.4496,9.3699,9.2213,9.1193,8.9941,8.8456,0.0,0.0,0.0,0.0,0.0,0.0,0.0,0.0,0.0,0.0,0.0,0.0,0.0,0.0,0.0,0.0,0.0,0.0,0.0,0.0,0.0,0.0,0.0,0.0,0.0,0.0,0.0,4.5023,4.6042,4.7622,4.836,4.9282,0.0,0.0,0.0,0.0,0.0,0.0,0.0,0.0,0.0,7.0826,6.9486,7.088,7.538,7.3941,7.3138,7.2969,7.707,7.8217,7.6819,8.0938,8.2993,8.3349,8.3349,8.2293,8.033,7.7282,7.7025,7.8512,0.0,0.0,0.0,0.0,7.7866,7.7866,7.7866,7.7866,7.7866,7.7866,0.0,0.0,0.0,0.0,0.0,0.0,0.0,8.1475,8.3146,8.4094,8.4967,8.6299,8.6906,8.7286,8.7701,8.6638,8.5121,8.3222,8.3069,8.36,8.4474,0.0,0.0,0.0,0.0,9.0278,9.2327,9.294,9.3661,9.4983,9.5484,9.5711,9.5711,9.537,9.4679,9.3775,9.2972,9.1833,9.0244,8.9029,8.7394,0.0,0.0,0.0,0.0,0.0,0.0,0.0,0.0,0.0,0.0,0.0,0.0,0.0,0.0,0.0,0.0,0.0,0.0,0.0,0.0,0.0,0.0,0.0,0.0,0.0,0.0,0.0,0.0,0.0,4.3327,4.498,0.0,0.0,0.0,0.0,0.0,0.0,0.0,0.0,0.0,0.0,0.0,0.0,0.0,6.7774,6.8189,6.8807,6.8128,6.6206,7.0035,7.1948,7.2327,7.6488,7.8949,7.9844,7.9549,0.0,7.4303,7.0981,0.0,0.0,0.0,0.0,0.0,0.0,0.0,0.0,0.0,0.0,0.0,0.0,0.0,0.0,0.0,0.0,0.0,0.0,0.0,0.0,0.0,0.0,8.1815,8.2766,8.3562,8.4056,8.3714,8.1437,7.9424,7.9424,7.9993,0.0,0.0,0.0,0.0,0.0,0.0,0.0,9.0543,9.1649,9.2604,9.3585,9.4389,9.489,9.489,9.4085,9.3433,9.3244,9.1606,8.9936,8.8388,8.6562,0.0,0.0,0.0,0.0,0.0,0.0,0.0,0.0,0.0,0.0,0.0,0.0,0.0,0.0,0.0,0.0,0.0,0.0,0.0,0.0,0.0,0.0,0.0,0.0,0.0,0.0,0.0,0.0,0.0,0.0,0.0,0.0,0.0,0.0,0.0,0.0,0.0,0.0,0.0,0.0,0.0,0.0,0.0,0.0,0.0,0.0,0.0,0.0,0.0,0.0,6.4419,6.4917,6.253,6.7342,7.0641,7.2473,7.0511,7.0609,7.208,7.1325,0.0,0.0,0.0,0.0,0.0,0.0,0.0,0.0,0.0,0.0,0.0,0.0,0.0,0.0,0.0,0.0,0.0,0.0,0.0,0.0,0.0,0.0,7.7526,7.8437,7.9272,7.9235,7.7221,0.0,0.0,0.0,0.0,0.0,0.0,0.0,0.0,0.0,0.0,0.0,8.892,8.9941,9.1269,9.3471,9.3851,9.3927,9.3927,9.3168,9.2148,9.0738,8.9025,8.7356,0.0,0.0,0.0,0.0,0.0,0.0,0.0,0.0,0.0,0.0,0.0,0.0,0.0,0.0,0.0,0.0,0.0,0.0,0.0,0.0,0.0,0.0,0.0,0.0,0.0,0.0,0.0,0.0,0.0,0.0,0.0,0.0,0.0,0.0,0.0,0.0,0.0,0.0,0.0,0.0,0.0,0.0,0.0,0.0,0.0,0.0,0.0,0.0,0.0,0.0,0.0,0.0,0.0,0.0,0.0,0.0,0.0,0.0,6.3565,6.398,0.0,0.0,0.0,0.0,0.0,0.0,0.0,0.0,0.0,0.0,0.0,0.0,0.0,0.0,0.0,0.0,0.0,0.0,0.0,0.0,0.0,0.0,0.0,0.0,0.0,0.0,0.0,0.0,0.0,0.0,0.0,0.0,0.0,0.0,0.0,0.0,0.0,0.0,0.0,0.0,8.6451,8.7928,8.9443,9.1573,9.256,9.2902,9.2403,9.1687,9.0472,8.876,8.709,0.0,0.0,0.0,0.0,0.0,0.0,0.0,0.0,0.0,0.0,0.0,0.0,0.0,0.0,0.0,0.0,0.0,0.0,0.0,0.0,0.0,0.0,0.0,0.0,0.0,0.0,0.0,0.0,0.0,0.0,0.0,0.0,0.0,0.0,0.0,0.0,0.0,0.0,0.0,0.0,0.0,0.0,0.0,0.0,0.0,0.0,0.0,0.0,0.0,0.0,0.0,0.0,0.0,0.0,0.0,0.0,0.0,0.0,0.0,5.8984,5.9514,0.0,0.0,0.0,0.0,0.0,0.0,0.0,0.0,0.0,0.0,0.0,0.0,0.0,0.0,0.0,0.0,0.0,0.0,0.0,0.0,0.0,0.0,0.0,0.0,0.0,0.0,0.0,0.0,0.0,0.0,0.0,0.0,0.0,0.0,0.0,0.0,0.0,0.0,0.0,0.0,8.4056,8.5876,8.7659,8.9561,9.108,9.1687,9.0961,9.0012,8.8722,8.7052,8.5043,0.0,0.0,0.0,0.0,0.0,0.0,0.0,0.0,0.0,0.0,0.0,0.0,0.0,0.0,0.0,0.0,0.0,0.0,0.0,0.0,0.0,0.0,0.0,0.0,0.0,0.0,0.0,0.0,0.0,0.0,0.0,0.0,0.0,0.0,0.0,0.0,0.0,0.0,0.0,0.0,0.0,0.0,0.0,0.0,0.0,0.0,0.0,0.0,0.0,0.0,0.0,0.0,0.0,0.0,0.0,0.0,0.0,0.0,0.0,0.0,0.0,0.0,0.0,0.0,0.0,0.0,0.0,0.0,0.0,0.0,0.0,0.0,0.0,0.0,0.0,0.0,0.0,0.0,0.0,0.0,0.0,0.0,0.0,0.0,0.0,0.0,0.0,0.0,0.0,0.0,0.0,0.0,0.0,0.0,0.0,0.0,0.0,0.0,0.0,0.0,0.0,8.2422,8.413,8.6144,8.8692,8.9713,9.0206,9.013,8.8608,8.6976,8.5309,0.0,0.0,0.0,0.0,0.0,0.0,0.0,0.0,0.0,0.0,0.0,0.0,0.0,0.0,0.0,0.0,0.0,0.0,0.0,0.0,0.0,0.0,0.0,0.0,0.0,0.0,0.0,0.0,0.0,0.0,0.0,0.0,0.0,0.0,0.0,0.0,0.0,0.0,0.0,0.0,0.0,0.0,0.0,0.0,0.0,0.0,0.0,0.0,0.0,0.0,0.0,0.0,0.0,0.0,0.0,0.0,0.0,0.0,0.0,0.0,0.0,0.0,0.0,0.0,0.0,0.0,0.0,0.0,0.0,0.0,0.0,0.0,0.0,0.0,0.0,0.0,0.0,0.0,0.0,0.0,0.0,0.0,0.0,0.0,0.0,0.0,0.0,0.0,0.0,0.0,0.0,0.0,0.0,0.0,0.0,0.0,0.0,0.0,0.0,0.0,0.0,0.0,8.0715,8.2879,8.4855,8.6334,8.7701,8.808,8.7055,8.6372,8.4853,8.2158,0.0,0.0,0.0,0.0,0.0,0.0,0.0,0.0,0.0,0.0,0.0,0.0,0.0,0.0,0.0,0.0,0.0,0.0,0.0,0.0,0.0,0.0,0.0,0.0,0.0,0.0,0.0,0.0,0.0,0.0,0.0,0.0,0.0,0.0,0.0,0.0,0.0,0.0,0.0,0.0,0.0,0.0,0.0,0.0,0.0,0.0,0.0,0.0,0.0,0.0,0.0,0.0,0.0,0.0,0.0,0.0,0.0,0.0,0.0,0.0,0.0,0.0,0.0,0.0,0.0,0.0,0.0,0.0,0.0,0.0,0.0,0.0,0.0,0.0,0.0,0.0,0.0,0.0,0.0,0.0,0.0,0.0,0.0,0.0,0.0,0.0,0.0,0.0,0.0,0.0,0.0,0.0,0.0,0.0,0.0,0.0,0.0,0.0,0.0,0.0,0.0,0.0,7.9386,8.1665,8.341,8.4474,8.5878,8.6217,8.5043,8.4739,8.3336,8.0259,0.0,0.0,0.0,0.0,0.0,0.0,0.0,0.0,0.0,0.0,0.0,0.0,0.0,0.0,0.0,0.0,0.0,0.0,0.0,0.0,0.0,0.0,0.0,0.0,0.0,0.0,0.0,0.0,0.0,0.0,0.0,0.0,0.0,0.0,0.0,0.0,0.0,0.0,0.0,0.0,0.0,0.0,0.0,0.0,0.0,0.0,0.0,0.0,0.0,0.0,0.0,0.0,0.0,0.0,0.0,0.0,0.0,0.0,0.0,0.0,0.0,0.0,0.0,0.0,0.0,0.0,0.0,0.0,0.0,0.0,0.0,0.0,0.0,0.0,0.0,0.0,0.0,0.0,0.0,0.0,0.0,0.0,0.0,0.0,0.0,0.0,0.0,0.0,0.0,0.0,0.0,0.0,0.0,0.0,0.0,0.0,0.0,0.0,0.0,0.0,0.0,0.0,7.8514,8.0221,8.193,8.3602,8.4474,8.4967,8.4967,8.4248,8.2728,0.0,0.0,0.0,0.0,0.0,0.0,0.0,0.0,0.0,0.0,0.0,0.0,0.0,0.0,0.0,0.0,0.0,0.0,0.0,0.0,0.0,0.0,0.0,0.0,0.0,0.0,0.0,0.0,0.0,0.0,0.0,0.0,0.0,0.0,0.0,0.0,0.0,0.0,0.0,0.0,0.0,0.0,0.0,0.0,0.0,0.0,0.0,0.0,0.0,0.0,0.0,0.0,0.0,0.0,0.0,0.0,0.0,0.0,0.0,0.0,0.0,0.0,0.0,0.0,0.0,0.0,0.0,0.0,0.0,0.0,0.0,0.0,0.0,0.0,0.0,0.0,0.0,0.0,0.0,0.0,0.0,0.0,0.0,0.0,0.0,0.0,0.0,0.0,0.0,0.0,0.0,0.0,0.0,0.0,0.0,0.0,0.0,0.0,0.0,0.0,0.0,0.0,0.0,7.6729,7.9006,8.0867,8.193,8.2726,8.2992,8.2461,8.1703,8.0145,7.76,0.0,0.0,0.0,0.0,0.0,0.0,0.0,0.0,0.0,0.0,0.0,0.0,0.0,0.0,0.0,0.0,0.0,0.0,0.0,0.0,0.0,0.0,0.0,0.0,0.0,0.0,0.0,0.0,0.0,0.0,0.0,0.0,0.0,0.0,0.0,0.0,0.0,0.0,0.0,0.0,0.0,0.0,0.0,0.0,0.0,0.0,0.0,0.0,0.0,0.0,0.0,0.0,0.0,0.0,0.0,0.0,0.0,0.0,0.0,0.0,0.0,0.0,0.0,0.0,0.0,0.0,0.0,0.0,0.0,0.0,0.0,0.0,0.0,0.0,0.0,0.0,0.0,0.0,0.0,0.0,0.0,0.0,0.0,0.0,0.0,0.0,0.0,0.0,0.0,0.0,0.0,0.0,0.0,0.0,0.0,0.0,0.0,0.0,0.0,0.0,0.0,0.0,0.0,7.8171,7.9994,8.1133,8.1663,8.1777,8.1284,8.0525,7.8968,7.6349,0.0,0.0,0.0,0.0,0.0,0.0,0.0,0.0,0.0,0.0,0.0,0.0,0.0,0.0,0.0,0.0,0.0,0.0,0.0,0.0,0.0,0.0,0.0,0.0,0.0,0.0,0.0,0.0,0.0,0.0,0.0,0.0,0.0,0.0,0.0,0.0,0.0,0.0,0.0,0.0,0.0,0.0,0.0,0.0,0.0,0.0,0.0,0.0,0.0,0.0,0.0,0.0,0.0,0.0,0.0,0.0,0.0,0.0,0.0,0.0,0.0,0.0,0.0,0.0,0.0,0.0,0.0,0.0,0.0,0.0,0.0,0.0,0.0,0.0,0.0,0.0,0.0,0.0,0.0,0.0,0.0,0.0,0.0,0.0,0.0,0.0,0.0,0.0,0.0,0.0,0.0,0.0,0.0,0.0,0.0,0.0,0.0,0.0,0.0,0.0,0.0,0.0,0.0,7.7565,7.9273,8.0905,8.1133,8.1133,8.1095,8.0373,7.8778,7.6121,7.3653,0.0,0.0,0.0,0.0,0.0,0.0,0.0,0.0,0.0,0.0,0.0,0.0,0.0,0.0,0.0,0.0,0.0,0.0,0.0,0.0,0.0,0.0,0.0,0.0,0.0,0.0,0.0,0.0,0.0,0.0,0.0,0.0,0.0,0.0,0.0,0.0,0.0,0.0,0.0,0.0,0.0,0.0,0.0,0.0,0.0,0.0,0.0,0.0,0.0,0.0,0.0,0.0,0.0,0.0,0.0,0.0,0.0,0.0,0.0,0.0,0.0,0.0,0.0,0.0,0.0,0.0,0.0,0.0,0.0,0.0,0.0,0.0,0.0,0.0,0.0,0.0,0.0,0.0,0.0,0.0,0.0,0.0,0.0,0.0,0.0,0.0,0.0,0.0,0.0,0.0,0.0,0.0,0.0,0.0,0.0,0.0,0.0,0.0,0.0,0.0,0.0,0.0,7.6351,7.8247,7.9197,7.9918,8.0107,7.9387,7.8589,7.6766,7.3577,7.1607,0.0,0.0,0.0,0.0,0.0,0.0,0.0,0.0,0.0,0.0,0.0,0.0,0.0,0.0,0.0,0.0,0.0,0.0,0.0,0.0,0.0,0.0,0.0,0.0,0.0,0.0,0.0,0.0,0.0,0.0,0.0,0.0,0.0,0.0,0.0,0.0,0.0,0.0,0.0,0.0,0.0,0.0,0.0,0.0,0.0,0.0,0.0,0.0,0.0,0.0,0.0,0.0,0.0,0.0,0.0,0.0,0.0,0.0,0.0,0.0,0.0,0.0,0.0,0.0,0.0,0.0,0.0,0.0,0.0,0.0,0.0,0.0,0.0,0.0,0.0,0.0,0.0,0.0,0.0,0.0,0.0,0.0,0.0,0.0,0.0,0.0,0.0,0.0,0.0,0.0,0.0,0.0,0.0,0.0,0.0,0.0,0.0,0.0,0.0,0.0,0.0,0.0,7.3426,7.6159,7.8476,7.9196,7.9272,7.8779,7.7603,7.5665,7.2704,6.9857,0.0,0.0,0.0,0.0,0.0,0.0,0.0,0.0,0.0,0.0,0.0,0.0,0.0,0.0,0.0,0.0,0.0,0.0,0.0,0.0,0.0,0.0,0.0,0.0,0.0,0.0,0.0,0.0,0.0,0.0,0.0,0.0,0.0,0.0,0.0,0.0,0.0,0.0,0.0,0.0,0.0,0.0,0.0,0.0,0.0,0.0,0.0,0.0,0.0,0.0,0.0,0.0,0.0,0.0,0.0,0.0,0.0,0.0,0.0,0.0,0.0,0.0,0.0,0.0,0.0,0.0,0.0,0.0,0.0,0.0,0.0,0.0,0.0,0.0,0.0,0.0,0.0,0.0,0.0,0.0,0.0,0.0,0.0,0.0,0.0,0.0,0.0,0.0,0.0,0.0,0.0,0.0,0.0,0.0,0.0,0.0,0.0,0.0,0.0,0.0,0.0,0.0,0.0,7.3501,7.7527,7.8324,7.8438,7.8172,7.6729,7.4716,7.2097,0.0,0.0,0.0,0.0,0.0,0.0,0.0,0.0,0.0,0.0,0.0,0.0,0.0,0.0,0.0,0.0,0.0,0.0,0.0,0.0,0.0,0.0,0.0,0.0,0.0,0.0,0.0,0.0,0.0,0.0,0.0,0.0,0.0,0.0,0.0,0.0,0.0,0.0,0.0,0.0,0.0,0.0,0.0,0.0,0.0,0.0,0.0,0.0,0.0,0.0,0.0,0.0,0.0,0.0,0.0,0.0,0.0,0.0,0.0,0.0,0.0,0.0,0.0,0.0,0.0,0.0,0.0,0.0,0.0,0.0,0.0,0.0,0.0,0.0,0.0,0.0,0.0,0.0,0.0,0.0,0.0,0.0,0.0,0.0,0.0,0.0,0.0,0.0,0.0,0.0,0.0,0.0,0.0,0.0,0.0,0.0,0.0,0.0,0.0,0.0,0.0,0.0,0.0,0.0,7.0692,7.4112,7.6463,7.7146,7.5739,7.4678,7.2708,6.9591,0.0,0.0,0.0,0.0,0.0,0.0,0.0,0.0,0.0,0.0,0.0,0.0,0.0,0.0]}]]]